<?xml version='1.0' encoding='UTF-8'?><gpx version="1.1" creator="JPX - https://github.com/jenetics/jpx" xmlns="http://www.topografix.com/GPX/1/1"><trk><trkseg><trkpt lat="44.3216054" lon="8.324117"><ele>409.00000000000006</ele><time>2026-03-30T14:31:37.803Z</time></trkpt><trkpt lat="44.3216724" lon="8.3240265"><ele>409.0</ele><time>2026-03-30T14:31:58.804Z</time></trkpt><trkpt lat="44.3217071" lon="8.3239381"><ele>409.0</ele><time>2026-03-30T14:32:02.804Z</time></trkpt><trkpt lat="44.32166" lon="8.3238657"><ele>409.0</ele><time>2026-03-30T14:32:05.803Z</time></trkpt><trkpt lat="44.3215857" lon="8.3238205"><ele>409.00000000000006</ele><time>2026-03-30T14:32:09.803Z</time></trkpt><trkpt lat="44.3215235" lon="8.3237837"><ele>409.0</ele><time>2026-03-30T14:32:12.803Z</time></trkpt><trkpt lat="44.3214479" lon="8.323744"><ele>409.1428571428571</ele><time>2026-03-30T14:32:15.803Z</time></trkpt><trkpt lat="44.3213616" lon="8.32371"><ele>409.28571428571433</ele><time>2026-03-30T14:32:18.804Z</time></trkpt><trkpt lat="44.3212984" lon="8.3236768"><ele>409.42857142857144</ele><time>2026-03-30T14:32:20.802Z</time></trkpt><trkpt lat="44.3212352" lon="8.3236422"><ele>409.57142857142856</ele><time>2026-03-30T14:32:22.804Z</time></trkpt><trkpt lat="44.3211675" lon="8.3236075"><ele>409.71428571428567</ele><time>2026-03-30T14:32:24.803Z</time></trkpt><trkpt lat="44.3210992" lon="8.3235662"><ele>409.8571428571429</ele><time>2026-03-30T14:32:26.802Z</time></trkpt><trkpt lat="44.3210356" lon="8.3235342"><ele>410.0</ele><time>2026-03-30T14:32:28.802Z</time></trkpt><trkpt lat="44.3209497" lon="8.3234872"><ele>409.99999999999994</ele><time>2026-03-30T14:32:31.861Z</time></trkpt><trkpt lat="44.320824" lon="8.3234112"><ele>410.0</ele><time>2026-03-30T14:32:34.802Z</time></trkpt><trkpt lat="44.3207484" lon="8.3233758"><ele>410.0</ele><time>2026-03-30T14:32:36.802Z</time></trkpt><trkpt lat="44.320676" lon="8.3233404"><ele>410.0</ele><time>2026-03-30T14:32:38.803Z</time></trkpt><trkpt lat="44.3206041" lon="8.3233012"><ele>409.99999999999994</ele><time>2026-03-30T14:32:40.803Z</time></trkpt><trkpt lat="44.3205327" lon="8.3232779"><ele>410.0</ele><time>2026-03-30T14:32:42.804Z</time></trkpt><trkpt lat="44.3204622" lon="8.3232502"><ele>410.16666666666663</ele><time>2026-03-30T14:32:44.803Z</time></trkpt><trkpt lat="44.3203935" lon="8.3232112"><ele>410.3333333333333</ele><time>2026-03-30T14:32:46.803Z</time></trkpt><trkpt lat="44.3203226" lon="8.3231724"><ele>410.5</ele><time>2026-03-30T14:32:48.802Z</time></trkpt><trkpt lat="44.3202509" lon="8.3231326"><ele>410.66666666666663</ele><time>2026-03-30T14:32:50.803Z</time></trkpt><trkpt lat="44.3201788" lon="8.323095"><ele>410.8333333333333</ele><time>2026-03-30T14:32:52.804Z</time></trkpt><trkpt lat="44.3201086" lon="8.3230602"><ele>411.0</ele><time>2026-03-30T14:32:54.804Z</time></trkpt><trkpt lat="44.3200413" lon="8.3230251"><ele>411.0</ele><time>2026-03-30T14:32:56.804Z</time></trkpt><trkpt lat="44.3199703" lon="8.3229923"><ele>411.0</ele><time>2026-03-30T14:32:58.803Z</time></trkpt><trkpt lat="44.3198907" lon="8.3229531"><ele>411.0</ele><time>2026-03-30T14:33:00.804Z</time></trkpt><trkpt lat="44.3198138" lon="8.3229035"><ele>411.0</ele><time>2026-03-30T14:33:02.804Z</time></trkpt><trkpt lat="44.3197399" lon="8.3228405"><ele>411.0</ele><time>2026-03-30T14:33:04.802Z</time></trkpt><trkpt lat="44.3196741" lon="8.3227721"><ele>411.0</ele><time>2026-03-30T14:33:06.804Z</time></trkpt><trkpt lat="44.3196132" lon="8.3226973"><ele>411.3333333333333</ele><time>2026-03-30T14:33:08.804Z</time></trkpt><trkpt lat="44.3195549" lon="8.3226209"><ele>411.66666666666663</ele><time>2026-03-30T14:33:10.803Z</time></trkpt><trkpt lat="44.3194935" lon="8.3225458"><ele>412.0</ele><time>2026-03-30T14:33:12.804Z</time></trkpt><trkpt lat="44.3194322" lon="8.3224647"><ele>412.3333333333333</ele><time>2026-03-30T14:33:14.804Z</time></trkpt><trkpt lat="44.3193753" lon="8.3223846"><ele>412.66666666666663</ele><time>2026-03-30T14:33:16.803Z</time></trkpt><trkpt lat="44.3193222" lon="8.3223028"><ele>413.0</ele><time>2026-03-30T14:33:18.803Z</time></trkpt><trkpt lat="44.3192659" lon="8.3222223"><ele>412.99999999999994</ele><time>2026-03-30T14:33:20.804Z</time></trkpt><trkpt lat="44.3192031" lon="8.3221496"><ele>413.0</ele><time>2026-03-30T14:33:22.803Z</time></trkpt><trkpt lat="44.3191421" lon="8.3220669"><ele>413.0</ele><time>2026-03-30T14:33:24.804Z</time></trkpt><trkpt lat="44.3190829" lon="8.3219882"><ele>413.0</ele><time>2026-03-30T14:33:26.804Z</time></trkpt><trkpt lat="44.3190266" lon="8.3219144"><ele>412.99999999999994</ele><time>2026-03-30T14:33:28.804Z</time></trkpt><trkpt lat="44.3189739" lon="8.3218388"><ele>413.0</ele><time>2026-03-30T14:33:30.803Z</time></trkpt><trkpt lat="44.3189275" lon="8.3217663"><ele>413.8333333333333</ele><time>2026-03-30T14:33:32.804Z</time></trkpt><trkpt lat="44.3188851" lon="8.3216858"><ele>414.66666666666663</ele><time>2026-03-30T14:33:34.803Z</time></trkpt><trkpt lat="44.3188448" lon="8.3215957"><ele>415.5</ele><time>2026-03-30T14:33:36.803Z</time></trkpt><trkpt lat="44.3188085" lon="8.3214978"><ele>416.33333333333337</ele><time>2026-03-30T14:33:38.804Z</time></trkpt><trkpt lat="44.3187788" lon="8.321398"><ele>417.1666666666667</ele><time>2026-03-30T14:33:40.804Z</time></trkpt><trkpt lat="44.3187478" lon="8.3212964"><ele>418.0</ele><time>2026-03-30T14:33:42.803Z</time></trkpt><trkpt lat="44.3187153" lon="8.3212015"><ele>418.00000000000006</ele><time>2026-03-30T14:33:44.804Z</time></trkpt><trkpt lat="44.3186797" lon="8.3211023"><ele>418.0</ele><time>2026-03-30T14:33:46.803Z</time></trkpt><trkpt lat="44.3186412" lon="8.3209842"><ele>418.0</ele><time>2026-03-30T14:33:48.803Z</time></trkpt><trkpt lat="44.3186075" lon="8.3208848"><ele>418.0</ele><time>2026-03-30T14:33:50.802Z</time></trkpt><trkpt lat="44.3185759" lon="8.3207968"><ele>418.00000000000006</ele><time>2026-03-30T14:33:52.804Z</time></trkpt><trkpt lat="44.3185425" lon="8.3207138"><ele>418.0</ele><time>2026-03-30T14:33:54.802Z</time></trkpt><trkpt lat="44.3185009" lon="8.3205968"><ele>417.1428571428571</ele><time>2026-03-30T14:33:57.802Z</time></trkpt><trkpt lat="44.3184641" lon="8.3205043"><ele>416.2857142857143</ele><time>2026-03-30T14:33:59.805Z</time></trkpt><trkpt lat="44.3184278" lon="8.3204179"><ele>415.42857142857144</ele><time>2026-03-30T14:34:01.804Z</time></trkpt><trkpt lat="44.3183875" lon="8.3203337"><ele>414.57142857142856</ele><time>2026-03-30T14:34:03.802Z</time></trkpt><trkpt lat="44.3183412" lon="8.3202578"><ele>413.7142857142857</ele><time>2026-03-30T14:34:05.804Z</time></trkpt><trkpt lat="44.3182866" lon="8.3201997"><ele>412.85714285714283</ele><time>2026-03-30T14:34:07.804Z</time></trkpt><trkpt lat="44.3182119" lon="8.3201672"><ele>412.0</ele><time>2026-03-30T14:34:09.803Z</time></trkpt><trkpt lat="44.3181251" lon="8.3201577"><ele>413.33333333333337</ele><time>2026-03-30T14:34:11.805Z</time></trkpt><trkpt lat="44.3180374" lon="8.320149"><ele>414.6666666666667</ele><time>2026-03-30T14:34:13.803Z</time></trkpt><trkpt lat="44.3179518" lon="8.320137"><ele>416.0</ele><time>2026-03-30T14:34:15.804Z</time></trkpt><trkpt lat="44.317866" lon="8.3201375"><ele>417.33333333333337</ele><time>2026-03-30T14:34:17.803Z</time></trkpt><trkpt lat="44.3177807" lon="8.3201348"><ele>418.6666666666667</ele><time>2026-03-30T14:34:19.803Z</time></trkpt><trkpt lat="44.3176945" lon="8.3201213"><ele>420.0</ele><time>2026-03-30T14:34:21.803Z</time></trkpt><trkpt lat="44.3176024" lon="8.3201009"><ele>420.0</ele><time>2026-03-30T14:34:23.804Z</time></trkpt><trkpt lat="44.3175203" lon="8.3200649"><ele>420.0</ele><time>2026-03-30T14:34:25.803Z</time></trkpt><trkpt lat="44.3174438" lon="8.320033"><ele>420.0</ele><time>2026-03-30T14:34:27.805Z</time></trkpt><trkpt lat="44.3173748" lon="8.3199552"><ele>420.0</ele><time>2026-03-30T14:34:29.804Z</time></trkpt><trkpt lat="44.3173179" lon="8.3198933"><ele>420.0</ele><time>2026-03-30T14:34:31.804Z</time></trkpt><trkpt lat="44.3172655" lon="8.31981"><ele>420.0</ele><time>2026-03-30T14:34:33.805Z</time></trkpt><trkpt lat="44.3172228" lon="8.3197199"><ele>421.0</ele><time>2026-03-30T14:34:35.803Z</time></trkpt><trkpt lat="44.3171815" lon="8.3196372"><ele>422.0</ele><time>2026-03-30T14:34:37.803Z</time></trkpt><trkpt lat="44.3171401" lon="8.3195707"><ele>423.0</ele><time>2026-03-30T14:34:39.803Z</time></trkpt><trkpt lat="44.317092" lon="8.3194961"><ele>424.0</ele><time>2026-03-30T14:34:41.804Z</time></trkpt><trkpt lat="44.3170436" lon="8.3194064"><ele>425.0</ele><time>2026-03-30T14:34:43.805Z</time></trkpt><trkpt lat="44.3169936" lon="8.3193295"><ele>426.0</ele><time>2026-03-30T14:34:45.803Z</time></trkpt><trkpt lat="44.3169449" lon="8.3192559"><ele>427.0</ele><time>2026-03-30T14:34:47.804Z</time></trkpt><trkpt lat="44.3169057" lon="8.319186"><ele>427.0</ele><time>2026-03-30T14:34:49.803Z</time></trkpt><trkpt lat="44.3168457" lon="8.3190974"><ele>427.0</ele><time>2026-03-30T14:34:52.804Z</time></trkpt><trkpt lat="44.3167872" lon="8.3189987"><ele>427.0</ele><time>2026-03-30T14:34:55.804Z</time></trkpt><trkpt lat="44.3167453" lon="8.3189253"><ele>427.0</ele><time>2026-03-30T14:34:57.804Z</time></trkpt><trkpt lat="44.3167005" lon="8.3188616"><ele>427.0</ele><time>2026-03-30T14:34:59.803Z</time></trkpt><trkpt lat="44.3166569" lon="8.3187954"><ele>427.0</ele><time>2026-03-30T14:35:01.804Z</time></trkpt><trkpt lat="44.3166088" lon="8.3187249"><ele>427.0</ele><time>2026-03-30T14:35:03.804Z</time></trkpt><trkpt lat="44.3165454" lon="8.3186353"><ele>425.50000000000006</ele><time>2026-03-30T14:35:06.804Z</time></trkpt><trkpt lat="44.3164808" lon="8.3185391"><ele>424.0</ele><time>2026-03-30T14:35:09.804Z</time></trkpt><trkpt lat="44.316444" lon="8.3184591"><ele>422.5</ele><time>2026-03-30T14:35:11.803Z</time></trkpt><trkpt lat="44.3164108" lon="8.3183819"><ele>421.0</ele><time>2026-03-30T14:35:13.803Z</time></trkpt><trkpt lat="44.3163789" lon="8.3182667"><ele>419.50000000000006</ele><time>2026-03-30T14:35:16.804Z</time></trkpt><trkpt lat="44.3163691" lon="8.3181469"><ele>418.0</ele><time>2026-03-30T14:35:19.803Z</time></trkpt><trkpt lat="44.3163783" lon="8.3180276"><ele>418.1666666666667</ele><time>2026-03-30T14:35:22.805Z</time></trkpt><trkpt lat="44.3163924" lon="8.3179418"><ele>418.33333333333337</ele><time>2026-03-30T14:35:24.802Z</time></trkpt><trkpt lat="44.3164095" lon="8.3178132"><ele>418.5</ele><time>2026-03-30T14:35:27.803Z</time></trkpt><trkpt lat="44.3164289" lon="8.3176862"><ele>418.66666666666663</ele><time>2026-03-30T14:35:30.804Z</time></trkpt><trkpt lat="44.3164428" lon="8.3175969"><ele>418.8333333333333</ele><time>2026-03-30T14:35:32.803Z</time></trkpt><trkpt lat="44.3164589" lon="8.3174988"><ele>419.0</ele><time>2026-03-30T14:35:34.803Z</time></trkpt><trkpt lat="44.3164754" lon="8.3173995"><ele>418.99999999999994</ele><time>2026-03-30T14:35:36.803Z</time></trkpt><trkpt lat="44.3164923" lon="8.3173022"><ele>419.0</ele><time>2026-03-30T14:35:38.804Z</time></trkpt><trkpt lat="44.3165014" lon="8.3171987"><ele>419.0</ele><time>2026-03-30T14:35:40.804Z</time></trkpt><trkpt lat="44.3165113" lon="8.3171029"><ele>419.0</ele><time>2026-03-30T14:35:42.803Z</time></trkpt><trkpt lat="44.3165296" lon="8.3170066"><ele>419.0</ele><time>2026-03-30T14:35:44.804Z</time></trkpt><trkpt lat="44.3165407" lon="8.3169184"><ele>418.99999999999994</ele><time>2026-03-30T14:35:46.804Z</time></trkpt><trkpt lat="44.3165494" lon="8.3167869"><ele>419.0</ele><time>2026-03-30T14:35:49.803Z</time></trkpt><trkpt lat="44.316558" lon="8.3166837"><ele>419.85714285714283</ele><time>2026-03-30T14:35:51.804Z</time></trkpt><trkpt lat="44.3165715" lon="8.316592"><ele>420.7142857142857</ele><time>2026-03-30T14:35:53.804Z</time></trkpt><trkpt lat="44.3165834" lon="8.3164953"><ele>421.57142857142856</ele><time>2026-03-30T14:35:55.804Z</time></trkpt><trkpt lat="44.3165835" lon="8.3163867"><ele>422.42857142857144</ele><time>2026-03-30T14:35:57.803Z</time></trkpt><trkpt lat="44.3165795" lon="8.3162838"><ele>423.2857142857143</ele><time>2026-03-30T14:35:59.802Z</time></trkpt><trkpt lat="44.3165751" lon="8.3161893"><ele>424.1428571428571</ele><time>2026-03-30T14:36:01.803Z</time></trkpt><trkpt lat="44.3165652" lon="8.3160958"><ele>425.0</ele><time>2026-03-30T14:36:03.802Z</time></trkpt><trkpt lat="44.3165579" lon="8.3160007"><ele>425.42857142857144</ele><time>2026-03-30T14:36:05.803Z</time></trkpt><trkpt lat="44.3165557" lon="8.3159048"><ele>425.85714285714283</ele><time>2026-03-30T14:36:07.804Z</time></trkpt><trkpt lat="44.3165585" lon="8.3158031"><ele>426.28571428571433</ele><time>2026-03-30T14:36:09.803Z</time></trkpt><trkpt lat="44.3165608" lon="8.3157127"><ele>426.7142857142857</ele><time>2026-03-30T14:36:11.803Z</time></trkpt><trkpt lat="44.3165625" lon="8.3156231"><ele>427.14285714285717</ele><time>2026-03-30T14:36:13.803Z</time></trkpt><trkpt lat="44.3165666" lon="8.3155248"><ele>427.5714285714286</ele><time>2026-03-30T14:36:15.804Z</time></trkpt><trkpt lat="44.3165667" lon="8.315428"><ele>428.0</ele><time>2026-03-30T14:36:17.803Z</time></trkpt><trkpt lat="44.3165652" lon="8.3153207"><ele>428.00000000000006</ele><time>2026-03-30T14:36:19.803Z</time></trkpt><trkpt lat="44.3165602" lon="8.3152156"><ele>428.0</ele><time>2026-03-30T14:36:21.804Z</time></trkpt><trkpt lat="44.3165542" lon="8.3151151"><ele>428.0</ele><time>2026-03-30T14:36:23.803Z</time></trkpt><trkpt lat="44.316554" lon="8.31501"><ele>428.0</ele><time>2026-03-30T14:36:25.803Z</time></trkpt><trkpt lat="44.3165409" lon="8.3149132"><ele>428.0</ele><time>2026-03-30T14:36:27.804Z</time></trkpt><trkpt lat="44.316541" lon="8.3148131"><ele>428.00000000000006</ele><time>2026-03-30T14:36:29.802Z</time></trkpt><trkpt lat="44.3165389" lon="8.3147225"><ele>428.0</ele><time>2026-03-30T14:36:31.804Z</time></trkpt><trkpt lat="44.3165347" lon="8.3146276"><ele>428.14285714285717</ele><time>2026-03-30T14:36:33.803Z</time></trkpt><trkpt lat="44.3165154" lon="8.3144931"><ele>428.2857142857143</ele><time>2026-03-30T14:36:36.804Z</time></trkpt><trkpt lat="44.3165014" lon="8.3143929"><ele>428.42857142857144</ele><time>2026-03-30T14:36:38.802Z</time></trkpt><trkpt lat="44.3164732" lon="8.3143093"><ele>428.57142857142856</ele><time>2026-03-30T14:36:40.804Z</time></trkpt><trkpt lat="44.3164403" lon="8.314225"><ele>428.7142857142857</ele><time>2026-03-30T14:36:42.805Z</time></trkpt><trkpt lat="44.3164092" lon="8.3141447"><ele>428.8571428571429</ele><time>2026-03-30T14:36:44.802Z</time></trkpt><trkpt lat="44.3163828" lon="8.3140618"><ele>429.0</ele><time>2026-03-30T14:36:46.802Z</time></trkpt><trkpt lat="44.316348" lon="8.3139731"><ele>428.8571428571429</ele><time>2026-03-30T14:36:48.803Z</time></trkpt><trkpt lat="44.3163122" lon="8.3138897"><ele>428.7142857142857</ele><time>2026-03-30T14:36:50.804Z</time></trkpt><trkpt lat="44.3162652" lon="8.313824"><ele>428.57142857142856</ele><time>2026-03-30T14:36:52.804Z</time></trkpt><trkpt lat="44.3162106" lon="8.3137686"><ele>428.42857142857144</ele><time>2026-03-30T14:36:54.804Z</time></trkpt><trkpt lat="44.3161535" lon="8.313722"><ele>428.2857142857143</ele><time>2026-03-30T14:36:56.803Z</time></trkpt><trkpt lat="44.3160839" lon="8.3136943"><ele>428.14285714285717</ele><time>2026-03-30T14:36:58.803Z</time></trkpt><trkpt lat="44.3159975" lon="8.3136792"><ele>428.0</ele><time>2026-03-30T14:37:00.803Z</time></trkpt><trkpt lat="44.3159081" lon="8.3136917"><ele>428.0</ele><time>2026-03-30T14:37:02.803Z</time></trkpt><trkpt lat="44.3158232" lon="8.3137049"><ele>427.99999999999994</ele><time>2026-03-30T14:37:04.804Z</time></trkpt><trkpt lat="44.3157419" lon="8.3137314"><ele>427.99999999999994</ele><time>2026-03-30T14:37:06.804Z</time></trkpt><trkpt lat="44.3156369" lon="8.3137307"><ele>428.0</ele><time>2026-03-30T14:37:08.803Z</time></trkpt><trkpt lat="44.3155404" lon="8.3137594"><ele>428.0</ele><time>2026-03-30T14:37:10.805Z</time></trkpt><trkpt lat="44.3154233" lon="8.3137647"><ele>427.4</ele><time>2026-03-30T14:37:12.804Z</time></trkpt><trkpt lat="44.3153204" lon="8.3137998"><ele>426.79999999999995</ele><time>2026-03-30T14:37:14.803Z</time></trkpt><trkpt lat="44.3152329" lon="8.3138353"><ele>426.2</ele><time>2026-03-30T14:37:16.803Z</time></trkpt><trkpt lat="44.3151256" lon="8.3138591"><ele>425.6</ele><time>2026-03-30T14:37:18.804Z</time></trkpt><trkpt lat="44.3150229" lon="8.3138753"><ele>425.0</ele><time>2026-03-30T14:37:20.802Z</time></trkpt><trkpt lat="44.3149173" lon="8.3139047"><ele>424.4</ele><time>2026-03-30T14:37:22.804Z</time></trkpt><trkpt lat="44.3148036" lon="8.3139282"><ele>423.8</ele><time>2026-03-30T14:37:24.804Z</time></trkpt><trkpt lat="44.3147099" lon="8.3139195"><ele>423.20000000000005</ele><time>2026-03-30T14:37:26.803Z</time></trkpt><trkpt lat="44.3146206" lon="8.3138945"><ele>422.6</ele><time>2026-03-30T14:37:28.804Z</time></trkpt><trkpt lat="44.314534" lon="8.3138396"><ele>422.0</ele><time>2026-03-30T14:37:30.803Z</time></trkpt><trkpt lat="44.3144515" lon="8.3138054"><ele>422.0</ele><time>2026-03-30T14:37:32.804Z</time></trkpt><trkpt lat="44.3143546" lon="8.3137685"><ele>422.0</ele><time>2026-03-30T14:37:34.804Z</time></trkpt><trkpt lat="44.3142558" lon="8.3137791"><ele>422.0</ele><time>2026-03-30T14:37:36.805Z</time></trkpt><trkpt lat="44.3141702" lon="8.3138086"><ele>422.0</ele><time>2026-03-30T14:37:38.803Z</time></trkpt><trkpt lat="44.3140863" lon="8.3138315"><ele>422.0</ele><time>2026-03-30T14:37:40.803Z</time></trkpt><trkpt lat="44.3139948" lon="8.3138758"><ele>425.0</ele><time>2026-03-30T14:37:42.803Z</time></trkpt><trkpt lat="44.3138904" lon="8.3138679"><ele>428.0</ele><time>2026-03-30T14:37:44.803Z</time></trkpt><trkpt lat="44.3137868" lon="8.313848"><ele>431.00000000000006</ele><time>2026-03-30T14:37:46.805Z</time></trkpt><trkpt lat="44.3137262" lon="8.3138217"><ele>434.0</ele><time>2026-03-30T14:37:47.802Z</time></trkpt><trkpt lat="44.3136346" lon="8.3137659"><ele>437.0</ele><time>2026-03-30T14:37:49.803Z</time></trkpt><trkpt lat="44.3135582" lon="8.3136782"><ele>437.0</ele><time>2026-03-30T14:37:51.803Z</time></trkpt><trkpt lat="44.3134842" lon="8.3135675"><ele>437.00000000000006</ele><time>2026-03-30T14:37:53.804Z</time></trkpt><trkpt lat="44.313428" lon="8.3134858"><ele>437.00000000000006</ele><time>2026-03-30T14:37:55.803Z</time></trkpt><trkpt lat="44.313356" lon="8.3133765"><ele>437.0</ele><time>2026-03-30T14:37:57.804Z</time></trkpt><trkpt lat="44.3132881" lon="8.3132583"><ele>437.0</ele><time>2026-03-30T14:37:59.804Z</time></trkpt><trkpt lat="44.3132294" lon="8.3131685"><ele>437.0</ele><time>2026-03-30T14:38:01.803Z</time></trkpt><trkpt lat="44.3131721" lon="8.3130829"><ele>437.00000000000006</ele><time>2026-03-30T14:38:03.803Z</time></trkpt><trkpt lat="44.3131227" lon="8.3129953"><ele>437.00000000000006</ele><time>2026-03-30T14:38:05.803Z</time></trkpt><trkpt lat="44.3130752" lon="8.31287"><ele>437.0</ele><time>2026-03-30T14:38:07.803Z</time></trkpt><trkpt lat="44.3130098" lon="8.3127572"><ele>437.0</ele><time>2026-03-30T14:38:09.803Z</time></trkpt><trkpt lat="44.3129568" lon="8.3126655"><ele>435.49999999999994</ele><time>2026-03-30T14:38:11.803Z</time></trkpt><trkpt lat="44.3128915" lon="8.3125511"><ele>434.0</ele><time>2026-03-30T14:38:13.803Z</time></trkpt><trkpt lat="44.3128226" lon="8.3124734"><ele>432.5</ele><time>2026-03-30T14:38:15.803Z</time></trkpt><trkpt lat="44.3127525" lon="8.3124183"><ele>431.0</ele><time>2026-03-30T14:38:17.803Z</time></trkpt><trkpt lat="44.3126812" lon="8.3123917"><ele>429.49999999999994</ele><time>2026-03-30T14:38:19.802Z</time></trkpt><trkpt lat="44.3125992" lon="8.3123912"><ele>428.0</ele><time>2026-03-30T14:38:21.804Z</time></trkpt><trkpt lat="44.3125184" lon="8.3124259"><ele>428.0</ele><time>2026-03-30T14:38:23.803Z</time></trkpt><trkpt lat="44.3124344" lon="8.3124701"><ele>427.99999999999994</ele><time>2026-03-30T14:38:25.803Z</time></trkpt><trkpt lat="44.3123508" lon="8.3125365"><ele>427.99999999999994</ele><time>2026-03-30T14:38:27.802Z</time></trkpt><trkpt lat="44.312279" lon="8.3126198"><ele>428.0</ele><time>2026-03-30T14:38:29.803Z</time></trkpt><trkpt lat="44.3122024" lon="8.3126911"><ele>428.0</ele><time>2026-03-30T14:38:31.803Z</time></trkpt><trkpt lat="44.31213" lon="8.3127838"><ele>427.16666666666663</ele><time>2026-03-30T14:38:33.804Z</time></trkpt><trkpt lat="44.3120628" lon="8.31287"><ele>426.3333333333333</ele><time>2026-03-30T14:38:35.804Z</time></trkpt><trkpt lat="44.3119889" lon="8.3129565"><ele>425.5</ele><time>2026-03-30T14:38:37.804Z</time></trkpt><trkpt lat="44.3119386" lon="8.3130123"><ele>424.66666666666663</ele><time>2026-03-30T14:38:38.804Z</time></trkpt><trkpt lat="44.3118377" lon="8.3130707"><ele>423.8333333333333</ele><time>2026-03-30T14:38:40.803Z</time></trkpt><trkpt lat="44.3117588" lon="8.3131164"><ele>423.0</ele><time>2026-03-30T14:38:42.804Z</time></trkpt><trkpt lat="44.3116834" lon="8.3131896"><ele>424.59999999999997</ele><time>2026-03-30T14:38:44.804Z</time></trkpt><trkpt lat="44.3116098" lon="8.3132451"><ele>426.2</ele><time>2026-03-30T14:38:46.804Z</time></trkpt><trkpt lat="44.3115342" lon="8.3133003"><ele>427.8</ele><time>2026-03-30T14:38:48.802Z</time></trkpt><trkpt lat="44.3114379" lon="8.3133615"><ele>429.4</ele><time>2026-03-30T14:38:50.803Z</time></trkpt><trkpt lat="44.3113418" lon="8.3134023"><ele>431.0</ele><time>2026-03-30T14:38:52.803Z</time></trkpt><trkpt lat="44.3112631" lon="8.3134223"><ele>431.0</ele><time>2026-03-30T14:38:54.803Z</time></trkpt><trkpt lat="44.3111886" lon="8.3134484"><ele>431.0</ele><time>2026-03-30T14:38:56.803Z</time></trkpt><trkpt lat="44.3111172" lon="8.3134411"><ele>431.0</ele><time>2026-03-30T14:38:58.804Z</time></trkpt><trkpt lat="44.3110496" lon="8.313423"><ele>431.0</ele><time>2026-03-30T14:39:00.802Z</time></trkpt><trkpt lat="44.31098" lon="8.313398"><ele>431.0</ele><time>2026-03-30T14:39:02.804Z</time></trkpt><trkpt lat="44.3109126" lon="8.3133772"><ele>431.0</ele><time>2026-03-30T14:39:04.804Z</time></trkpt><trkpt lat="44.3108492" lon="8.3133716"><ele>431.0</ele><time>2026-03-30T14:39:06.803Z</time></trkpt><trkpt lat="44.310756" lon="8.3133703"><ele>431.0</ele><time>2026-03-30T14:39:09.803Z</time></trkpt><trkpt lat="44.3106916" lon="8.3133678"><ele>431.0</ele><time>2026-03-30T14:39:11.804Z</time></trkpt><trkpt lat="44.3106005" lon="8.3133711"><ele>431.0</ele><time>2026-03-30T14:39:14.804Z</time></trkpt><trkpt lat="44.3105364" lon="8.3133689"><ele>431.0</ele><time>2026-03-30T14:39:16.803Z</time></trkpt><trkpt lat="44.3104711" lon="8.3133635"><ele>431.0</ele><time>2026-03-30T14:39:18.803Z</time></trkpt><trkpt lat="44.3103775" lon="8.3133672"><ele>431.0</ele><time>2026-03-30T14:39:21.803Z</time></trkpt><trkpt lat="44.3103082" lon="8.3133713"><ele>431.0</ele><time>2026-03-30T14:39:23.804Z</time></trkpt><trkpt lat="44.3102311" lon="8.3133636"><ele>431.0</ele><time>2026-03-30T14:39:25.804Z</time></trkpt><trkpt lat="44.3101599" lon="8.3133229"><ele>431.0</ele><time>2026-03-30T14:39:27.804Z</time></trkpt><trkpt lat="44.3100918" lon="8.3132829"><ele>431.0</ele><time>2026-03-30T14:39:29.804Z</time></trkpt><trkpt lat="44.3100355" lon="8.3132342"><ele>431.0</ele><time>2026-03-30T14:39:31.803Z</time></trkpt><trkpt lat="44.3099879" lon="8.3131754"><ele>431.0</ele><time>2026-03-30T14:39:33.803Z</time></trkpt><trkpt lat="44.3099457" lon="8.3131096"><ele>431.0</ele><time>2026-03-30T14:39:35.803Z</time></trkpt><trkpt lat="44.309906" lon="8.3130373"><ele>431.0</ele><time>2026-03-30T14:39:37.804Z</time></trkpt><trkpt lat="44.3098618" lon="8.3129316"><ele>430.99999999999994</ele><time>2026-03-30T14:39:40.803Z</time></trkpt><trkpt lat="44.3098357" lon="8.3128465"><ele>431.0</ele><time>2026-03-30T14:39:42.804Z</time></trkpt><trkpt lat="44.3098082" lon="8.3127564"><ele>431.0</ele><time>2026-03-30T14:39:44.804Z</time></trkpt><trkpt lat="44.3097799" lon="8.3126608"><ele>431.0</ele><time>2026-03-30T14:39:46.804Z</time></trkpt><trkpt lat="44.3097539" lon="8.3125695"><ele>430.99999999999994</ele><time>2026-03-30T14:39:48.804Z</time></trkpt><trkpt lat="44.3097152" lon="8.3124532"><ele>431.0</ele><time>2026-03-30T14:39:51.802Z</time></trkpt><trkpt lat="44.3096929" lon="8.3123372"><ele>431.99999999999994</ele><time>2026-03-30T14:39:54.804Z</time></trkpt><trkpt lat="44.3096823" lon="8.3122098"><ele>433.0</ele><time>2026-03-30T14:39:57.804Z</time></trkpt><trkpt lat="44.3096831" lon="8.3120909"><ele>434.0</ele><time>2026-03-30T14:40:00.804Z</time></trkpt><trkpt lat="44.3097069" lon="8.3119939"><ele>435.0</ele><time>2026-03-30T14:40:03.805Z</time></trkpt><trkpt lat="44.3097322" lon="8.3118938"><ele>435.99999999999994</ele><time>2026-03-30T14:40:06.803Z</time></trkpt><trkpt lat="44.3097637" lon="8.3117909"><ele>437.0</ele><time>2026-03-30T14:40:09.803Z</time></trkpt><trkpt lat="44.3098005" lon="8.3116872"><ele>436.99999999999994</ele><time>2026-03-30T14:40:12.804Z</time></trkpt><trkpt lat="44.3098339" lon="8.311585"><ele>437.0</ele><time>2026-03-30T14:40:15.803Z</time></trkpt><trkpt lat="44.3098478" lon="8.3114689"><ele>437.0</ele><time>2026-03-30T14:40:18.804Z</time></trkpt><trkpt lat="44.309853" lon="8.3113555"><ele>437.0</ele><time>2026-03-30T14:40:21.803Z</time></trkpt><trkpt lat="44.3098418" lon="8.3112413"><ele>436.99999999999994</ele><time>2026-03-30T14:40:24.803Z</time></trkpt><trkpt lat="44.3098311" lon="8.3111416"><ele>437.0</ele><time>2026-03-30T14:40:27.804Z</time></trkpt><trkpt lat="44.3097981" lon="8.3110303"><ele>437.16666666666663</ele><time>2026-03-30T14:40:30.803Z</time></trkpt><trkpt lat="44.309767" lon="8.3109514"><ele>437.3333333333333</ele><time>2026-03-30T14:40:32.803Z</time></trkpt><trkpt lat="44.309705" lon="8.3108752"><ele>437.5</ele><time>2026-03-30T14:40:35.802Z</time></trkpt><trkpt lat="44.3096579" lon="8.3108038"><ele>437.66666666666663</ele><time>2026-03-30T14:40:37.802Z</time></trkpt><trkpt lat="44.3096149" lon="8.3107393"><ele>437.8333333333333</ele><time>2026-03-30T14:40:39.804Z</time></trkpt><trkpt lat="44.3095702" lon="8.3106444"><ele>438.0</ele><time>2026-03-30T14:40:42.804Z</time></trkpt><trkpt lat="44.3095038" lon="8.3105526"><ele>438.0</ele><time>2026-03-30T14:40:45.804Z</time></trkpt><trkpt lat="44.3094512" lon="8.3104865"><ele>438.0</ele><time>2026-03-30T14:40:47.804Z</time></trkpt><trkpt lat="44.309405" lon="8.3104177"><ele>438.0</ele><time>2026-03-30T14:40:49.803Z</time></trkpt><trkpt lat="44.3093523" lon="8.3103361"><ele>438.0</ele><time>2026-03-30T14:40:51.804Z</time></trkpt><trkpt lat="44.3092967" lon="8.3102662"><ele>438.0</ele><time>2026-03-30T14:40:53.804Z</time></trkpt><trkpt lat="44.3092338" lon="8.3101946"><ele>438.0</ele><time>2026-03-30T14:40:55.804Z</time></trkpt><trkpt lat="44.3091607" lon="8.3101147"><ele>438.0</ele><time>2026-03-30T14:40:57.804Z</time></trkpt><trkpt lat="44.3090834" lon="8.3100305"><ele>438.0</ele><time>2026-03-30T14:40:59.804Z</time></trkpt><trkpt lat="44.3090141" lon="8.3099507"><ele>438.0</ele><time>2026-03-30T14:41:01.803Z</time></trkpt><trkpt lat="44.3089559" lon="8.3098788"><ele>438.0</ele><time>2026-03-30T14:41:03.802Z</time></trkpt><trkpt lat="44.3089008" lon="8.3098093"><ele>438.0</ele><time>2026-03-30T14:41:05.803Z</time></trkpt><trkpt lat="44.3088462" lon="8.3097418"><ele>438.0</ele><time>2026-03-30T14:41:07.802Z</time></trkpt><trkpt lat="44.3087927" lon="8.3096788"><ele>438.8333333333333</ele><time>2026-03-30T14:41:09.803Z</time></trkpt><trkpt lat="44.3087368" lon="8.3096142"><ele>439.66666666666663</ele><time>2026-03-30T14:41:11.804Z</time></trkpt><trkpt lat="44.3086807" lon="8.3095539"><ele>440.5</ele><time>2026-03-30T14:41:13.803Z</time></trkpt><trkpt lat="44.3086021" lon="8.3094797"><ele>441.3333333333333</ele><time>2026-03-30T14:41:16.803Z</time></trkpt><trkpt lat="44.3085485" lon="8.3094334"><ele>442.16666666666663</ele><time>2026-03-30T14:41:18.802Z</time></trkpt><trkpt lat="44.3084663" lon="8.3093636"><ele>443.0</ele><time>2026-03-30T14:41:21.805Z</time></trkpt><trkpt lat="44.3084054" lon="8.3093213"><ele>442.99999999999994</ele><time>2026-03-30T14:41:23.803Z</time></trkpt><trkpt lat="44.3083443" lon="8.3092781"><ele>443.0</ele><time>2026-03-30T14:41:25.803Z</time></trkpt><trkpt lat="44.3082814" lon="8.3092383"><ele>443.0</ele><time>2026-03-30T14:41:27.804Z</time></trkpt><trkpt lat="44.3082177" lon="8.3091989"><ele>443.0</ele><time>2026-03-30T14:41:29.802Z</time></trkpt><trkpt lat="44.3081303" lon="8.3091533"><ele>442.99999999999994</ele><time>2026-03-30T14:41:32.803Z</time></trkpt><trkpt lat="44.3080434" lon="8.3090995"><ele>443.0</ele><time>2026-03-30T14:41:35.804Z</time></trkpt><trkpt lat="44.3079651" lon="8.309058"><ele>441.99999999999994</ele><time>2026-03-30T14:41:38.803Z</time></trkpt><trkpt lat="44.3078973" lon="8.3090273"><ele>441.0</ele><time>2026-03-30T14:41:41.804Z</time></trkpt><trkpt lat="44.3078233" lon="8.308992"><ele>440.0</ele><time>2026-03-30T14:41:44.804Z</time></trkpt><trkpt lat="44.3077655" lon="8.3089495"><ele>439.0</ele><time>2026-03-30T14:41:46.802Z</time></trkpt><trkpt lat="44.3077081" lon="8.3089096"><ele>437.99999999999994</ele><time>2026-03-30T14:41:48.802Z</time></trkpt><trkpt lat="44.3076264" lon="8.3088601"><ele>437.0</ele><time>2026-03-30T14:41:51.803Z</time></trkpt><trkpt lat="44.3075492" lon="8.3088003"><ele>436.99999999999994</ele><time>2026-03-30T14:41:54.803Z</time></trkpt><trkpt lat="44.3074911" lon="8.3087358"><ele>437.0</ele><time>2026-03-30T14:41:57.805Z</time></trkpt><trkpt lat="44.3074183" lon="8.308676"><ele>437.0</ele><time>2026-03-30T14:42:00.804Z</time></trkpt><trkpt lat="44.307358" lon="8.3086299"><ele>437.0</ele><time>2026-03-30T14:42:02.804Z</time></trkpt><trkpt lat="44.3073016" lon="8.3085843"><ele>436.99999999999994</ele><time>2026-03-30T14:42:04.804Z</time></trkpt><trkpt lat="44.3072127" lon="8.3085347"><ele>437.0</ele><time>2026-03-30T14:42:07.804Z</time></trkpt><trkpt lat="44.3071422" lon="8.3085053"><ele>440.49999999999994</ele><time>2026-03-30T14:42:09.804Z</time></trkpt><trkpt lat="44.3070494" lon="8.308473"><ele>444.0</ele><time>2026-03-30T14:42:12.804Z</time></trkpt><trkpt lat="44.3069845" lon="8.3084357"><ele>447.5</ele><time>2026-03-30T14:42:14.803Z</time></trkpt><trkpt lat="44.3069254" lon="8.3083961"><ele>451.0</ele><time>2026-03-30T14:42:16.803Z</time></trkpt><trkpt lat="44.3068631" lon="8.308367"><ele>454.49999999999994</ele><time>2026-03-30T14:42:18.802Z</time></trkpt><trkpt lat="44.3067917" lon="8.3083409"><ele>458.0</ele><time>2026-03-30T14:42:20.805Z</time></trkpt><trkpt lat="44.306715" lon="8.3083127"><ele>457.99999999999994</ele><time>2026-03-30T14:42:23.804Z</time></trkpt><trkpt lat="44.3066603" lon="8.3082589"><ele>458.0</ele><time>2026-03-30T14:42:25.804Z</time></trkpt><trkpt lat="44.3065987" lon="8.3081947"><ele>458.0</ele><time>2026-03-30T14:42:27.802Z</time></trkpt><trkpt lat="44.3065442" lon="8.308134"><ele>458.0</ele><time>2026-03-30T14:42:29.803Z</time></trkpt><trkpt lat="44.3064932" lon="8.3080197"><ele>457.99999999999994</ele><time>2026-03-30T14:42:32.803Z</time></trkpt><trkpt lat="44.3064576" lon="8.3079259"><ele>458.0</ele><time>2026-03-30T14:42:34.802Z</time></trkpt><trkpt lat="44.3064351" lon="8.3078401"><ele>456.0</ele><time>2026-03-30T14:42:36.802Z</time></trkpt><trkpt lat="44.3064165" lon="8.3077441"><ele>454.0</ele><time>2026-03-30T14:42:38.802Z</time></trkpt><trkpt lat="44.3064032" lon="8.3076478"><ele>452.0</ele><time>2026-03-30T14:42:40.804Z</time></trkpt><trkpt lat="44.3063972" lon="8.3075571"><ele>450.0</ele><time>2026-03-30T14:42:42.804Z</time></trkpt><trkpt lat="44.3063966" lon="8.3074526"><ele>448.0</ele><time>2026-03-30T14:42:44.803Z</time></trkpt><trkpt lat="44.3063984" lon="8.3073588"><ele>446.0</ele><time>2026-03-30T14:42:46.803Z</time></trkpt><trkpt lat="44.3063977" lon="8.3072598"><ele>444.0</ele><time>2026-03-30T14:42:48.803Z</time></trkpt><trkpt lat="44.3063893" lon="8.3071566"><ele>449.71428571428567</ele><time>2026-03-30T14:42:50.803Z</time></trkpt><trkpt lat="44.3063883" lon="8.3070573"><ele>455.42857142857144</ele><time>2026-03-30T14:42:52.803Z</time></trkpt><trkpt lat="44.3063835" lon="8.3069616"><ele>461.1428571428571</ele><time>2026-03-30T14:42:54.803Z</time></trkpt><trkpt lat="44.3063779" lon="8.3068719"><ele>466.85714285714283</ele><time>2026-03-30T14:42:56.803Z</time></trkpt><trkpt lat="44.3063789" lon="8.3067831"><ele>472.57142857142856</ele><time>2026-03-30T14:42:58.803Z</time></trkpt><trkpt lat="44.306371" lon="8.3066782"><ele>478.2857142857143</ele><time>2026-03-30T14:43:00.802Z</time></trkpt><trkpt lat="44.3063575" lon="8.3065706"><ele>484.0</ele><time>2026-03-30T14:43:02.802Z</time></trkpt><trkpt lat="44.3063611" lon="8.3064625"><ele>484.0</ele><time>2026-03-30T14:43:04.803Z</time></trkpt><trkpt lat="44.3063643" lon="8.3063598"><ele>483.99999999999994</ele><time>2026-03-30T14:43:06.804Z</time></trkpt><trkpt lat="44.306374" lon="8.3062576"><ele>484.0</ele><time>2026-03-30T14:43:08.804Z</time></trkpt><trkpt lat="44.3063727" lon="8.3061671"><ele>484.0</ele><time>2026-03-30T14:43:10.804Z</time></trkpt><trkpt lat="44.3063738" lon="8.3060702"><ele>483.99999999999994</ele><time>2026-03-30T14:43:12.804Z</time></trkpt><trkpt lat="44.3063734" lon="8.3059694"><ele>484.0</ele><time>2026-03-30T14:43:14.803Z</time></trkpt><trkpt lat="44.3063652" lon="8.3058676"><ele>484.0</ele><time>2026-03-30T14:43:16.802Z</time></trkpt><trkpt lat="44.3063598" lon="8.3057674"><ele>484.0</ele><time>2026-03-30T14:43:18.802Z</time></trkpt><trkpt lat="44.3063658" lon="8.3056743"><ele>483.99999999999994</ele><time>2026-03-30T14:43:20.803Z</time></trkpt><trkpt lat="44.3063645" lon="8.3055753"><ele>484.0</ele><time>2026-03-30T14:43:22.803Z</time></trkpt><trkpt lat="44.3063603" lon="8.3054709"><ele>484.0</ele><time>2026-03-30T14:43:24.804Z</time></trkpt><trkpt lat="44.3063572" lon="8.3053639"><ele>483.99999999999994</ele><time>2026-03-30T14:43:26.803Z</time></trkpt><trkpt lat="44.3063481" lon="8.3052717"><ele>484.0</ele><time>2026-03-30T14:43:28.803Z</time></trkpt><trkpt lat="44.3063439" lon="8.3051796"><ele>484.0</ele><time>2026-03-30T14:43:30.802Z</time></trkpt><trkpt lat="44.3063292" lon="8.305046"><ele>483.85714285714283</ele><time>2026-03-30T14:43:33.803Z</time></trkpt><trkpt lat="44.3063357" lon="8.3049382"><ele>483.71428571428567</ele><time>2026-03-30T14:43:35.803Z</time></trkpt><trkpt lat="44.306336" lon="8.3048438"><ele>483.57142857142856</ele><time>2026-03-30T14:43:37.802Z</time></trkpt><trkpt lat="44.3063178" lon="8.3047488"><ele>483.42857142857144</ele><time>2026-03-30T14:43:39.804Z</time></trkpt><trkpt lat="44.3063045" lon="8.3046529"><ele>483.2857142857143</ele><time>2026-03-30T14:43:41.803Z</time></trkpt><trkpt lat="44.3062942" lon="8.3045612"><ele>483.1428571428571</ele><time>2026-03-30T14:43:43.803Z</time></trkpt><trkpt lat="44.3062749" lon="8.3044725"><ele>483.0</ele><time>2026-03-30T14:43:45.803Z</time></trkpt><trkpt lat="44.3062536" lon="8.304378"><ele>481.2</ele><time>2026-03-30T14:43:47.802Z</time></trkpt><trkpt lat="44.3062099" lon="8.304261"><ele>479.4</ele><time>2026-03-30T14:43:50.803Z</time></trkpt><trkpt lat="44.3061761" lon="8.3041759"><ele>477.59999999999997</ele><time>2026-03-30T14:43:52.803Z</time></trkpt><trkpt lat="44.3061244" lon="8.3040591"><ele>475.79999999999995</ele><time>2026-03-30T14:43:55.803Z</time></trkpt><trkpt lat="44.3060657" lon="8.3039573"><ele>474.0</ele><time>2026-03-30T14:43:59.802Z</time></trkpt><trkpt lat="44.3060028" lon="8.3038426"><ele>470.6666666666667</ele><time>2026-03-30T14:44:01.805Z</time></trkpt><trkpt lat="44.305949" lon="8.3037384"><ele>467.33333333333337</ele><time>2026-03-30T14:44:03.804Z</time></trkpt><trkpt lat="44.3058853" lon="8.3036414"><ele>464.0</ele><time>2026-03-30T14:44:05.803Z</time></trkpt><trkpt lat="44.3058259" lon="8.3035683"><ele>460.6666666666667</ele><time>2026-03-30T14:44:07.803Z</time></trkpt><trkpt lat="44.3057794" lon="8.3034955"><ele>457.33333333333337</ele><time>2026-03-30T14:44:09.804Z</time></trkpt><trkpt lat="44.3057074" lon="8.3033797"><ele>454.0</ele><time>2026-03-30T14:44:11.802Z</time></trkpt><trkpt lat="44.305639" lon="8.3033119"><ele>454.1666666666667</ele><time>2026-03-30T14:44:13.804Z</time></trkpt><trkpt lat="44.3055757" lon="8.3032467"><ele>454.33333333333337</ele><time>2026-03-30T14:44:15.803Z</time></trkpt><trkpt lat="44.3055061" lon="8.3031603"><ele>454.5</ele><time>2026-03-30T14:44:17.803Z</time></trkpt><trkpt lat="44.3054577" lon="8.3030948"><ele>454.66666666666663</ele><time>2026-03-30T14:44:19.803Z</time></trkpt><trkpt lat="44.305396" lon="8.3030173"><ele>454.8333333333333</ele><time>2026-03-30T14:44:21.803Z</time></trkpt><trkpt lat="44.3053359" lon="8.3029367"><ele>455.0</ele><time>2026-03-30T14:44:23.803Z</time></trkpt><trkpt lat="44.3052699" lon="8.3028171"><ele>455.0</ele><time>2026-03-30T14:44:25.803Z</time></trkpt><trkpt lat="44.3052117" lon="8.3027258"><ele>455.0</ele><time>2026-03-30T14:44:27.803Z</time></trkpt><trkpt lat="44.3051396" lon="8.3026202"><ele>455.0</ele><time>2026-03-30T14:44:29.803Z</time></trkpt><trkpt lat="44.3050688" lon="8.3025291"><ele>455.0</ele><time>2026-03-30T14:44:31.802Z</time></trkpt><trkpt lat="44.3050143" lon="8.3024323"><ele>455.0</ele><time>2026-03-30T14:44:33.803Z</time></trkpt><trkpt lat="44.3049497" lon="8.3023525"><ele>454.99999999999994</ele><time>2026-03-30T14:44:35.803Z</time></trkpt><trkpt lat="44.3048912" lon="8.3022849"><ele>455.0</ele><time>2026-03-30T14:44:37.803Z</time></trkpt><trkpt lat="44.3048385" lon="8.3022087"><ele>455.0</ele><time>2026-03-30T14:44:39.803Z</time></trkpt><trkpt lat="44.3047883" lon="8.3021298"><ele>455.0</ele><time>2026-03-30T14:44:41.803Z</time></trkpt><trkpt lat="44.3047468" lon="8.302027"><ele>454.99999999999994</ele><time>2026-03-30T14:44:43.803Z</time></trkpt><trkpt lat="44.3046986" lon="8.3019398"><ele>455.0</ele><time>2026-03-30T14:44:45.803Z</time></trkpt><trkpt lat="44.3046606" lon="8.301857"><ele>455.66666666666663</ele><time>2026-03-30T14:44:47.802Z</time></trkpt><trkpt lat="44.3046237" lon="8.3017713"><ele>456.3333333333333</ele><time>2026-03-30T14:44:49.803Z</time></trkpt><trkpt lat="44.3045762" lon="8.3016898"><ele>457.0</ele><time>2026-03-30T14:44:51.803Z</time></trkpt><trkpt lat="44.3045252" lon="8.3016221"><ele>457.66666666666663</ele><time>2026-03-30T14:44:53.803Z</time></trkpt><trkpt lat="44.3044571" lon="8.3015619"><ele>458.3333333333333</ele><time>2026-03-30T14:44:55.802Z</time></trkpt><trkpt lat="44.3043889" lon="8.3015394"><ele>459.0</ele><time>2026-03-30T14:44:57.803Z</time></trkpt><trkpt lat="44.304303" lon="8.3015106"><ele>459.0</ele><time>2026-03-30T14:44:59.802Z</time></trkpt><trkpt lat="44.3042241" lon="8.3015148"><ele>459.0</ele><time>2026-03-30T14:45:01.802Z</time></trkpt><trkpt lat="44.3041313" lon="8.3015126"><ele>459.0</ele><time>2026-03-30T14:45:03.803Z</time></trkpt><trkpt lat="44.3040445" lon="8.3014975"><ele>459.0</ele><time>2026-03-30T14:45:05.804Z</time></trkpt><trkpt lat="44.3039628" lon="8.3014874"><ele>459.0</ele><time>2026-03-30T14:45:07.803Z</time></trkpt><trkpt lat="44.3038659" lon="8.3014699"><ele>459.0</ele><time>2026-03-30T14:45:09.803Z</time></trkpt><trkpt lat="44.3037589" lon="8.3014495"><ele>457.75</ele><time>2026-03-30T14:45:11.803Z</time></trkpt><trkpt lat="44.3036447" lon="8.3014166"><ele>456.5</ele><time>2026-03-30T14:45:13.803Z</time></trkpt><trkpt lat="44.30354" lon="8.3013802"><ele>455.25</ele><time>2026-03-30T14:45:15.803Z</time></trkpt><trkpt lat="44.303429" lon="8.3013562"><ele>454.0</ele><time>2026-03-30T14:45:17.804Z</time></trkpt><trkpt lat="44.3033139" lon="8.3013919"><ele>454.0</ele><time>2026-03-30T14:45:19.803Z</time></trkpt><trkpt lat="44.3032135" lon="8.3014632"><ele>454.0</ele><time>2026-03-30T14:45:21.802Z</time></trkpt><trkpt lat="44.3031709" lon="8.3015728"><ele>454.0</ele><time>2026-03-30T14:45:23.803Z</time></trkpt><trkpt lat="44.3031194" lon="8.3017306"><ele>454.0</ele><time>2026-03-30T14:45:25.802Z</time></trkpt><trkpt lat="44.3030715" lon="8.3018848"><ele>454.0</ele><time>2026-03-30T14:45:27.803Z</time></trkpt><trkpt lat="44.3030309" lon="8.3020285"><ele>452.5</ele><time>2026-03-30T14:45:29.803Z</time></trkpt><trkpt lat="44.3029687" lon="8.3021844"><ele>451.0</ele><time>2026-03-30T14:45:31.803Z</time></trkpt><trkpt lat="44.3029228" lon="8.3023363"><ele>449.5</ele><time>2026-03-30T14:45:33.803Z</time></trkpt><trkpt lat="44.3028771" lon="8.3024758"><ele>448.0</ele><time>2026-03-30T14:45:35.803Z</time></trkpt><trkpt lat="44.302822" lon="8.3026268"><ele>447.59999999999997</ele><time>2026-03-30T14:45:37.802Z</time></trkpt><trkpt lat="44.3027873" lon="8.3027173"><ele>447.19999999999993</ele><time>2026-03-30T14:45:38.803Z</time></trkpt><trkpt lat="44.3027236" lon="8.302862"><ele>446.8</ele><time>2026-03-30T14:45:40.803Z</time></trkpt><trkpt lat="44.3026417" lon="8.3030018"><ele>446.4</ele><time>2026-03-30T14:45:42.802Z</time></trkpt><trkpt lat="44.3025931" lon="8.3030585"><ele>446.0</ele><time>2026-03-30T14:45:43.803Z</time></trkpt><trkpt lat="44.302543" lon="8.3031128"><ele>446.49999999999994</ele><time>2026-03-30T14:45:44.804Z</time></trkpt><trkpt lat="44.3024543" lon="8.3032051"><ele>447.0</ele><time>2026-03-30T14:45:46.803Z</time></trkpt><trkpt lat="44.302399" lon="8.3032654"><ele>447.5</ele><time>2026-03-30T14:45:47.803Z</time></trkpt><trkpt lat="44.3023446" lon="8.3033156"><ele>448.0</ele><time>2026-03-30T14:45:48.802Z</time></trkpt><trkpt lat="44.3022943" lon="8.3033688"><ele>448.49999999999994</ele><time>2026-03-30T14:45:49.804Z</time></trkpt><trkpt lat="44.3021902" lon="8.3034544"><ele>449.0</ele><time>2026-03-30T14:45:51.803Z</time></trkpt><trkpt lat="44.3020791" lon="8.3034988"><ele>448.99999999999994</ele><time>2026-03-30T14:45:53.802Z</time></trkpt><trkpt lat="44.302016" lon="8.3034902"><ele>449.0</ele><time>2026-03-30T14:45:54.803Z</time></trkpt><trkpt lat="44.301895" lon="8.3034839"><ele>449.0</ele><time>2026-03-30T14:45:56.802Z</time></trkpt><trkpt lat="44.3018267" lon="8.3034655"><ele>449.0</ele><time>2026-03-30T14:45:57.803Z</time></trkpt><trkpt lat="44.3017574" lon="8.3034661"><ele>448.99999999999994</ele><time>2026-03-30T14:45:58.803Z</time></trkpt><trkpt lat="44.3016879" lon="8.3034464"><ele>449.0</ele><time>2026-03-30T14:45:59.804Z</time></trkpt><trkpt lat="44.3016234" lon="8.3034331"><ele>449.0</ele><time>2026-03-30T14:46:00.803Z</time></trkpt><trkpt lat="44.3015069" lon="8.3034602"><ele>449.0</ele><time>2026-03-30T14:46:02.803Z</time></trkpt><trkpt lat="44.3013872" lon="8.3034534"><ele>449.0</ele><time>2026-03-30T14:46:04.803Z</time></trkpt><trkpt lat="44.3012822" lon="8.3034904"><ele>449.0</ele><time>2026-03-30T14:46:06.803Z</time></trkpt><trkpt lat="44.3011767" lon="8.3035454"><ele>448.79999999999995</ele><time>2026-03-30T14:46:08.804Z</time></trkpt><trkpt lat="44.3010771" lon="8.3036169"><ele>448.59999999999997</ele><time>2026-03-30T14:46:10.804Z</time></trkpt><trkpt lat="44.3009839" lon="8.3036715"><ele>448.4</ele><time>2026-03-30T14:46:12.803Z</time></trkpt><trkpt lat="44.3008899" lon="8.303715"><ele>448.2</ele><time>2026-03-30T14:46:14.802Z</time></trkpt><trkpt lat="44.3008186" lon="8.3037535"><ele>448.0</ele><time>2026-03-30T14:46:16.802Z</time></trkpt><trkpt lat="44.3007324" lon="8.3038001"><ele>448.0</ele><time>2026-03-30T14:46:18.802Z</time></trkpt><trkpt lat="44.3006695" lon="8.303852"><ele>447.99999999999994</ele><time>2026-03-30T14:46:20.802Z</time></trkpt><trkpt lat="44.3005612" lon="8.3038251"><ele>447.99999999999994</ele><time>2026-03-30T14:46:22.802Z</time></trkpt><trkpt lat="44.3004687" lon="8.3038353"><ele>448.0</ele><time>2026-03-30T14:46:24.803Z</time></trkpt><trkpt lat="44.3003655" lon="8.303809"><ele>448.0</ele><time>2026-03-30T14:46:26.803Z</time></trkpt><trkpt lat="44.3002575" lon="8.3037892"><ele>447.50000000000006</ele><time>2026-03-30T14:46:29.802Z</time></trkpt><trkpt lat="44.3001645" lon="8.3037761"><ele>447.0</ele><time>2026-03-30T14:46:31.802Z</time></trkpt><trkpt lat="44.3000855" lon="8.3037693"><ele>446.5</ele><time>2026-03-30T14:46:33.804Z</time></trkpt><trkpt lat="44.3000106" lon="8.3037688"><ele>446.0</ele><time>2026-03-30T14:46:35.804Z</time></trkpt><trkpt lat="44.2999455" lon="8.3037547"><ele>445.50000000000006</ele><time>2026-03-30T14:46:37.803Z</time></trkpt><trkpt lat="44.2998717" lon="8.3037495"><ele>445.0</ele><time>2026-03-30T14:46:39.803Z</time></trkpt><trkpt lat="44.2997661" lon="8.3037361"><ele>445.33333333333337</ele><time>2026-03-30T14:46:42.802Z</time></trkpt><trkpt lat="44.2996838" lon="8.3037478"><ele>445.6666666666667</ele><time>2026-03-30T14:46:44.803Z</time></trkpt><trkpt lat="44.2996023" lon="8.3037682"><ele>446.0</ele><time>2026-03-30T14:46:46.802Z</time></trkpt><trkpt lat="44.2995148" lon="8.3038077"><ele>446.33333333333337</ele><time>2026-03-30T14:46:48.803Z</time></trkpt><trkpt lat="44.299431" lon="8.3038662"><ele>446.6666666666667</ele><time>2026-03-30T14:46:50.803Z</time></trkpt><trkpt lat="44.2993439" lon="8.3039091"><ele>447.0</ele><time>2026-03-30T14:46:52.803Z</time></trkpt><trkpt lat="44.2992604" lon="8.3039434"><ele>447.85714285714283</ele><time>2026-03-30T14:46:54.803Z</time></trkpt><trkpt lat="44.2991848" lon="8.3039701"><ele>448.71428571428567</ele><time>2026-03-30T14:46:56.803Z</time></trkpt><trkpt lat="44.29911" lon="8.3039798"><ele>449.57142857142856</ele><time>2026-03-30T14:46:58.803Z</time></trkpt><trkpt lat="44.2990397" lon="8.3039758"><ele>450.4285714285714</ele><time>2026-03-30T14:47:00.802Z</time></trkpt><trkpt lat="44.2989664" lon="8.3039767"><ele>451.2857142857143</ele><time>2026-03-30T14:47:02.803Z</time></trkpt><trkpt lat="44.2988959" lon="8.3039885"><ele>452.14285714285705</ele><time>2026-03-30T14:47:04.803Z</time></trkpt><trkpt lat="44.2988199" lon="8.3039979"><ele>452.99999999999994</ele><time>2026-03-30T14:47:06.802Z</time></trkpt><trkpt lat="44.2987357" lon="8.3040077"><ele>453.5</ele><time>2026-03-30T14:47:08.803Z</time></trkpt><trkpt lat="44.2986564" lon="8.3039922"><ele>454.0</ele><time>2026-03-30T14:47:10.803Z</time></trkpt><trkpt lat="44.2985759" lon="8.3039929"><ele>454.5</ele><time>2026-03-30T14:47:12.803Z</time></trkpt><trkpt lat="44.2984948" lon="8.3039806"><ele>455.0</ele><time>2026-03-30T14:47:14.802Z</time></trkpt><trkpt lat="44.2984197" lon="8.3039964"><ele>455.5</ele><time>2026-03-30T14:47:16.802Z</time></trkpt><trkpt lat="44.2983456" lon="8.3040202"><ele>456.0</ele><time>2026-03-30T14:47:18.803Z</time></trkpt><trkpt lat="44.2982689" lon="8.3040541"><ele>456.0</ele><time>2026-03-30T14:47:20.804Z</time></trkpt><trkpt lat="44.2981967" lon="8.3040805"><ele>456.0</ele><time>2026-03-30T14:47:22.804Z</time></trkpt><trkpt lat="44.2981165" lon="8.3041033"><ele>456.0</ele><time>2026-03-30T14:47:24.803Z</time></trkpt><trkpt lat="44.29803" lon="8.3041184"><ele>456.0</ele><time>2026-03-30T14:47:26.803Z</time></trkpt><trkpt lat="44.297944" lon="8.3041276"><ele>456.0</ele><time>2026-03-30T14:47:28.803Z</time></trkpt><trkpt lat="44.2978652" lon="8.3040976"><ele>456.0</ele><time>2026-03-30T14:47:30.803Z</time></trkpt><trkpt lat="44.2977876" lon="8.3040591"><ele>456.1666666666667</ele><time>2026-03-30T14:47:32.802Z</time></trkpt><trkpt lat="44.297688" lon="8.304028"><ele>456.33333333333337</ele><time>2026-03-30T14:47:34.801Z</time></trkpt><trkpt lat="44.2976251" lon="8.3039884"><ele>456.5</ele><time>2026-03-30T14:47:36.804Z</time></trkpt><trkpt lat="44.2975554" lon="8.3039308"><ele>456.6666666666667</ele><time>2026-03-30T14:47:38.803Z</time></trkpt><trkpt lat="44.2974897" lon="8.3038644"><ele>456.83333333333337</ele><time>2026-03-30T14:47:40.803Z</time></trkpt><trkpt lat="44.2974283" lon="8.3038021"><ele>457.0</ele><time>2026-03-30T14:47:42.804Z</time></trkpt><trkpt lat="44.2973838" lon="8.3036956"><ele>455.6</ele><time>2026-03-30T14:47:44.804Z</time></trkpt><trkpt lat="44.2973503" lon="8.3035861"><ele>454.20000000000005</ele><time>2026-03-30T14:47:46.802Z</time></trkpt><trkpt lat="44.2973434" lon="8.3034598"><ele>452.8</ele><time>2026-03-30T14:47:48.802Z</time></trkpt><trkpt lat="44.2973463" lon="8.3033384"><ele>451.4</ele><time>2026-03-30T14:47:50.803Z</time></trkpt><trkpt lat="44.2973589" lon="8.3032137"><ele>450.0</ele><time>2026-03-30T14:47:52.803Z</time></trkpt><trkpt lat="44.2973783" lon="8.3030779"><ele>449.6666666666667</ele><time>2026-03-30T14:47:54.803Z</time></trkpt><trkpt lat="44.2974012" lon="8.3029205"><ele>449.33333333333337</ele><time>2026-03-30T14:47:56.804Z</time></trkpt><trkpt lat="44.2974363" lon="8.3027683"><ele>449.0</ele><time>2026-03-30T14:47:58.803Z</time></trkpt><trkpt lat="44.2974449" lon="8.3026801"><ele>448.6666666666667</ele><time>2026-03-30T14:47:59.803Z</time></trkpt><trkpt lat="44.2974619" lon="8.3025896"><ele>448.33333333333337</ele><time>2026-03-30T14:48:00.803Z</time></trkpt><trkpt lat="44.2974768" lon="8.302497"><ele>448.0</ele><time>2026-03-30T14:48:01.803Z</time></trkpt><trkpt lat="44.2974918" lon="8.3024013"><ele>448.0</ele><time>2026-03-30T14:48:02.804Z</time></trkpt><trkpt lat="44.2975104" lon="8.3023108"><ele>448.0</ele><time>2026-03-30T14:48:03.803Z</time></trkpt><trkpt lat="44.2975266" lon="8.3022156"><ele>448.0</ele><time>2026-03-30T14:48:04.803Z</time></trkpt><trkpt lat="44.2975435" lon="8.3021143"><ele>448.0</ele><time>2026-03-30T14:48:05.803Z</time></trkpt><trkpt lat="44.2975622" lon="8.3020152"><ele>448.0</ele><time>2026-03-30T14:48:06.804Z</time></trkpt><trkpt lat="44.2975824" lon="8.3019108"><ele>448.0</ele><time>2026-03-30T14:48:07.803Z</time></trkpt><trkpt lat="44.2976002" lon="8.3018044"><ele>448.0</ele><time>2026-03-30T14:48:08.804Z</time></trkpt><trkpt lat="44.2976205" lon="8.3017051"><ele>447.83333333333337</ele><time>2026-03-30T14:48:09.804Z</time></trkpt><trkpt lat="44.2976449" lon="8.3015915"><ele>447.6666666666667</ele><time>2026-03-30T14:48:10.803Z</time></trkpt><trkpt lat="44.2976631" lon="8.301475"><ele>447.5</ele><time>2026-03-30T14:48:11.802Z</time></trkpt><trkpt lat="44.297686" lon="8.3013729"><ele>447.33333333333337</ele><time>2026-03-30T14:48:12.803Z</time></trkpt><trkpt lat="44.2977093" lon="8.3012696"><ele>447.1666666666667</ele><time>2026-03-30T14:48:13.802Z</time></trkpt><trkpt lat="44.2977307" lon="8.301168"><ele>447.0</ele><time>2026-03-30T14:48:14.803Z</time></trkpt><trkpt lat="44.2977506" lon="8.3010715"><ele>447.0</ele><time>2026-03-30T14:48:15.802Z</time></trkpt><trkpt lat="44.2977708" lon="8.3009771"><ele>447.0</ele><time>2026-03-30T14:48:16.803Z</time></trkpt><trkpt lat="44.2977887" lon="8.3008764"><ele>447.0</ele><time>2026-03-30T14:48:17.803Z</time></trkpt><trkpt lat="44.2978125" lon="8.3007784"><ele>447.0</ele><time>2026-03-30T14:48:18.802Z</time></trkpt><trkpt lat="44.2978285" lon="8.3006836"><ele>447.0</ele><time>2026-03-30T14:48:19.803Z</time></trkpt><trkpt lat="44.2978554" lon="8.3005322"><ele>447.0</ele><time>2026-03-30T14:48:21.801Z</time></trkpt><trkpt lat="44.2978553" lon="8.3004438"><ele>448.0</ele><time>2026-03-30T14:48:22.802Z</time></trkpt><trkpt lat="44.2978402" lon="8.3003448"><ele>449.0</ele><time>2026-03-30T14:48:23.802Z</time></trkpt><trkpt lat="44.2977965" lon="8.3002195"><ele>450.0</ele><time>2026-03-30T14:48:25.803Z</time></trkpt><trkpt lat="44.2977286" lon="8.300135"><ele>451.0</ele><time>2026-03-30T14:48:27.802Z</time></trkpt><trkpt lat="44.2976638" lon="8.3000672"><ele>452.0</ele><time>2026-03-30T14:48:29.802Z</time></trkpt><trkpt lat="44.2976116" lon="8.3000005"><ele>453.0</ele><time>2026-03-30T14:48:31.801Z</time></trkpt><trkpt lat="44.2975427" lon="8.2999043"><ele>453.0</ele><time>2026-03-30T14:48:34.802Z</time></trkpt><trkpt lat="44.2974724" lon="8.2998181"><ele>453.0</ele><time>2026-03-30T14:48:37.803Z</time></trkpt><trkpt lat="44.2974205" lon="8.299713"><ele>453.0</ele><time>2026-03-30T14:48:40.801Z</time></trkpt><trkpt lat="44.2973632" lon="8.2996324"><ele>453.0</ele><time>2026-03-30T14:48:43.804Z</time></trkpt><trkpt lat="44.2972917" lon="8.2995906"><ele>453.0</ele><time>2026-03-30T14:48:47.802Z</time></trkpt><trkpt lat="44.2972316" lon="8.299516"><ele>453.0</ele><time>2026-03-30T14:48:52.803Z</time></trkpt><trkpt lat="44.2971645" lon="8.2994241"><ele>453.8333333333333</ele><time>2026-03-30T14:48:55.803Z</time></trkpt><trkpt lat="44.2970987" lon="8.2993853"><ele>454.66666666666663</ele><time>2026-03-30T14:48:57.802Z</time></trkpt><trkpt lat="44.2970412" lon="8.2993334"><ele>455.5</ele><time>2026-03-30T14:48:59.803Z</time></trkpt><trkpt lat="44.296971" lon="8.2992586"><ele>456.3333333333333</ele><time>2026-03-30T14:49:02.804Z</time></trkpt><trkpt lat="44.2968965" lon="8.299204"><ele>457.16666666666663</ele><time>2026-03-30T14:49:05.802Z</time></trkpt><trkpt lat="44.2968339" lon="8.2991428"><ele>458.0</ele><time>2026-03-30T14:49:07.803Z</time></trkpt><trkpt lat="44.2967738" lon="8.2990845"><ele>457.99999999999994</ele><time>2026-03-30T14:49:09.802Z</time></trkpt><trkpt lat="44.2967218" lon="8.2990331"><ele>458.0</ele><time>2026-03-30T14:49:11.801Z</time></trkpt><trkpt lat="44.2966667" lon="8.2989658"><ele>458.0</ele><time>2026-03-30T14:49:13.804Z</time></trkpt><trkpt lat="44.2966086" lon="8.2988874"><ele>458.0</ele><time>2026-03-30T14:49:15.803Z</time></trkpt><trkpt lat="44.296555" lon="8.298802"><ele>457.99999999999994</ele><time>2026-03-30T14:49:17.804Z</time></trkpt><trkpt lat="44.2964977" lon="8.2987159"><ele>458.0</ele><time>2026-03-30T14:49:19.803Z</time></trkpt><trkpt lat="44.2964331" lon="8.2986501"><ele>459.4</ele><time>2026-03-30T14:49:21.802Z</time></trkpt><trkpt lat="44.2963685" lon="8.2986034"><ele>460.79999999999995</ele><time>2026-03-30T14:49:23.802Z</time></trkpt><trkpt lat="44.296299" lon="8.298546"><ele>462.2</ele><time>2026-03-30T14:49:25.803Z</time></trkpt><trkpt lat="44.2962185" lon="8.2984935"><ele>463.6</ele><time>2026-03-30T14:49:27.803Z</time></trkpt><trkpt lat="44.2961168" lon="8.2984461"><ele>465.0</ele><time>2026-03-30T14:49:29.803Z</time></trkpt><trkpt lat="44.2960158" lon="8.2983903"><ele>465.0</ele><time>2026-03-30T14:49:31.803Z</time></trkpt><trkpt lat="44.2959206" lon="8.2983316"><ele>465.0</ele><time>2026-03-30T14:49:33.803Z</time></trkpt><trkpt lat="44.2958239" lon="8.2982994"><ele>465.0</ele><time>2026-03-30T14:49:35.803Z</time></trkpt><trkpt lat="44.2957151" lon="8.2982555"><ele>465.0</ele><time>2026-03-30T14:49:37.803Z</time></trkpt><trkpt lat="44.2956234" lon="8.2982621"><ele>465.0</ele><time>2026-03-30T14:49:39.804Z</time></trkpt><trkpt lat="44.2955223" lon="8.2982092"><ele>463.2</ele><time>2026-03-30T14:49:42.802Z</time></trkpt><trkpt lat="44.2954288" lon="8.2981571"><ele>461.4</ele><time>2026-03-30T14:49:44.802Z</time></trkpt><trkpt lat="44.2953488" lon="8.2980791"><ele>459.6</ele><time>2026-03-30T14:49:46.802Z</time></trkpt><trkpt lat="44.2952643" lon="8.2980174"><ele>457.8</ele><time>2026-03-30T14:49:48.803Z</time></trkpt><trkpt lat="44.295181" lon="8.2979681"><ele>456.0</ele><time>2026-03-30T14:49:50.802Z</time></trkpt><trkpt lat="44.2951043" lon="8.2979177"><ele>456.4</ele><time>2026-03-30T14:49:52.803Z</time></trkpt><trkpt lat="44.2950181" lon="8.2978777"><ele>456.8</ele><time>2026-03-30T14:49:54.804Z</time></trkpt><trkpt lat="44.2949366" lon="8.2978393"><ele>457.19999999999993</ele><time>2026-03-30T14:49:56.802Z</time></trkpt><trkpt lat="44.2948476" lon="8.297812"><ele>457.59999999999997</ele><time>2026-03-30T14:49:58.802Z</time></trkpt><trkpt lat="44.2947505" lon="8.297786"><ele>458.0</ele><time>2026-03-30T14:50:00.801Z</time></trkpt><trkpt lat="44.294661" lon="8.2977389"><ele>458.0</ele><time>2026-03-30T14:50:02.802Z</time></trkpt><trkpt lat="44.2945782" lon="8.2977046"><ele>457.99999999999994</ele><time>2026-03-30T14:50:04.802Z</time></trkpt><trkpt lat="44.2944864" lon="8.2976449"><ele>457.99999999999994</ele><time>2026-03-30T14:50:06.803Z</time></trkpt><trkpt lat="44.2944033" lon="8.2975512"><ele>458.0</ele><time>2026-03-30T14:50:08.803Z</time></trkpt><trkpt lat="44.2943228" lon="8.2974315"><ele>458.0</ele><time>2026-03-30T14:50:10.802Z</time></trkpt><trkpt lat="44.2942279" lon="8.2973263"><ele>457.25</ele><time>2026-03-30T14:50:12.804Z</time></trkpt><trkpt lat="44.2941243" lon="8.2972311"><ele>456.5</ele><time>2026-03-30T14:50:14.804Z</time></trkpt><trkpt lat="44.2940272" lon="8.2971292"><ele>455.75</ele><time>2026-03-30T14:50:16.803Z</time></trkpt><trkpt lat="44.2939337" lon="8.297049"><ele>455.0</ele><time>2026-03-30T14:50:18.802Z</time></trkpt><trkpt lat="44.2938398" lon="8.2969751"><ele>454.99999999999994</ele><time>2026-03-30T14:50:20.802Z</time></trkpt><trkpt lat="44.2937531" lon="8.2969194"><ele>455.0</ele><time>2026-03-30T14:50:22.802Z</time></trkpt><trkpt lat="44.2936698" lon="8.2968568"><ele>455.0</ele><time>2026-03-30T14:50:24.802Z</time></trkpt><trkpt lat="44.2935982" lon="8.2968079"><ele>455.0</ele><time>2026-03-30T14:50:26.804Z</time></trkpt><trkpt lat="44.2935196" lon="8.2967662"><ele>454.99999999999994</ele><time>2026-03-30T14:50:28.803Z</time></trkpt><trkpt lat="44.2934416" lon="8.2967082"><ele>455.0</ele><time>2026-03-30T14:50:30.803Z</time></trkpt><trkpt lat="44.293359" lon="8.2966438"><ele>455.0</ele><time>2026-03-30T14:50:32.802Z</time></trkpt><trkpt lat="44.2932756" lon="8.2965853"><ele>455.0</ele><time>2026-03-30T14:50:34.803Z</time></trkpt><trkpt lat="44.2931968" lon="8.296528"><ele>455.0</ele><time>2026-03-30T14:50:36.803Z</time></trkpt><trkpt lat="44.2931166" lon="8.2964734"><ele>455.0</ele><time>2026-03-30T14:50:38.803Z</time></trkpt><trkpt lat="44.2930432" lon="8.2963959"><ele>455.0</ele><time>2026-03-30T14:50:40.802Z</time></trkpt><trkpt lat="44.2929611" lon="8.2963434"><ele>454.66666666666663</ele><time>2026-03-30T14:50:42.803Z</time></trkpt><trkpt lat="44.2928769" lon="8.2962848"><ele>454.3333333333333</ele><time>2026-03-30T14:50:44.804Z</time></trkpt><trkpt lat="44.2927915" lon="8.2962347"><ele>454.0</ele><time>2026-03-30T14:50:46.803Z</time></trkpt><trkpt lat="44.2927134" lon="8.2961852"><ele>453.66666666666663</ele><time>2026-03-30T14:50:48.801Z</time></trkpt><trkpt lat="44.2926375" lon="8.296141"><ele>453.3333333333333</ele><time>2026-03-30T14:50:50.801Z</time></trkpt><trkpt lat="44.2925607" lon="8.2960923"><ele>453.0</ele><time>2026-03-30T14:50:52.803Z</time></trkpt><trkpt lat="44.2924901" lon="8.2960352"><ele>453.0</ele><time>2026-03-30T14:50:54.804Z</time></trkpt><trkpt lat="44.2924108" lon="8.2959812"><ele>453.0</ele><time>2026-03-30T14:50:56.802Z</time></trkpt><trkpt lat="44.2923317" lon="8.2959273"><ele>453.0</ele><time>2026-03-30T14:50:58.802Z</time></trkpt><trkpt lat="44.2922556" lon="8.2958576"><ele>453.0</ele><time>2026-03-30T14:51:00.802Z</time></trkpt><trkpt lat="44.2922066" lon="8.2957766"><ele>453.0</ele><time>2026-03-30T14:51:02.803Z</time></trkpt><trkpt lat="44.2921559" lon="8.2957108"><ele>453.0</ele><time>2026-03-30T14:51:04.803Z</time></trkpt><trkpt lat="44.2921007" lon="8.2956475"><ele>453.3333333333333</ele><time>2026-03-30T14:51:06.803Z</time></trkpt><trkpt lat="44.2920436" lon="8.295575"><ele>453.66666666666663</ele><time>2026-03-30T14:51:08.802Z</time></trkpt><trkpt lat="44.291983" lon="8.2954981"><ele>454.0</ele><time>2026-03-30T14:51:10.803Z</time></trkpt><trkpt lat="44.2919152" lon="8.2954243"><ele>454.3333333333333</ele><time>2026-03-30T14:51:12.803Z</time></trkpt><trkpt lat="44.2918543" lon="8.2953408"><ele>454.66666666666663</ele><time>2026-03-30T14:51:14.803Z</time></trkpt><trkpt lat="44.291805" lon="8.2952515"><ele>455.0</ele><time>2026-03-30T14:51:16.803Z</time></trkpt><trkpt lat="44.2917596" lon="8.2951581"><ele>454.99999999999994</ele><time>2026-03-30T14:51:18.803Z</time></trkpt><trkpt lat="44.2917243" lon="8.295052"><ele>455.0</ele><time>2026-03-30T14:51:20.803Z</time></trkpt><trkpt lat="44.2916934" lon="8.2949486"><ele>455.0</ele><time>2026-03-30T14:51:22.802Z</time></trkpt><trkpt lat="44.2916736" lon="8.2948411"><ele>455.0</ele><time>2026-03-30T14:51:24.804Z</time></trkpt><trkpt lat="44.2916623" lon="8.2947295"><ele>454.99999999999994</ele><time>2026-03-30T14:51:26.802Z</time></trkpt><trkpt lat="44.2916541" lon="8.29462"><ele>455.0</ele><time>2026-03-30T14:51:28.802Z</time></trkpt><trkpt lat="44.2916416" lon="8.2945201"><ele>455.16666666666663</ele><time>2026-03-30T14:51:30.803Z</time></trkpt><trkpt lat="44.2916376" lon="8.2944288"><ele>455.3333333333333</ele><time>2026-03-30T14:51:32.802Z</time></trkpt><trkpt lat="44.291626" lon="8.2943187"><ele>455.5</ele><time>2026-03-30T14:51:35.803Z</time></trkpt><trkpt lat="44.2916298" lon="8.2941955"><ele>455.66666666666663</ele><time>2026-03-30T14:51:38.801Z</time></trkpt><trkpt lat="44.291647" lon="8.2940885"><ele>455.8333333333333</ele><time>2026-03-30T14:51:40.802Z</time></trkpt><trkpt lat="44.2916575" lon="8.2939719"><ele>456.0</ele><time>2026-03-30T14:51:42.802Z</time></trkpt><trkpt lat="44.2916644" lon="8.2938491"><ele>456.1666666666667</ele><time>2026-03-30T14:51:44.802Z</time></trkpt><trkpt lat="44.2916618" lon="8.2937274"><ele>456.33333333333337</ele><time>2026-03-30T14:51:46.803Z</time></trkpt><trkpt lat="44.2916747" lon="8.2935944"><ele>456.5</ele><time>2026-03-30T14:51:48.803Z</time></trkpt><trkpt lat="44.2916841" lon="8.2934716"><ele>456.6666666666667</ele><time>2026-03-30T14:51:50.802Z</time></trkpt><trkpt lat="44.2917063" lon="8.2933703"><ele>456.83333333333337</ele><time>2026-03-30T14:51:52.802Z</time></trkpt><trkpt lat="44.2917296" lon="8.2932629"><ele>457.0</ele><time>2026-03-30T14:51:54.802Z</time></trkpt><trkpt lat="44.2917494" lon="8.2931505"><ele>457.1666666666667</ele><time>2026-03-30T14:51:56.802Z</time></trkpt><trkpt lat="44.2917736" lon="8.2930408"><ele>457.33333333333337</ele><time>2026-03-30T14:51:58.802Z</time></trkpt><trkpt lat="44.2918081" lon="8.2929307"><ele>457.5</ele><time>2026-03-30T14:52:01.805Z</time></trkpt><trkpt lat="44.2918408" lon="8.292847"><ele>457.66666666666663</ele><time>2026-03-30T14:52:04.803Z</time></trkpt><trkpt lat="44.2918801" lon="8.2927688"><ele>457.8333333333333</ele><time>2026-03-30T14:52:07.803Z</time></trkpt><trkpt lat="44.2919071" lon="8.2926842"><ele>458.0</ele><time>2026-03-30T14:52:12.804Z</time></trkpt><trkpt lat="44.2919315" lon="8.2925594"><ele>457.99999999999994</ele><time>2026-03-30T14:55:12.802Z</time></trkpt><trkpt lat="44.2919735" lon="8.2924557"><ele>458.0</ele><time>2026-03-30T14:55:15.803Z</time></trkpt><trkpt lat="44.2919996" lon="8.2923733"><ele>458.0</ele><time>2026-03-30T14:55:17.802Z</time></trkpt><trkpt lat="44.292044" lon="8.2922661"><ele>458.0</ele><time>2026-03-30T14:55:20.803Z</time></trkpt><trkpt lat="44.2920773" lon="8.2921912"><ele>457.99999999999994</ele><time>2026-03-30T14:55:22.803Z</time></trkpt><trkpt lat="44.2921272" lon="8.2920822"><ele>458.0</ele><time>2026-03-30T14:55:25.802Z</time></trkpt><trkpt lat="44.292166" lon="8.2920036"><ele>458.3333333333333</ele><time>2026-03-30T14:55:27.801Z</time></trkpt><trkpt lat="44.2921971" lon="8.2919243"><ele>458.66666666666663</ele><time>2026-03-30T14:55:29.802Z</time></trkpt><trkpt lat="44.2922433" lon="8.2918128"><ele>459.0</ele><time>2026-03-30T14:55:32.802Z</time></trkpt><trkpt lat="44.2922848" lon="8.291716"><ele>459.33333333333337</ele><time>2026-03-30T14:55:35.802Z</time></trkpt><trkpt lat="44.2923328" lon="8.2916038"><ele>459.6666666666667</ele><time>2026-03-30T14:55:38.803Z</time></trkpt><trkpt lat="44.2923672" lon="8.2915253"><ele>460.0</ele><time>2026-03-30T14:55:40.803Z</time></trkpt><trkpt lat="44.2924041" lon="8.2914488"><ele>460.6666666666667</ele><time>2026-03-30T14:55:42.802Z</time></trkpt><trkpt lat="44.2924381" lon="8.2913672"><ele>461.33333333333337</ele><time>2026-03-30T14:55:44.801Z</time></trkpt><trkpt lat="44.2924665" lon="8.2912868"><ele>462.0</ele><time>2026-03-30T14:55:46.802Z</time></trkpt><trkpt lat="44.2924943" lon="8.2911679"><ele>462.66666666666663</ele><time>2026-03-30T14:55:49.802Z</time></trkpt><trkpt lat="44.2925154" lon="8.2910462"><ele>463.3333333333333</ele><time>2026-03-30T14:55:52.803Z</time></trkpt><trkpt lat="44.2925235" lon="8.2909452"><ele>464.0</ele><time>2026-03-30T14:55:54.801Z</time></trkpt><trkpt lat="44.2925318" lon="8.29084"><ele>464.00000000000006</ele><time>2026-03-30T14:55:56.803Z</time></trkpt><trkpt lat="44.2925392" lon="8.2907368"><ele>464.0</ele><time>2026-03-30T14:55:58.801Z</time></trkpt><trkpt lat="44.2925463" lon="8.2906379"><ele>464.00000000000006</ele><time>2026-03-30T14:56:00.802Z</time></trkpt><trkpt lat="44.2925511" lon="8.2905377"><ele>464.00000000000006</ele><time>2026-03-30T14:56:02.803Z</time></trkpt><trkpt lat="44.2925559" lon="8.2904367"><ele>464.0</ele><time>2026-03-30T14:56:04.803Z</time></trkpt><trkpt lat="44.2925623" lon="8.2903324"><ele>464.00000000000006</ele><time>2026-03-30T14:56:06.802Z</time></trkpt><trkpt lat="44.2925666" lon="8.2902229"><ele>464.00000000000006</ele><time>2026-03-30T14:56:08.803Z</time></trkpt><trkpt lat="44.2925685" lon="8.2901209"><ele>464.16666666666663</ele><time>2026-03-30T14:56:10.802Z</time></trkpt><trkpt lat="44.2925658" lon="8.2900083"><ele>464.3333333333333</ele><time>2026-03-30T14:56:12.802Z</time></trkpt><trkpt lat="44.2925652" lon="8.2898955"><ele>464.5</ele><time>2026-03-30T14:56:14.803Z</time></trkpt><trkpt lat="44.2925728" lon="8.2897862"><ele>464.66666666666663</ele><time>2026-03-30T14:56:16.801Z</time></trkpt><trkpt lat="44.2925803" lon="8.2896714"><ele>464.8333333333333</ele><time>2026-03-30T14:56:18.802Z</time></trkpt><trkpt lat="44.2925933" lon="8.2895451"><ele>465.0</ele><time>2026-03-30T14:56:20.802Z</time></trkpt><trkpt lat="44.292607" lon="8.2894218"><ele>465.0</ele><time>2026-03-30T14:56:22.801Z</time></trkpt><trkpt lat="44.2926206" lon="8.2893115"><ele>465.0</ele><time>2026-03-30T14:56:24.803Z</time></trkpt><trkpt lat="44.2926278" lon="8.2892118"><ele>465.0</ele><time>2026-03-30T14:56:26.802Z</time></trkpt><trkpt lat="44.2926358" lon="8.2891114"><ele>465.0</ele><time>2026-03-30T14:56:28.803Z</time></trkpt><trkpt lat="44.2926303" lon="8.2890085"><ele>465.0</ele><time>2026-03-30T14:56:30.803Z</time></trkpt><trkpt lat="44.2926409" lon="8.2888956"><ele>465.0</ele><time>2026-03-30T14:56:32.803Z</time></trkpt><trkpt lat="44.2926581" lon="8.2887963"><ele>465.0</ele><time>2026-03-30T14:56:34.802Z</time></trkpt><trkpt lat="44.2926771" lon="8.2886951"><ele>465.0</ele><time>2026-03-30T14:56:36.801Z</time></trkpt><trkpt lat="44.2927029" lon="8.2885912"><ele>465.0</ele><time>2026-03-30T14:56:38.802Z</time></trkpt><trkpt lat="44.2927331" lon="8.2884847"><ele>465.0</ele><time>2026-03-30T14:56:40.802Z</time></trkpt><trkpt lat="44.2927638" lon="8.2883878"><ele>465.0</ele><time>2026-03-30T14:56:42.802Z</time></trkpt><trkpt lat="44.2927959" lon="8.2882875"><ele>465.0</ele><time>2026-03-30T14:56:44.802Z</time></trkpt><trkpt lat="44.2928431" lon="8.2881875"><ele>464.8333333333333</ele><time>2026-03-30T14:56:46.801Z</time></trkpt><trkpt lat="44.2928884" lon="8.2880789"><ele>464.66666666666663</ele><time>2026-03-30T14:56:48.802Z</time></trkpt><trkpt lat="44.2929324" lon="8.287979"><ele>464.5</ele><time>2026-03-30T14:56:50.802Z</time></trkpt><trkpt lat="44.2929712" lon="8.2878734"><ele>464.3333333333333</ele><time>2026-03-30T14:56:52.803Z</time></trkpt><trkpt lat="44.2930129" lon="8.2877788"><ele>464.16666666666663</ele><time>2026-03-30T14:56:54.802Z</time></trkpt><trkpt lat="44.2930508" lon="8.2876824"><ele>464.0</ele><time>2026-03-30T14:56:56.803Z</time></trkpt><trkpt lat="44.2930894" lon="8.2875927"><ele>465.66666666666663</ele><time>2026-03-30T14:56:58.802Z</time></trkpt><trkpt lat="44.2931351" lon="8.2875162"><ele>467.3333333333333</ele><time>2026-03-30T14:57:00.803Z</time></trkpt><trkpt lat="44.2931762" lon="8.2874312"><ele>469.0</ele><time>2026-03-30T14:57:02.802Z</time></trkpt><trkpt lat="44.2932121" lon="8.2873261"><ele>470.66666666666663</ele><time>2026-03-30T14:57:04.802Z</time></trkpt><trkpt lat="44.293247" lon="8.2872219"><ele>472.3333333333333</ele><time>2026-03-30T14:57:06.801Z</time></trkpt><trkpt lat="44.293278" lon="8.2871164"><ele>474.0</ele><time>2026-03-30T14:57:08.802Z</time></trkpt><trkpt lat="44.2933072" lon="8.2870112"><ele>474.5</ele><time>2026-03-30T14:57:10.802Z</time></trkpt><trkpt lat="44.2933324" lon="8.2869031"><ele>475.0</ele><time>2026-03-30T14:57:12.803Z</time></trkpt><trkpt lat="44.2933513" lon="8.286795"><ele>475.5</ele><time>2026-03-30T14:57:14.802Z</time></trkpt><trkpt lat="44.2933674" lon="8.2866928"><ele>476.0</ele><time>2026-03-30T14:57:16.802Z</time></trkpt><trkpt lat="44.2933709" lon="8.2865927"><ele>476.5</ele><time>2026-03-30T14:57:18.802Z</time></trkpt><trkpt lat="44.2933725" lon="8.286488"><ele>477.0</ele><time>2026-03-30T14:57:20.802Z</time></trkpt><trkpt lat="44.293371" lon="8.2863858"><ele>478.0</ele><time>2026-03-30T14:57:22.803Z</time></trkpt><trkpt lat="44.2933656" lon="8.2862832"><ele>479.0</ele><time>2026-03-30T14:57:24.803Z</time></trkpt><trkpt lat="44.2933576" lon="8.2861845"><ele>480.0</ele><time>2026-03-30T14:57:26.803Z</time></trkpt><trkpt lat="44.2933471" lon="8.286077"><ele>481.0</ele><time>2026-03-30T14:57:28.802Z</time></trkpt><trkpt lat="44.2933353" lon="8.285968"><ele>482.0</ele><time>2026-03-30T14:57:30.802Z</time></trkpt><trkpt lat="44.2933122" lon="8.285857"><ele>483.0</ele><time>2026-03-30T14:57:32.803Z</time></trkpt><trkpt lat="44.2932858" lon="8.2857404"><ele>483.0</ele><time>2026-03-30T14:57:34.802Z</time></trkpt><trkpt lat="44.2932592" lon="8.2856298"><ele>483.0</ele><time>2026-03-30T14:57:36.801Z</time></trkpt><trkpt lat="44.2932038" lon="8.2855315"><ele>483.0</ele><time>2026-03-30T14:57:38.804Z</time></trkpt><trkpt lat="44.2931488" lon="8.2854433"><ele>483.0</ele><time>2026-03-30T14:57:40.802Z</time></trkpt><trkpt lat="44.2930875" lon="8.2853536"><ele>483.0</ele><time>2026-03-30T14:57:42.802Z</time></trkpt><trkpt lat="44.2930343" lon="8.2852487"><ele>483.0</ele><time>2026-03-30T14:57:44.801Z</time></trkpt><trkpt lat="44.2929766" lon="8.2851616"><ele>481.8333333333333</ele><time>2026-03-30T14:57:46.802Z</time></trkpt><trkpt lat="44.2929248" lon="8.2850766"><ele>480.66666666666663</ele><time>2026-03-30T14:57:48.801Z</time></trkpt><trkpt lat="44.2928781" lon="8.2849877"><ele>479.5</ele><time>2026-03-30T14:57:50.802Z</time></trkpt><trkpt lat="44.2928189" lon="8.2848855"><ele>478.3333333333333</ele><time>2026-03-30T14:57:52.802Z</time></trkpt><trkpt lat="44.2927607" lon="8.2847907"><ele>477.16666666666663</ele><time>2026-03-30T14:57:54.803Z</time></trkpt><trkpt lat="44.2927105" lon="8.2846988"><ele>476.0</ele><time>2026-03-30T14:57:56.801Z</time></trkpt><trkpt lat="44.2926507" lon="8.2846097"><ele>476.0</ele><time>2026-03-30T14:57:58.802Z</time></trkpt><trkpt lat="44.2925889" lon="8.2845061"><ele>476.0</ele><time>2026-03-30T14:58:00.802Z</time></trkpt><trkpt lat="44.2925313" lon="8.2844056"><ele>476.0</ele><time>2026-03-30T14:58:02.803Z</time></trkpt><trkpt lat="44.2924731" lon="8.2843144"><ele>476.0</ele><time>2026-03-30T14:58:04.803Z</time></trkpt><trkpt lat="44.2924093" lon="8.2842255"><ele>476.0</ele><time>2026-03-30T14:58:06.801Z</time></trkpt><trkpt lat="44.2923523" lon="8.2841383"><ele>475.99999999999994</ele><time>2026-03-30T14:58:08.802Z</time></trkpt><trkpt lat="44.2922874" lon="8.2840425"><ele>476.0</ele><time>2026-03-30T14:58:10.802Z</time></trkpt><trkpt lat="44.2922217" lon="8.2839528"><ele>476.0</ele><time>2026-03-30T14:58:12.802Z</time></trkpt><trkpt lat="44.2921608" lon="8.2838664"><ele>476.0</ele><time>2026-03-30T14:58:14.801Z</time></trkpt><trkpt lat="44.2920989" lon="8.2837946"><ele>475.99999999999994</ele><time>2026-03-30T14:58:16.802Z</time></trkpt><trkpt lat="44.2920329" lon="8.2837091"><ele>476.0</ele><time>2026-03-30T14:58:18.803Z</time></trkpt><trkpt lat="44.2919629" lon="8.2836345"><ele>476.49999999999994</ele><time>2026-03-30T14:58:20.801Z</time></trkpt><trkpt lat="44.2918907" lon="8.2835692"><ele>477.0</ele><time>2026-03-30T14:58:22.802Z</time></trkpt><trkpt lat="44.2918215" lon="8.283501"><ele>477.5</ele><time>2026-03-30T14:58:24.803Z</time></trkpt><trkpt lat="44.2917531" lon="8.2834338"><ele>478.0</ele><time>2026-03-30T14:58:26.803Z</time></trkpt><trkpt lat="44.2916854" lon="8.2833675"><ele>478.49999999999994</ele><time>2026-03-30T14:58:28.802Z</time></trkpt><trkpt lat="44.2916199" lon="8.2833017"><ele>479.0</ele><time>2026-03-30T14:58:30.802Z</time></trkpt><trkpt lat="44.2915456" lon="8.2832387"><ele>478.99999999999994</ele><time>2026-03-30T14:58:32.802Z</time></trkpt><trkpt lat="44.291478" lon="8.2831852"><ele>479.0</ele><time>2026-03-30T14:58:34.802Z</time></trkpt><trkpt lat="44.2914012" lon="8.2831281"><ele>479.0</ele><time>2026-03-30T14:58:36.801Z</time></trkpt><trkpt lat="44.2913254" lon="8.283073"><ele>479.0</ele><time>2026-03-30T14:58:38.802Z</time></trkpt><trkpt lat="44.2912581" lon="8.2830147"><ele>478.99999999999994</ele><time>2026-03-30T14:58:40.802Z</time></trkpt><trkpt lat="44.2911902" lon="8.2829599"><ele>479.0</ele><time>2026-03-30T14:58:42.802Z</time></trkpt><trkpt lat="44.2911238" lon="8.2829005"><ele>479.66666666666663</ele><time>2026-03-30T14:58:44.802Z</time></trkpt><trkpt lat="44.2910563" lon="8.2828358"><ele>480.3333333333333</ele><time>2026-03-30T14:58:46.803Z</time></trkpt><trkpt lat="44.2909916" lon="8.2827724"><ele>481.0</ele><time>2026-03-30T14:58:48.801Z</time></trkpt><trkpt lat="44.2909294" lon="8.282708"><ele>481.66666666666663</ele><time>2026-03-30T14:58:50.802Z</time></trkpt><trkpt lat="44.290879" lon="8.2826499"><ele>482.3333333333333</ele><time>2026-03-30T14:58:52.801Z</time></trkpt><trkpt lat="44.2908159" lon="8.282592"><ele>483.0</ele><time>2026-03-30T14:58:54.802Z</time></trkpt><trkpt lat="44.2907541" lon="8.2825302"><ele>483.0</ele><time>2026-03-30T14:58:56.802Z</time></trkpt><trkpt lat="44.2906895" lon="8.2824632"><ele>483.0</ele><time>2026-03-30T14:58:58.802Z</time></trkpt><trkpt lat="44.2906188" lon="8.2824006"><ele>483.0</ele><time>2026-03-30T14:59:00.802Z</time></trkpt><trkpt lat="44.2905486" lon="8.282336"><ele>483.0</ele><time>2026-03-30T14:59:02.802Z</time></trkpt><trkpt lat="44.290486" lon="8.2822718"><ele>483.0</ele><time>2026-03-30T14:59:04.801Z</time></trkpt><trkpt lat="44.2904281" lon="8.2822076"><ele>483.0</ele><time>2026-03-30T14:59:06.802Z</time></trkpt><trkpt lat="44.2903662" lon="8.2821509"><ele>483.0</ele><time>2026-03-30T14:59:08.802Z</time></trkpt><trkpt lat="44.2903079" lon="8.2820907"><ele>483.0</ele><time>2026-03-30T14:59:10.803Z</time></trkpt><trkpt lat="44.2902457" lon="8.2820294"><ele>483.0</ele><time>2026-03-30T14:59:12.801Z</time></trkpt><trkpt lat="44.2901767" lon="8.2819825"><ele>483.0</ele><time>2026-03-30T14:59:14.802Z</time></trkpt><trkpt lat="44.2901127" lon="8.2819227"><ele>483.0</ele><time>2026-03-30T14:59:16.802Z</time></trkpt><trkpt lat="44.2900477" lon="8.2818703"><ele>483.0</ele><time>2026-03-30T14:59:18.802Z</time></trkpt><trkpt lat="44.2899838" lon="8.2818205"><ele>483.0</ele><time>2026-03-30T14:59:20.801Z</time></trkpt><trkpt lat="44.2899164" lon="8.2817602"><ele>483.0</ele><time>2026-03-30T14:59:22.802Z</time></trkpt><trkpt lat="44.2898551" lon="8.2816821"><ele>483.0</ele><time>2026-03-30T14:59:24.802Z</time></trkpt><trkpt lat="44.2897845" lon="8.281608"><ele>483.0</ele><time>2026-03-30T14:59:26.802Z</time></trkpt><trkpt lat="44.2897247" lon="8.2815347"><ele>483.0</ele><time>2026-03-30T14:59:28.802Z</time></trkpt><trkpt lat="44.2896639" lon="8.2814557"><ele>483.0</ele><time>2026-03-30T14:59:30.802Z</time></trkpt><trkpt lat="44.289602" lon="8.2813706"><ele>484.0</ele><time>2026-03-30T14:59:32.802Z</time></trkpt><trkpt lat="44.2895327" lon="8.2813043"><ele>485.0</ele><time>2026-03-30T14:59:34.802Z</time></trkpt><trkpt lat="44.2894675" lon="8.2812414"><ele>486.0</ele><time>2026-03-30T14:59:36.803Z</time></trkpt><trkpt lat="44.2893975" lon="8.2811837"><ele>487.0</ele><time>2026-03-30T14:59:38.8Z</time></trkpt><trkpt lat="44.2893287" lon="8.2811362"><ele>488.0</ele><time>2026-03-30T14:59:40.801Z</time></trkpt><trkpt lat="44.2892475" lon="8.2810857"><ele>489.0</ele><time>2026-03-30T14:59:42.802Z</time></trkpt><trkpt lat="44.2891747" lon="8.2810278"><ele>489.0</ele><time>2026-03-30T14:59:44.802Z</time></trkpt><trkpt lat="44.2890933" lon="8.2809913"><ele>489.0</ele><time>2026-03-30T14:59:46.801Z</time></trkpt><trkpt lat="44.2890107" lon="8.2809569"><ele>489.0</ele><time>2026-03-30T14:59:48.802Z</time></trkpt><trkpt lat="44.2889249" lon="8.2809253"><ele>489.0</ele><time>2026-03-30T14:59:50.802Z</time></trkpt><trkpt lat="44.2888413" lon="8.2808897"><ele>489.0</ele><time>2026-03-30T14:59:52.801Z</time></trkpt><trkpt lat="44.2887565" lon="8.2808504"><ele>489.0</ele><time>2026-03-30T14:59:54.803Z</time></trkpt><trkpt lat="44.2886705" lon="8.280798"><ele>490.0</ele><time>2026-03-30T14:59:56.802Z</time></trkpt><trkpt lat="44.288593" lon="8.2807532"><ele>491.0</ele><time>2026-03-30T14:59:58.802Z</time></trkpt><trkpt lat="44.2885008" lon="8.280701"><ele>492.0</ele><time>2026-03-30T15:00:00.802Z</time></trkpt><trkpt lat="44.2884061" lon="8.2806462"><ele>493.0</ele><time>2026-03-30T15:00:02.802Z</time></trkpt><trkpt lat="44.2883159" lon="8.2805999"><ele>494.0</ele><time>2026-03-30T15:00:04.802Z</time></trkpt><trkpt lat="44.2882328" lon="8.2805547"><ele>494.0</ele><time>2026-03-30T15:00:06.801Z</time></trkpt><trkpt lat="44.2881494" lon="8.2804893"><ele>494.0</ele><time>2026-03-30T15:00:08.802Z</time></trkpt><trkpt lat="44.2880661" lon="8.2804428"><ele>494.0</ele><time>2026-03-30T15:00:10.803Z</time></trkpt><trkpt lat="44.2879852" lon="8.2803937"><ele>494.0</ele><time>2026-03-30T15:00:12.802Z</time></trkpt><trkpt lat="44.2879036" lon="8.2803555"><ele>494.0</ele><time>2026-03-30T15:00:14.801Z</time></trkpt><trkpt lat="44.2878189" lon="8.2803133"><ele>491.79999999999995</ele><time>2026-03-30T15:00:16.802Z</time></trkpt><trkpt lat="44.2877306" lon="8.2802592"><ele>489.59999999999997</ele><time>2026-03-30T15:00:18.8Z</time></trkpt><trkpt lat="44.2876496" lon="8.2802069"><ele>487.4</ele><time>2026-03-30T15:00:20.802Z</time></trkpt><trkpt lat="44.2875668" lon="8.2801607"><ele>485.2</ele><time>2026-03-30T15:00:22.802Z</time></trkpt><trkpt lat="44.287487" lon="8.2801172"><ele>483.0</ele><time>2026-03-30T15:00:24.801Z</time></trkpt><trkpt lat="44.2874073" lon="8.2800426"><ele>483.0</ele><time>2026-03-30T15:00:26.801Z</time></trkpt><trkpt lat="44.2873307" lon="8.2799895"><ele>483.0</ele><time>2026-03-30T15:00:28.801Z</time></trkpt><trkpt lat="44.2872512" lon="8.2799211"><ele>483.0</ele><time>2026-03-30T15:00:30.802Z</time></trkpt><trkpt lat="44.2871744" lon="8.2798545"><ele>483.0</ele><time>2026-03-30T15:00:32.801Z</time></trkpt><trkpt lat="44.2871121" lon="8.2797727"><ele>483.0</ele><time>2026-03-30T15:00:34.803Z</time></trkpt><trkpt lat="44.2870627" lon="8.2796711"><ele>483.0</ele><time>2026-03-30T15:00:36.801Z</time></trkpt><trkpt lat="44.2870283" lon="8.2795456"><ele>483.0</ele><time>2026-03-30T15:00:38.802Z</time></trkpt><trkpt lat="44.2869985" lon="8.2794568"><ele>483.0</ele><time>2026-03-30T15:00:40.802Z</time></trkpt><trkpt lat="44.2869703" lon="8.279361"><ele>483.0</ele><time>2026-03-30T15:00:42.801Z</time></trkpt><trkpt lat="44.286945" lon="8.2792582"><ele>483.0</ele><time>2026-03-30T15:00:44.802Z</time></trkpt><trkpt lat="44.2869189" lon="8.2791605"><ele>483.0</ele><time>2026-03-30T15:00:46.801Z</time></trkpt><trkpt lat="44.2868943" lon="8.2790641"><ele>483.0</ele><time>2026-03-30T15:00:48.802Z</time></trkpt><trkpt lat="44.2868677" lon="8.2789721"><ele>483.0</ele><time>2026-03-30T15:00:50.801Z</time></trkpt><trkpt lat="44.2868496" lon="8.2788848"><ele>484.1666666666667</ele><time>2026-03-30T15:00:52.801Z</time></trkpt><trkpt lat="44.2868187" lon="8.2787919"><ele>485.33333333333337</ele><time>2026-03-30T15:00:54.8Z</time></trkpt><trkpt lat="44.2867921" lon="8.2786941"><ele>486.5</ele><time>2026-03-30T15:00:56.801Z</time></trkpt><trkpt lat="44.2867642" lon="8.2785979"><ele>487.6666666666667</ele><time>2026-03-30T15:00:58.801Z</time></trkpt><trkpt lat="44.2867455" lon="8.2785043"><ele>488.83333333333337</ele><time>2026-03-30T15:01:00.802Z</time></trkpt><trkpt lat="44.2867152" lon="8.2783779"><ele>490.0</ele><time>2026-03-30T15:01:03.801Z</time></trkpt><trkpt lat="44.286688" lon="8.2782852"><ele>490.0</ele><time>2026-03-30T15:01:05.8Z</time></trkpt><trkpt lat="44.2866555" lon="8.2781905"><ele>490.0</ele><time>2026-03-30T15:01:07.802Z</time></trkpt><trkpt lat="44.2866237" lon="8.2780903"><ele>490.0</ele><time>2026-03-30T15:01:09.802Z</time></trkpt><trkpt lat="44.2865934" lon="8.2780016"><ele>490.0</ele><time>2026-03-30T15:01:11.803Z</time></trkpt><trkpt lat="44.2865648" lon="8.2779129"><ele>490.0</ele><time>2026-03-30T15:01:13.802Z</time></trkpt><trkpt lat="44.2865308" lon="8.2778248"><ele>490.0</ele><time>2026-03-30T15:01:15.8Z</time></trkpt><trkpt lat="44.2865142" lon="8.2777287"><ele>490.0</ele><time>2026-03-30T15:01:17.8Z</time></trkpt><trkpt lat="44.2864873" lon="8.277632"><ele>489.83333333333337</ele><time>2026-03-30T15:01:19.801Z</time></trkpt><trkpt lat="44.2864631" lon="8.2775303"><ele>489.6666666666667</ele><time>2026-03-30T15:01:21.801Z</time></trkpt><trkpt lat="44.2864358" lon="8.2774278"><ele>489.5</ele><time>2026-03-30T15:01:23.801Z</time></trkpt><trkpt lat="44.2864147" lon="8.2773173"><ele>489.33333333333337</ele><time>2026-03-30T15:01:25.802Z</time></trkpt><trkpt lat="44.2863931" lon="8.2772125"><ele>489.1666666666667</ele><time>2026-03-30T15:01:27.802Z</time></trkpt><trkpt lat="44.2863689" lon="8.2771115"><ele>489.0</ele><time>2026-03-30T15:01:29.801Z</time></trkpt><trkpt lat="44.2863439" lon="8.2770212"><ele>489.0</ele><time>2026-03-30T15:01:31.803Z</time></trkpt><trkpt lat="44.2863196" lon="8.2769316"><ele>489.0</ele><time>2026-03-30T15:01:33.802Z</time></trkpt><trkpt lat="44.2862944" lon="8.2768433"><ele>489.0</ele><time>2026-03-30T15:01:35.802Z</time></trkpt><trkpt lat="44.2862673" lon="8.2767624"><ele>489.0</ele><time>2026-03-30T15:01:37.802Z</time></trkpt><trkpt lat="44.2862325" lon="8.2766341"><ele>489.0</ele><time>2026-03-30T15:01:40.801Z</time></trkpt><trkpt lat="44.2862034" lon="8.2765266"><ele>489.0</ele><time>2026-03-30T15:01:42.802Z</time></trkpt><trkpt lat="44.2861732" lon="8.2764073"><ele>489.6</ele><time>2026-03-30T15:01:44.802Z</time></trkpt><trkpt lat="44.2861388" lon="8.276297"><ele>490.2</ele><time>2026-03-30T15:01:46.801Z</time></trkpt><trkpt lat="44.2861036" lon="8.2761849"><ele>490.80000000000007</ele><time>2026-03-30T15:01:48.802Z</time></trkpt><trkpt lat="44.2860601" lon="8.2760697"><ele>491.40000000000003</ele><time>2026-03-30T15:01:50.802Z</time></trkpt><trkpt lat="44.2860244" lon="8.2759387"><ele>492.0</ele><time>2026-03-30T15:01:52.801Z</time></trkpt><trkpt lat="44.2859971" lon="8.2758219"><ele>492.0</ele><time>2026-03-30T15:01:54.801Z</time></trkpt><trkpt lat="44.2859854" lon="8.2757137"><ele>492.0</ele><time>2026-03-30T15:01:56.802Z</time></trkpt><trkpt lat="44.2859804" lon="8.2756014"><ele>492.0</ele><time>2026-03-30T15:01:58.801Z</time></trkpt><trkpt lat="44.2859789" lon="8.2754941"><ele>492.0</ele><time>2026-03-30T15:02:00.802Z</time></trkpt><trkpt lat="44.2859772" lon="8.2753874"><ele>492.0</ele><time>2026-03-30T15:02:02.802Z</time></trkpt><trkpt lat="44.2859777" lon="8.275286"><ele>492.0</ele><time>2026-03-30T15:02:04.8Z</time></trkpt><trkpt lat="44.2859806" lon="8.2751858"><ele>492.6666666666667</ele><time>2026-03-30T15:02:06.801Z</time></trkpt><trkpt lat="44.285979" lon="8.2750791"><ele>493.33333333333337</ele><time>2026-03-30T15:02:08.801Z</time></trkpt><trkpt lat="44.2859767" lon="8.274971"><ele>494.0</ele><time>2026-03-30T15:02:10.802Z</time></trkpt><trkpt lat="44.2859751" lon="8.2748535"><ele>494.6666666666667</ele><time>2026-03-30T15:02:12.802Z</time></trkpt><trkpt lat="44.2859743" lon="8.2747361"><ele>495.33333333333337</ele><time>2026-03-30T15:02:14.802Z</time></trkpt><trkpt lat="44.2859733" lon="8.2746159"><ele>496.0</ele><time>2026-03-30T15:02:16.802Z</time></trkpt><trkpt lat="44.285972" lon="8.2745026"><ele>496.8571428571429</ele><time>2026-03-30T15:02:18.801Z</time></trkpt><trkpt lat="44.285973" lon="8.2743988"><ele>497.7142857142858</ele><time>2026-03-30T15:02:20.8Z</time></trkpt><trkpt lat="44.2859764" lon="8.2742961"><ele>498.57142857142856</ele><time>2026-03-30T15:02:22.804Z</time></trkpt><trkpt lat="44.28598" lon="8.2741913"><ele>499.42857142857144</ele><time>2026-03-30T15:02:24.801Z</time></trkpt><trkpt lat="44.285967" lon="8.2740953"><ele>500.2857142857143</ele><time>2026-03-30T15:02:26.802Z</time></trkpt><trkpt lat="44.2859588" lon="8.2740076"><ele>501.1428571428571</ele><time>2026-03-30T15:02:28.802Z</time></trkpt><trkpt lat="44.2859601" lon="8.2738945"><ele>501.99999999999994</ele><time>2026-03-30T15:02:31.802Z</time></trkpt><trkpt lat="44.2859206" lon="8.2737853"><ele>502.0</ele><time>2026-03-30T15:02:34.801Z</time></trkpt><trkpt lat="44.2858537" lon="8.2736954"><ele>502.00000000000006</ele><time>2026-03-30T15:02:37.802Z</time></trkpt><trkpt lat="44.2858393" lon="8.2738083"><ele>502.00000000000006</ele><time>2026-03-30T15:02:41.8Z</time></trkpt><trkpt lat="44.2859248" lon="8.273957"><ele>502.0</ele><time>2026-03-30T15:02:43.801Z</time></trkpt><trkpt lat="44.2859443" lon="8.2740931"><ele>502.0</ele><time>2026-03-30T15:02:45.802Z</time></trkpt><trkpt lat="44.2859642" lon="8.2742807"><ele>502.00000000000006</ele><time>2026-03-30T15:02:47.802Z</time></trkpt><trkpt lat="44.2859599" lon="8.2743942"><ele>502.0</ele><time>2026-03-30T15:02:48.802Z</time></trkpt><trkpt lat="44.2859644" lon="8.2744999"><ele>502.0</ele><time>2026-03-30T15:02:49.802Z</time></trkpt><trkpt lat="44.2859757" lon="8.2746541"><ele>502.0</ele><time>2026-03-30T15:02:51.801Z</time></trkpt><trkpt lat="44.2859845" lon="8.2747547"><ele>502.00000000000006</ele><time>2026-03-30T15:02:52.801Z</time></trkpt><trkpt lat="44.2859863" lon="8.2748667"><ele>502.0</ele><time>2026-03-30T15:02:53.802Z</time></trkpt><trkpt lat="44.2859727" lon="8.2749765"><ele>500.8</ele><time>2026-03-30T15:02:54.803Z</time></trkpt><trkpt lat="44.285969" lon="8.2751626"><ele>499.6</ele><time>2026-03-30T15:02:56.802Z</time></trkpt><trkpt lat="44.2859713" lon="8.2752578"><ele>498.40000000000003</ele><time>2026-03-30T15:02:57.803Z</time></trkpt><trkpt lat="44.2859744" lon="8.2753493"><ele>497.20000000000005</ele><time>2026-03-30T15:02:58.802Z</time></trkpt><trkpt lat="44.2859741" lon="8.2754887"><ele>496.0</ele><time>2026-03-30T15:03:00.802Z</time></trkpt><trkpt lat="44.2859729" lon="8.2756446"><ele>495.20000000000005</ele><time>2026-03-30T15:03:02.802Z</time></trkpt><trkpt lat="44.2859936" lon="8.2758046"><ele>494.40000000000003</ele><time>2026-03-30T15:03:04.802Z</time></trkpt><trkpt lat="44.2860102" lon="8.2759474"><ele>493.6</ele><time>2026-03-30T15:03:06.801Z</time></trkpt><trkpt lat="44.286041" lon="8.2760704"><ele>492.8</ele><time>2026-03-30T15:03:08.803Z</time></trkpt><trkpt lat="44.2860691" lon="8.2761992"><ele>492.0</ele><time>2026-03-30T15:03:10.802Z</time></trkpt><trkpt lat="44.2861062" lon="8.2763161"><ele>491.40000000000003</ele><time>2026-03-30T15:03:12.802Z</time></trkpt><trkpt lat="44.2861421" lon="8.2764484"><ele>490.80000000000007</ele><time>2026-03-30T15:03:14.803Z</time></trkpt><trkpt lat="44.286171" lon="8.2765656"><ele>490.2</ele><time>2026-03-30T15:03:16.801Z</time></trkpt><trkpt lat="44.2862023" lon="8.2766928"><ele>489.6</ele><time>2026-03-30T15:03:18.803Z</time></trkpt><trkpt lat="44.2862291" lon="8.2768473"><ele>489.0</ele><time>2026-03-30T15:03:20.802Z</time></trkpt><trkpt lat="44.2862593" lon="8.2770047"><ele>489.0</ele><time>2026-03-30T15:03:22.802Z</time></trkpt><trkpt lat="44.2862787" lon="8.2770894"><ele>489.0</ele><time>2026-03-30T15:03:23.802Z</time></trkpt><trkpt lat="44.2863361" lon="8.2772538"><ele>489.0</ele><time>2026-03-30T15:03:25.8Z</time></trkpt><trkpt lat="44.2863574" lon="8.2773419"><ele>489.0</ele><time>2026-03-30T15:03:26.801Z</time></trkpt><trkpt lat="44.2863855" lon="8.2775099"><ele>489.0</ele><time>2026-03-30T15:03:28.802Z</time></trkpt><trkpt lat="44.2864307" lon="8.2776526"><ele>489.1666666666667</ele><time>2026-03-30T15:03:30.802Z</time></trkpt><trkpt lat="44.2864752" lon="8.277802"><ele>489.33333333333337</ele><time>2026-03-30T15:03:32.802Z</time></trkpt><trkpt lat="44.2865027" lon="8.2778924"><ele>489.5</ele><time>2026-03-30T15:03:33.8Z</time></trkpt><trkpt lat="44.2865298" lon="8.2779737"><ele>489.6666666666667</ele><time>2026-03-30T15:03:34.802Z</time></trkpt><trkpt lat="44.2865803" lon="8.2781287"><ele>489.83333333333337</ele><time>2026-03-30T15:03:36.802Z</time></trkpt><trkpt lat="44.2866042" lon="8.2782117"><ele>490.0</ele><time>2026-03-30T15:03:37.802Z</time></trkpt><trkpt lat="44.286628" lon="8.278298"><ele>490.00000000000006</ele><time>2026-03-30T15:03:38.801Z</time></trkpt><trkpt lat="44.2866647" lon="8.278384"><ele>490.0</ele><time>2026-03-30T15:03:39.801Z</time></trkpt><trkpt lat="44.2867212" lon="8.2785366"><ele>490.0</ele><time>2026-03-30T15:03:41.803Z</time></trkpt><trkpt lat="44.2867464" lon="8.2786286"><ele>490.0</ele><time>2026-03-30T15:03:42.802Z</time></trkpt><trkpt lat="44.2867808" lon="8.2787293"><ele>490.00000000000006</ele><time>2026-03-30T15:03:43.802Z</time></trkpt><trkpt lat="44.2868032" lon="8.2788259"><ele>490.0</ele><time>2026-03-30T15:03:44.802Z</time></trkpt><trkpt lat="44.2868284" lon="8.2789146"><ele>488.83333333333337</ele><time>2026-03-30T15:03:45.8Z</time></trkpt><trkpt lat="44.2868555" lon="8.2790049"><ele>487.6666666666667</ele><time>2026-03-30T15:03:46.8Z</time></trkpt><trkpt lat="44.2868905" lon="8.2791107"><ele>486.5</ele><time>2026-03-30T15:03:47.802Z</time></trkpt><trkpt lat="44.2869191" lon="8.2792117"><ele>485.33333333333337</ele><time>2026-03-30T15:03:48.802Z</time></trkpt><trkpt lat="44.28695" lon="8.2793136"><ele>484.1666666666667</ele><time>2026-03-30T15:03:49.8Z</time></trkpt><trkpt lat="44.2869786" lon="8.2794186"><ele>483.0</ele><time>2026-03-30T15:03:50.801Z</time></trkpt><trkpt lat="44.2870088" lon="8.2795235"><ele>483.0</ele><time>2026-03-30T15:03:51.8Z</time></trkpt><trkpt lat="44.2870352" lon="8.2796042"><ele>483.0</ele><time>2026-03-30T15:03:52.801Z</time></trkpt><trkpt lat="44.2870567" lon="8.2796917"><ele>483.0</ele><time>2026-03-30T15:03:53.801Z</time></trkpt><trkpt lat="44.287091" lon="8.279778"><ele>483.0</ele><time>2026-03-30T15:03:54.802Z</time></trkpt><trkpt lat="44.2871326" lon="8.2798468"><ele>483.0</ele><time>2026-03-30T15:03:55.802Z</time></trkpt><trkpt lat="44.2872273" lon="8.27995"><ele>483.0</ele><time>2026-03-30T15:03:57.802Z</time></trkpt><trkpt lat="44.2873437" lon="8.2800151"><ele>483.0</ele><time>2026-03-30T15:03:59.801Z</time></trkpt><trkpt lat="44.2874464" lon="8.2800663"><ele>482.99999999999994</ele><time>2026-03-30T15:04:01.8Z</time></trkpt><trkpt lat="44.2875337" lon="8.2801315"><ele>482.99999999999994</ele><time>2026-03-30T15:04:03.801Z</time></trkpt><trkpt lat="44.2876226" lon="8.2801969"><ele>483.0</ele><time>2026-03-30T15:04:05.801Z</time></trkpt><trkpt lat="44.2877143" lon="8.2802499"><ele>483.0</ele><time>2026-03-30T15:04:07.802Z</time></trkpt><trkpt lat="44.2878192" lon="8.2803113"><ele>483.0</ele><time>2026-03-30T15:04:09.801Z</time></trkpt><trkpt lat="44.2879244" lon="8.2803705"><ele>482.99999999999994</ele><time>2026-03-30T15:04:11.802Z</time></trkpt><trkpt lat="44.2880132" lon="8.280436"><ele>482.99999999999994</ele><time>2026-03-30T15:04:13.801Z</time></trkpt><trkpt lat="44.2881057" lon="8.2804822"><ele>483.0</ele><time>2026-03-30T15:04:15.801Z</time></trkpt><trkpt lat="44.288213" lon="8.2805367"><ele>483.0</ele><time>2026-03-30T15:04:17.801Z</time></trkpt><trkpt lat="44.2883087" lon="8.2806005"><ele>482.0</ele><time>2026-03-30T15:04:19.802Z</time></trkpt><trkpt lat="44.288412" lon="8.2806637"><ele>481.0</ele><time>2026-03-30T15:04:21.803Z</time></trkpt><trkpt lat="44.2885154" lon="8.2807289"><ele>480.0</ele><time>2026-03-30T15:04:23.802Z</time></trkpt><trkpt lat="44.2886227" lon="8.2807851"><ele>479.0</ele><time>2026-03-30T15:04:25.801Z</time></trkpt><trkpt lat="44.288733" lon="8.2808221"><ele>479.0</ele><time>2026-03-30T15:04:27.801Z</time></trkpt><trkpt lat="44.2888404" lon="8.2808598"><ele>479.0</ele><time>2026-03-30T15:04:29.802Z</time></trkpt><trkpt lat="44.2889011" lon="8.2808832"><ele>479.0</ele><time>2026-03-30T15:04:30.8Z</time></trkpt><trkpt lat="44.2890191" lon="8.2809231"><ele>479.0</ele><time>2026-03-30T15:04:32.802Z</time></trkpt><trkpt lat="44.2891411" lon="8.2809749"><ele>479.0</ele><time>2026-03-30T15:04:34.802Z</time></trkpt><trkpt lat="44.2892435" lon="8.2810443"><ele>481.0</ele><time>2026-03-30T15:04:36.801Z</time></trkpt><trkpt lat="44.2893436" lon="8.2811164"><ele>483.0</ele><time>2026-03-30T15:04:38.801Z</time></trkpt><trkpt lat="44.2894443" lon="8.2812056"><ele>485.0</ele><time>2026-03-30T15:04:40.801Z</time></trkpt><trkpt lat="44.2895368" lon="8.2812756"><ele>487.0</ele><time>2026-03-30T15:04:42.801Z</time></trkpt><trkpt lat="44.2896191" lon="8.2813422"><ele>489.0</ele><time>2026-03-30T15:04:44.802Z</time></trkpt><trkpt lat="44.2897106" lon="8.2814219"><ele>488.0</ele><time>2026-03-30T15:04:46.801Z</time></trkpt><trkpt lat="44.2897414" lon="8.2815285"><ele>487.0</ele><time>2026-03-30T15:04:48.802Z</time></trkpt><trkpt lat="44.2897926" lon="8.2815936"><ele>486.0</ele><time>2026-03-30T15:04:49.803Z</time></trkpt><trkpt lat="44.2898762" lon="8.281701"><ele>485.0</ele><time>2026-03-30T15:04:51.8Z</time></trkpt><trkpt lat="44.2899373" lon="8.2817583"><ele>484.0</ele><time>2026-03-30T15:04:52.802Z</time></trkpt><trkpt lat="44.2899883" lon="8.281816"><ele>483.0</ele><time>2026-03-30T15:04:53.802Z</time></trkpt><trkpt lat="44.290075" lon="8.2819126"><ele>483.0</ele><time>2026-03-30T15:04:55.801Z</time></trkpt><trkpt lat="44.2901333" lon="8.2819557"><ele>483.0</ele><time>2026-03-30T15:04:56.801Z</time></trkpt><trkpt lat="44.2901888" lon="8.2820032"><ele>483.0</ele><time>2026-03-30T15:04:57.802Z</time></trkpt><trkpt lat="44.2902444" lon="8.2820533"><ele>483.0</ele><time>2026-03-30T15:04:58.8Z</time></trkpt><trkpt lat="44.2903041" lon="8.2820843"><ele>483.0</ele><time>2026-03-30T15:04:59.801Z</time></trkpt><trkpt lat="44.2904017" lon="8.2821988"><ele>483.0</ele><time>2026-03-30T15:05:01.801Z</time></trkpt><trkpt lat="44.2904565" lon="8.2822543"><ele>483.0</ele><time>2026-03-30T15:05:02.802Z</time></trkpt><trkpt lat="44.2905165" lon="8.2823218"><ele>483.0</ele><time>2026-03-30T15:05:03.803Z</time></trkpt><trkpt lat="44.290579" lon="8.2823845"><ele>483.0</ele><time>2026-03-30T15:05:04.802Z</time></trkpt><trkpt lat="44.2906341" lon="8.282438"><ele>483.0</ele><time>2026-03-30T15:05:05.801Z</time></trkpt><trkpt lat="44.2906901" lon="8.2824983"><ele>483.0</ele><time>2026-03-30T15:05:06.801Z</time></trkpt><trkpt lat="44.2907823" lon="8.2826125"><ele>483.0</ele><time>2026-03-30T15:05:08.8Z</time></trkpt><trkpt lat="44.2908392" lon="8.282671"><ele>483.0</ele><time>2026-03-30T15:05:09.802Z</time></trkpt><trkpt lat="44.2908947" lon="8.2827373"><ele>483.0</ele><time>2026-03-30T15:05:10.801Z</time></trkpt><trkpt lat="44.2909511" lon="8.2827984"><ele>483.0</ele><time>2026-03-30T15:05:11.801Z</time></trkpt><trkpt lat="44.2910052" lon="8.2828566"><ele>483.0</ele><time>2026-03-30T15:05:12.802Z</time></trkpt><trkpt lat="44.2910649" lon="8.2829073"><ele>483.0</ele><time>2026-03-30T15:05:13.801Z</time></trkpt><trkpt lat="44.291116" lon="8.2829716"><ele>483.0</ele><time>2026-03-30T15:05:14.802Z</time></trkpt><trkpt lat="44.2911689" lon="8.2830197"><ele>483.0</ele><time>2026-03-30T15:05:15.8Z</time></trkpt><trkpt lat="44.2912312" lon="8.2830687"><ele>482.42857142857144</ele><time>2026-03-30T15:05:16.802Z</time></trkpt><trkpt lat="44.2912889" lon="8.2831226"><ele>481.8571428571429</ele><time>2026-03-30T15:05:17.801Z</time></trkpt><trkpt lat="44.291344" lon="8.2831748"><ele>481.2857142857143</ele><time>2026-03-30T15:05:18.801Z</time></trkpt><trkpt lat="44.2914085" lon="8.2832207"><ele>480.7142857142857</ele><time>2026-03-30T15:05:19.801Z</time></trkpt><trkpt lat="44.2914651" lon="8.2832682"><ele>480.14285714285717</ele><time>2026-03-30T15:05:20.801Z</time></trkpt><trkpt lat="44.2915271" lon="8.2833097"><ele>479.57142857142856</ele><time>2026-03-30T15:05:21.801Z</time></trkpt><trkpt lat="44.2916014" lon="8.2833785"><ele>479.0</ele><time>2026-03-30T15:05:22.8Z</time></trkpt><trkpt lat="44.2916985" lon="8.2834689"><ele>478.99999999999994</ele><time>2026-03-30T15:05:24.801Z</time></trkpt><trkpt lat="44.2917576" lon="8.2835199"><ele>479.0</ele><time>2026-03-30T15:05:25.802Z</time></trkpt><trkpt lat="44.2918063" lon="8.2835836"><ele>479.0</ele><time>2026-03-30T15:05:26.8Z</time></trkpt><trkpt lat="44.2919055" lon="8.2836922"><ele>479.0</ele><time>2026-03-30T15:05:28.801Z</time></trkpt><trkpt lat="44.2919973" lon="8.2837944"><ele>478.99999999999994</ele><time>2026-03-30T15:05:30.801Z</time></trkpt><trkpt lat="44.2920468" lon="8.283853"><ele>479.0</ele><time>2026-03-30T15:05:31.801Z</time></trkpt><trkpt lat="44.292126" lon="8.2839727"><ele>479.4</ele><time>2026-03-30T15:05:33.802Z</time></trkpt><trkpt lat="44.292211" lon="8.2840861"><ele>479.79999999999995</ele><time>2026-03-30T15:05:35.801Z</time></trkpt><trkpt lat="44.2922526" lon="8.2841547"><ele>480.20000000000005</ele><time>2026-03-30T15:05:36.803Z</time></trkpt><trkpt lat="44.2923405" lon="8.2842781"><ele>480.6</ele><time>2026-03-30T15:05:38.801Z</time></trkpt><trkpt lat="44.292425" lon="8.2844071"><ele>481.0</ele><time>2026-03-30T15:05:40.801Z</time></trkpt><trkpt lat="44.2925087" lon="8.2845357"><ele>479.75</ele><time>2026-03-30T15:05:42.801Z</time></trkpt><trkpt lat="44.2925842" lon="8.2846606"><ele>478.5</ele><time>2026-03-30T15:05:44.802Z</time></trkpt><trkpt lat="44.2926545" lon="8.2847773"><ele>477.25</ele><time>2026-03-30T15:05:46.801Z</time></trkpt><trkpt lat="44.2927283" lon="8.2848958"><ele>476.0</ele><time>2026-03-30T15:05:48.801Z</time></trkpt><trkpt lat="44.2928034" lon="8.285017"><ele>475.0</ele><time>2026-03-30T15:05:50.802Z</time></trkpt><trkpt lat="44.2928818" lon="8.2851426"><ele>474.0</ele><time>2026-03-30T15:05:52.8Z</time></trkpt><trkpt lat="44.2929567" lon="8.285277"><ele>473.0</ele><time>2026-03-30T15:05:54.802Z</time></trkpt><trkpt lat="44.2930243" lon="8.2854128"><ele>472.0</ele><time>2026-03-30T15:05:56.801Z</time></trkpt><trkpt lat="44.2930997" lon="8.2855459"><ele>474.75</ele><time>2026-03-30T15:05:58.801Z</time></trkpt><trkpt lat="44.2931702" lon="8.2856741"><ele>477.5</ele><time>2026-03-30T15:06:00.802Z</time></trkpt><trkpt lat="44.2932174" lon="8.2858221"><ele>480.25</ele><time>2026-03-30T15:06:02.8Z</time></trkpt><trkpt lat="44.293253" lon="8.2859704"><ele>483.0</ele><time>2026-03-30T15:06:04.8Z</time></trkpt><trkpt lat="44.2932748" lon="8.2861263"><ele>483.0</ele><time>2026-03-30T15:06:06.801Z</time></trkpt><trkpt lat="44.2932937" lon="8.2863032"><ele>482.99999999999994</ele><time>2026-03-30T15:06:08.801Z</time></trkpt><trkpt lat="44.2933027" lon="8.2864741"><ele>482.99999999999994</ele><time>2026-03-30T15:06:10.802Z</time></trkpt><trkpt lat="44.293298" lon="8.2866464"><ele>483.0</ele><time>2026-03-30T15:06:12.801Z</time></trkpt><trkpt lat="44.2932934" lon="8.2867383"><ele>483.0</ele><time>2026-03-30T15:06:13.801Z</time></trkpt><trkpt lat="44.2932915" lon="8.2868281"><ele>481.79999999999995</ele><time>2026-03-30T15:06:14.801Z</time></trkpt><trkpt lat="44.2932867" lon="8.2869172"><ele>480.59999999999997</ele><time>2026-03-30T15:06:15.801Z</time></trkpt><trkpt lat="44.2932785" lon="8.2870072"><ele>479.40000000000003</ele><time>2026-03-30T15:06:16.801Z</time></trkpt><trkpt lat="44.2932484" lon="8.2871591"><ele>478.20000000000005</ele><time>2026-03-30T15:06:18.802Z</time></trkpt><trkpt lat="44.2932009" lon="8.2873041"><ele>477.0</ele><time>2026-03-30T15:06:20.801Z</time></trkpt><trkpt lat="44.2931432" lon="8.2874402"><ele>476.40000000000003</ele><time>2026-03-30T15:06:22.801Z</time></trkpt><trkpt lat="44.2930924" lon="8.2875646"><ele>475.80000000000007</ele><time>2026-03-30T15:06:24.801Z</time></trkpt><trkpt lat="44.2930426" lon="8.2876956"><ele>475.2</ele><time>2026-03-30T15:06:26.802Z</time></trkpt><trkpt lat="44.2929817" lon="8.2878267"><ele>474.6</ele><time>2026-03-30T15:06:28.801Z</time></trkpt><trkpt lat="44.292922" lon="8.2879455"><ele>474.0</ele><time>2026-03-30T15:06:30.801Z</time></trkpt><trkpt lat="44.2928623" lon="8.288063"><ele>471.75</ele><time>2026-03-30T15:06:32.8Z</time></trkpt><trkpt lat="44.2927933" lon="8.2881869"><ele>469.5</ele><time>2026-03-30T15:06:34.803Z</time></trkpt><trkpt lat="44.2927317" lon="8.288324"><ele>467.25</ele><time>2026-03-30T15:06:36.801Z</time></trkpt><trkpt lat="44.2926831" lon="8.2884703"><ele>465.0</ele><time>2026-03-30T15:06:38.801Z</time></trkpt><trkpt lat="44.2926415" lon="8.2886265"><ele>465.0</ele><time>2026-03-30T15:06:40.802Z</time></trkpt><trkpt lat="44.2926254" lon="8.2887132"><ele>465.0</ele><time>2026-03-30T15:06:41.802Z</time></trkpt><trkpt lat="44.2925986" lon="8.2888717"><ele>465.0</ele><time>2026-03-30T15:06:43.802Z</time></trkpt><trkpt lat="44.2925911" lon="8.2890165"><ele>465.0</ele><time>2026-03-30T15:06:45.8Z</time></trkpt><trkpt lat="44.2925881" lon="8.2891739"><ele>465.0</ele><time>2026-03-30T15:06:47.801Z</time></trkpt><trkpt lat="44.2925789" lon="8.289327"><ele>465.0</ele><time>2026-03-30T15:06:49.801Z</time></trkpt><trkpt lat="44.2925739" lon="8.2894668"><ele>465.0</ele><time>2026-03-30T15:06:51.801Z</time></trkpt><trkpt lat="44.2925609" lon="8.289626"><ele>465.0</ele><time>2026-03-30T15:06:53.802Z</time></trkpt><trkpt lat="44.2925527" lon="8.289774"><ele>465.0</ele><time>2026-03-30T15:06:55.803Z</time></trkpt><trkpt lat="44.2925389" lon="8.2899282"><ele>465.0</ele><time>2026-03-30T15:06:57.802Z</time></trkpt><trkpt lat="44.2925383" lon="8.2900825"><ele>465.0</ele><time>2026-03-30T15:06:59.8Z</time></trkpt><trkpt lat="44.2925379" lon="8.2902434"><ele>465.0</ele><time>2026-03-30T15:07:01.802Z</time></trkpt><trkpt lat="44.2925415" lon="8.2904024"><ele>465.0</ele><time>2026-03-30T15:07:03.8Z</time></trkpt><trkpt lat="44.2925429" lon="8.2905623"><ele>465.0</ele><time>2026-03-30T15:07:05.801Z</time></trkpt><trkpt lat="44.2925314" lon="8.2907182"><ele>464.75</ele><time>2026-03-30T15:07:07.801Z</time></trkpt><trkpt lat="44.2925254" lon="8.2908843"><ele>464.5</ele><time>2026-03-30T15:07:09.801Z</time></trkpt><trkpt lat="44.2925059" lon="8.2910284"><ele>464.25</ele><time>2026-03-30T15:07:11.801Z</time></trkpt><trkpt lat="44.2924721" lon="8.2911803"><ele>464.0</ele><time>2026-03-30T15:07:13.802Z</time></trkpt><trkpt lat="44.2924288" lon="8.2913367"><ele>464.16666666666663</ele><time>2026-03-30T15:07:15.802Z</time></trkpt><trkpt lat="44.2923784" lon="8.2914921"><ele>464.3333333333333</ele><time>2026-03-30T15:07:17.802Z</time></trkpt><trkpt lat="44.2923508" lon="8.2915714"><ele>464.5</ele><time>2026-03-30T15:07:18.801Z</time></trkpt><trkpt lat="44.2922867" lon="8.291724"><ele>464.66666666666663</ele><time>2026-03-30T15:07:20.802Z</time></trkpt><trkpt lat="44.2922532" lon="8.2918035"><ele>464.8333333333333</ele><time>2026-03-30T15:07:21.801Z</time></trkpt><trkpt lat="44.2922162" lon="8.2918798"><ele>465.0</ele><time>2026-03-30T15:07:22.801Z</time></trkpt><trkpt lat="44.2921821" lon="8.291962"><ele>464.2857142857143</ele><time>2026-03-30T15:07:23.802Z</time></trkpt><trkpt lat="44.2921475" lon="8.2920489"><ele>463.57142857142856</ele><time>2026-03-30T15:07:24.8Z</time></trkpt><trkpt lat="44.2921128" lon="8.2921358"><ele>462.85714285714283</ele><time>2026-03-30T15:07:25.802Z</time></trkpt><trkpt lat="44.2920816" lon="8.2922208"><ele>462.1428571428571</ele><time>2026-03-30T15:07:26.801Z</time></trkpt><trkpt lat="44.2920458" lon="8.2923047"><ele>461.42857142857144</ele><time>2026-03-30T15:07:27.8Z</time></trkpt><trkpt lat="44.2920063" lon="8.2923808"><ele>460.71428571428567</ele><time>2026-03-30T15:07:28.801Z</time></trkpt><trkpt lat="44.2919695" lon="8.2924637"><ele>459.99999999999994</ele><time>2026-03-30T15:07:29.801Z</time></trkpt><trkpt lat="44.2919319" lon="8.2925508"><ele>459.71428571428567</ele><time>2026-03-30T15:07:30.801Z</time></trkpt><trkpt lat="44.2918944" lon="8.2926344"><ele>459.42857142857144</ele><time>2026-03-30T15:07:31.8Z</time></trkpt><trkpt lat="44.2918602" lon="8.2927249"><ele>459.1428571428571</ele><time>2026-03-30T15:07:32.803Z</time></trkpt><trkpt lat="44.2918283" lon="8.2928213"><ele>458.85714285714283</ele><time>2026-03-30T15:07:33.802Z</time></trkpt><trkpt lat="44.2917966" lon="8.2929128"><ele>458.57142857142856</ele><time>2026-03-30T15:07:34.801Z</time></trkpt><trkpt lat="44.2917642" lon="8.2930065"><ele>458.2857142857143</ele><time>2026-03-30T15:07:35.801Z</time></trkpt><trkpt lat="44.2917337" lon="8.2930946"><ele>458.0</ele><time>2026-03-30T15:07:36.801Z</time></trkpt><trkpt lat="44.2917046" lon="8.2931797"><ele>457.79999999999995</ele><time>2026-03-30T15:07:37.801Z</time></trkpt><trkpt lat="44.2916853" lon="8.2932644"><ele>457.59999999999997</ele><time>2026-03-30T15:07:38.802Z</time></trkpt><trkpt lat="44.2916495" lon="8.2934336"><ele>457.40000000000003</ele><time>2026-03-30T15:07:40.8Z</time></trkpt><trkpt lat="44.291636" lon="8.2935227"><ele>457.20000000000005</ele><time>2026-03-30T15:07:41.801Z</time></trkpt><trkpt lat="44.291618" lon="8.2936887"><ele>457.0</ele><time>2026-03-30T15:07:43.8Z</time></trkpt><trkpt lat="44.2915999" lon="8.2938541"><ele>456.8</ele><time>2026-03-30T15:07:45.801Z</time></trkpt><trkpt lat="44.2915905" lon="8.2940108"><ele>456.6</ele><time>2026-03-30T15:07:47.801Z</time></trkpt><trkpt lat="44.2915587" lon="8.2941592"><ele>456.40000000000003</ele><time>2026-03-30T15:07:49.801Z</time></trkpt><trkpt lat="44.2914997" lon="8.294295"><ele>456.20000000000005</ele><time>2026-03-30T15:07:51.801Z</time></trkpt><trkpt lat="44.2914352" lon="8.2944167"><ele>456.0</ele><time>2026-03-30T15:07:53.8Z</time></trkpt><trkpt lat="44.2913658" lon="8.2945465"><ele>457.6</ele><time>2026-03-30T15:07:55.801Z</time></trkpt><trkpt lat="44.2912961" lon="8.2946609"><ele>459.20000000000005</ele><time>2026-03-30T15:07:57.801Z</time></trkpt><trkpt lat="44.2912159" lon="8.2947713"><ele>460.79999999999995</ele><time>2026-03-30T15:07:59.801Z</time></trkpt><trkpt lat="44.2911266" lon="8.2948707"><ele>462.4</ele><time>2026-03-30T15:08:01.801Z</time></trkpt><trkpt lat="44.2910379" lon="8.2949696"><ele>464.0</ele><time>2026-03-30T15:08:03.8Z</time></trkpt><trkpt lat="44.290955" lon="8.2950675"><ele>464.49999999999994</ele><time>2026-03-30T15:08:05.8Z</time></trkpt><trkpt lat="44.2908753" lon="8.2951603"><ele>465.0</ele><time>2026-03-30T15:08:07.801Z</time></trkpt><trkpt lat="44.2908073" lon="8.2952423"><ele>465.5</ele><time>2026-03-30T15:08:09.801Z</time></trkpt><trkpt lat="44.2907462" lon="8.2953422"><ele>466.0</ele><time>2026-03-30T15:08:12.802Z</time></trkpt><trkpt lat="44.2907011" lon="8.2954113"><ele>466.49999999999994</ele><time>2026-03-30T15:08:14.802Z</time></trkpt><trkpt lat="44.2906513" lon="8.2954807"><ele>467.0</ele><time>2026-03-30T15:08:16.803Z</time></trkpt><trkpt lat="44.2905824" lon="8.2955287"><ele>467.0</ele><time>2026-03-30T15:08:18.802Z</time></trkpt><trkpt lat="44.290496" lon="8.2955501"><ele>467.00000000000006</ele><time>2026-03-30T15:08:20.802Z</time></trkpt><trkpt lat="44.29042" lon="8.2955537"><ele>467.00000000000006</ele><time>2026-03-30T15:08:22.802Z</time></trkpt><trkpt lat="44.2903282" lon="8.2955912"><ele>467.0</ele><time>2026-03-30T15:08:24.801Z</time></trkpt><trkpt lat="44.2902256" lon="8.295626"><ele>467.0</ele><time>2026-03-30T15:08:26.8Z</time></trkpt><trkpt lat="44.290135" lon="8.2956617"><ele>466.99999999999994</ele><time>2026-03-30T15:08:28.801Z</time></trkpt><trkpt lat="44.2900579" lon="8.2957039"><ele>467.0</ele><time>2026-03-30T15:08:30.802Z</time></trkpt><trkpt lat="44.2899868" lon="8.2957224"><ele>467.0</ele><time>2026-03-30T15:08:32.801Z</time></trkpt><trkpt lat="44.2899143" lon="8.2957391"><ele>467.0</ele><time>2026-03-30T15:08:34.8Z</time></trkpt><trkpt lat="44.2898457" lon="8.2957492"><ele>466.99999999999994</ele><time>2026-03-30T15:08:36.801Z</time></trkpt><trkpt lat="44.2897554" lon="8.2957422"><ele>467.0</ele><time>2026-03-30T15:08:39.802Z</time></trkpt><trkpt lat="44.2896721" lon="8.2957603"><ele>467.99999999999994</ele><time>2026-03-30T15:08:42.801Z</time></trkpt><trkpt lat="44.2895876" lon="8.2957808"><ele>469.0</ele><time>2026-03-30T15:08:45.801Z</time></trkpt><trkpt lat="44.2895105" lon="8.2957853"><ele>470.0</ele><time>2026-03-30T15:08:48.801Z</time></trkpt><trkpt lat="44.2894441" lon="8.295786"><ele>471.0</ele><time>2026-03-30T15:08:51.801Z</time></trkpt><trkpt lat="44.2893571" lon="8.2957905"><ele>471.99999999999994</ele><time>2026-03-30T15:08:54.802Z</time></trkpt><trkpt lat="44.2892798" lon="8.2958045"><ele>473.0</ele><time>2026-03-30T15:08:57.801Z</time></trkpt><trkpt lat="44.2891948" lon="8.295815"><ele>472.99999999999994</ele><time>2026-03-30T15:09:00.802Z</time></trkpt><trkpt lat="44.2891107" lon="8.2958312"><ele>473.0</ele><time>2026-03-30T15:09:03.801Z</time></trkpt><trkpt lat="44.2890373" lon="8.2958637"><ele>473.0</ele><time>2026-03-30T15:09:05.801Z</time></trkpt><trkpt lat="44.2889587" lon="8.2959014"><ele>473.0</ele><time>2026-03-30T15:09:07.801Z</time></trkpt><trkpt lat="44.288872" lon="8.2959438"><ele>472.99999999999994</ele><time>2026-03-30T15:09:09.801Z</time></trkpt><trkpt lat="44.288783" lon="8.2959697"><ele>473.0</ele><time>2026-03-30T15:09:11.8Z</time></trkpt><trkpt lat="44.2886905" lon="8.2959915"><ele>474.99999999999994</ele><time>2026-03-30T15:09:13.802Z</time></trkpt><trkpt lat="44.2886092" lon="8.2960155"><ele>477.0</ele><time>2026-03-30T15:09:15.801Z</time></trkpt><trkpt lat="44.2885277" lon="8.2960239"><ele>479.0</ele><time>2026-03-30T15:09:17.802Z</time></trkpt><trkpt lat="44.2884407" lon="8.2960188"><ele>481.0</ele><time>2026-03-30T15:09:19.801Z</time></trkpt><trkpt lat="44.2883548" lon="8.2960234"><ele>482.99999999999994</ele><time>2026-03-30T15:09:21.801Z</time></trkpt><trkpt lat="44.288271" lon="8.2960167"><ele>485.0</ele><time>2026-03-30T15:09:23.802Z</time></trkpt><trkpt lat="44.288188" lon="8.2960126"><ele>484.99999999999994</ele><time>2026-03-30T15:09:25.801Z</time></trkpt><trkpt lat="44.2881107" lon="8.296028"><ele>485.0</ele><time>2026-03-30T15:09:27.801Z</time></trkpt><trkpt lat="44.2880283" lon="8.2960315"><ele>485.0</ele><time>2026-03-30T15:09:29.801Z</time></trkpt><trkpt lat="44.2879469" lon="8.296049"><ele>485.0</ele><time>2026-03-30T15:09:31.802Z</time></trkpt><trkpt lat="44.2878626" lon="8.2960518"><ele>484.99999999999994</ele><time>2026-03-30T15:09:33.801Z</time></trkpt><trkpt lat="44.2877754" lon="8.2960543"><ele>485.0</ele><time>2026-03-30T15:09:35.801Z</time></trkpt><trkpt lat="44.2876995" lon="8.29604"><ele>485.6</ele><time>2026-03-30T15:09:37.801Z</time></trkpt><trkpt lat="44.2876257" lon="8.2960299"><ele>486.2</ele><time>2026-03-30T15:09:39.802Z</time></trkpt><trkpt lat="44.2875449" lon="8.2960307"><ele>486.79999999999995</ele><time>2026-03-30T15:09:41.8Z</time></trkpt><trkpt lat="44.2874419" lon="8.2960621"><ele>487.4</ele><time>2026-03-30T15:09:43.801Z</time></trkpt><trkpt lat="44.2873416" lon="8.2960933"><ele>488.0</ele><time>2026-03-30T15:09:45.802Z</time></trkpt><trkpt lat="44.2872494" lon="8.2961264"><ele>488.0</ele><time>2026-03-30T15:09:47.801Z</time></trkpt><trkpt lat="44.2871541" lon="8.296149"><ele>487.99999999999994</ele><time>2026-03-30T15:09:49.801Z</time></trkpt><trkpt lat="44.2870545" lon="8.296181"><ele>487.99999999999994</ele><time>2026-03-30T15:09:51.8Z</time></trkpt><trkpt lat="44.2869624" lon="8.2961878"><ele>488.0</ele><time>2026-03-30T15:09:53.8Z</time></trkpt><trkpt lat="44.2868707" lon="8.2962039"><ele>488.0</ele><time>2026-03-30T15:09:55.802Z</time></trkpt><trkpt lat="44.286767" lon="8.2962059"><ele>488.0</ele><time>2026-03-30T15:09:57.801Z</time></trkpt><trkpt lat="44.2866687" lon="8.2961971"><ele>487.99999999999994</ele><time>2026-03-30T15:09:59.8Z</time></trkpt><trkpt lat="44.2865673" lon="8.296182"><ele>487.99999999999994</ele><time>2026-03-30T15:10:01.801Z</time></trkpt><trkpt lat="44.2864795" lon="8.2961772"><ele>488.0</ele><time>2026-03-30T15:10:03.801Z</time></trkpt><trkpt lat="44.2863989" lon="8.2961929"><ele>488.0</ele><time>2026-03-30T15:10:05.802Z</time></trkpt><trkpt lat="44.2863109" lon="8.2962255"><ele>487.16666666666663</ele><time>2026-03-30T15:10:07.802Z</time></trkpt><trkpt lat="44.2862257" lon="8.296244"><ele>486.3333333333333</ele><time>2026-03-30T15:10:09.801Z</time></trkpt><trkpt lat="44.2861536" lon="8.296254"><ele>485.5</ele><time>2026-03-30T15:10:11.801Z</time></trkpt><trkpt lat="44.2860613" lon="8.2962635"><ele>484.66666666666663</ele><time>2026-03-30T15:10:13.802Z</time></trkpt><trkpt lat="44.2859779" lon="8.296255"><ele>483.8333333333333</ele><time>2026-03-30T15:10:15.802Z</time></trkpt><trkpt lat="44.2858961" lon="8.2962635"><ele>483.0</ele><time>2026-03-30T15:10:17.801Z</time></trkpt><trkpt lat="44.2858131" lon="8.2962734"><ele>483.0</ele><time>2026-03-30T15:10:19.8Z</time></trkpt><trkpt lat="44.2857345" lon="8.2962858"><ele>483.0</ele><time>2026-03-30T15:10:21.801Z</time></trkpt><trkpt lat="44.2856663" lon="8.2962764"><ele>483.0</ele><time>2026-03-30T15:10:23.801Z</time></trkpt><trkpt lat="44.2855854" lon="8.2962886"><ele>483.0</ele><time>2026-03-30T15:10:25.801Z</time></trkpt><trkpt lat="44.2854978" lon="8.2963037"><ele>483.0</ele><time>2026-03-30T15:10:27.801Z</time></trkpt><trkpt lat="44.2854172" lon="8.2963098"><ele>483.0</ele><time>2026-03-30T15:10:29.802Z</time></trkpt><trkpt lat="44.2853328" lon="8.2963129"><ele>483.79999999999995</ele><time>2026-03-30T15:10:31.8Z</time></trkpt><trkpt lat="44.2852482" lon="8.2963161"><ele>484.59999999999997</ele><time>2026-03-30T15:10:33.802Z</time></trkpt><trkpt lat="44.2851535" lon="8.2963239"><ele>485.40000000000003</ele><time>2026-03-30T15:10:35.801Z</time></trkpt><trkpt lat="44.2850474" lon="8.2963325"><ele>486.20000000000005</ele><time>2026-03-30T15:10:37.8Z</time></trkpt><trkpt lat="44.2849499" lon="8.2963411"><ele>487.0</ele><time>2026-03-30T15:10:39.801Z</time></trkpt><trkpt lat="44.2848577" lon="8.2963555"><ele>485.6666666666667</ele><time>2026-03-30T15:10:41.801Z</time></trkpt><trkpt lat="44.2847614" lon="8.2963704"><ele>484.33333333333337</ele><time>2026-03-30T15:10:43.801Z</time></trkpt><trkpt lat="44.2846751" lon="8.2963796"><ele>483.0</ele><time>2026-03-30T15:10:45.802Z</time></trkpt><trkpt lat="44.2845979" lon="8.2963942"><ele>481.66666666666663</ele><time>2026-03-30T15:10:47.801Z</time></trkpt><trkpt lat="44.2845108" lon="8.2963736"><ele>480.3333333333333</ele><time>2026-03-30T15:10:49.801Z</time></trkpt><trkpt lat="44.2844357" lon="8.2963776"><ele>479.0</ele><time>2026-03-30T15:10:51.801Z</time></trkpt><trkpt lat="44.2843559" lon="8.2963768"><ele>478.99999999999994</ele><time>2026-03-30T15:10:53.801Z</time></trkpt><trkpt lat="44.2842603" lon="8.2963783"><ele>479.0</ele><time>2026-03-30T15:10:55.802Z</time></trkpt><trkpt lat="44.2841755" lon="8.2963496"><ele>479.0</ele><time>2026-03-30T15:10:57.8Z</time></trkpt><trkpt lat="44.2840759" lon="8.296342"><ele>479.0</ele><time>2026-03-30T15:10:59.802Z</time></trkpt><trkpt lat="44.2839903" lon="8.29634"><ele>478.99999999999994</ele><time>2026-03-30T15:11:01.801Z</time></trkpt><trkpt lat="44.283915" lon="8.296329"><ele>479.0</ele><time>2026-03-30T15:11:03.8Z</time></trkpt><trkpt lat="44.2838278" lon="8.2963361"><ele>478.49999999999994</ele><time>2026-03-30T15:11:05.802Z</time></trkpt><trkpt lat="44.2837396" lon="8.2963525"><ele>478.0</ele><time>2026-03-30T15:11:07.801Z</time></trkpt><trkpt lat="44.283654" lon="8.2963632"><ele>477.5</ele><time>2026-03-30T15:11:09.801Z</time></trkpt><trkpt lat="44.2835773" lon="8.2963745"><ele>477.0</ele><time>2026-03-30T15:11:11.802Z</time></trkpt><trkpt lat="44.2834966" lon="8.2963862"><ele>476.49999999999994</ele><time>2026-03-30T15:11:13.8Z</time></trkpt><trkpt lat="44.2834206" lon="8.2963504"><ele>476.0</ele><time>2026-03-30T15:11:15.801Z</time></trkpt><trkpt lat="44.2833433" lon="8.2963068"><ele>475.99999999999994</ele><time>2026-03-30T15:11:17.8Z</time></trkpt><trkpt lat="44.2832646" lon="8.2962598"><ele>476.0</ele><time>2026-03-30T15:11:19.803Z</time></trkpt><trkpt lat="44.2831979" lon="8.2962284"><ele>476.0</ele><time>2026-03-30T15:11:21.8Z</time></trkpt><trkpt lat="44.2831262" lon="8.2962153"><ele>476.0</ele><time>2026-03-30T15:11:23.802Z</time></trkpt><trkpt lat="44.2830481" lon="8.2962285"><ele>475.99999999999994</ele><time>2026-03-30T15:11:25.802Z</time></trkpt><trkpt lat="44.2829726" lon="8.2962377"><ele>476.0</ele><time>2026-03-30T15:11:27.801Z</time></trkpt><trkpt lat="44.2828923" lon="8.2962551"><ele>475.8571428571429</ele><time>2026-03-30T15:11:29.802Z</time></trkpt><trkpt lat="44.2828285" lon="8.2962814"><ele>475.7142857142857</ele><time>2026-03-30T15:11:30.8Z</time></trkpt><trkpt lat="44.2827509" lon="8.2963166"><ele>475.57142857142856</ele><time>2026-03-30T15:11:32.802Z</time></trkpt><trkpt lat="44.2826857" lon="8.2963452"><ele>475.42857142857144</ele><time>2026-03-30T15:11:34.801Z</time></trkpt><trkpt lat="44.2826257" lon="8.2963728"><ele>475.28571428571433</ele><time>2026-03-30T15:11:36.801Z</time></trkpt><trkpt lat="44.282545" lon="8.2963804"><ele>475.14285714285717</ele><time>2026-03-30T15:11:38.801Z</time></trkpt><trkpt lat="44.2824723" lon="8.2963836"><ele>475.0</ele><time>2026-03-30T15:11:40.802Z</time></trkpt><trkpt lat="44.2823985" lon="8.2964352"><ele>475.00000000000006</ele><time>2026-03-30T15:11:42.801Z</time></trkpt><trkpt lat="44.2823205" lon="8.2964686"><ele>475.0</ele><time>2026-03-30T15:11:44.8Z</time></trkpt><trkpt lat="44.2822337" lon="8.2964969"><ele>475.0</ele><time>2026-03-30T15:11:46.802Z</time></trkpt><trkpt lat="44.2821695" lon="8.2965076"><ele>475.0</ele><time>2026-03-30T15:11:48.802Z</time></trkpt><trkpt lat="44.2820924" lon="8.2965335"><ele>475.00000000000006</ele><time>2026-03-30T15:11:50.802Z</time></trkpt><trkpt lat="44.2820048" lon="8.2965595"><ele>475.0</ele><time>2026-03-30T15:11:52.8Z</time></trkpt><trkpt lat="44.2819302" lon="8.2965882"><ele>475.6666666666667</ele><time>2026-03-30T15:11:54.801Z</time></trkpt><trkpt lat="44.2818695" lon="8.2966359"><ele>476.33333333333337</ele><time>2026-03-30T15:11:56.8Z</time></trkpt><trkpt lat="44.2818697" lon="8.2967371"><ele>477.0</ele><time>2026-03-30T15:11:58.8Z</time></trkpt><trkpt lat="44.2819293" lon="8.2968222"><ele>477.66666666666663</ele><time>2026-03-30T15:12:00.8Z</time></trkpt><trkpt lat="44.2820179" lon="8.2968688"><ele>478.3333333333333</ele><time>2026-03-30T15:12:02.801Z</time></trkpt><trkpt lat="44.2821164" lon="8.2969052"><ele>479.0</ele><time>2026-03-30T15:12:04.802Z</time></trkpt><trkpt lat="44.2822214" lon="8.2969502"><ele>478.0</ele><time>2026-03-30T15:12:06.8Z</time></trkpt><trkpt lat="44.2823332" lon="8.2970061"><ele>477.0</ele><time>2026-03-30T15:12:08.8Z</time></trkpt><trkpt lat="44.2824457" lon="8.2970414"><ele>476.0</ele><time>2026-03-30T15:12:10.801Z</time></trkpt><trkpt lat="44.2825528" lon="8.2970954"><ele>475.0</ele><time>2026-03-30T15:12:12.801Z</time></trkpt><trkpt lat="44.2826668" lon="8.2971517"><ele>475.00000000000006</ele><time>2026-03-30T15:12:14.8Z</time></trkpt><trkpt lat="44.2827279" lon="8.2971771"><ele>475.0</ele><time>2026-03-30T15:12:15.802Z</time></trkpt><trkpt lat="44.2828472" lon="8.29722"><ele>475.0</ele><time>2026-03-30T15:12:17.801Z</time></trkpt><trkpt lat="44.2829152" lon="8.2972537"><ele>475.0</ele><time>2026-03-30T15:12:18.8Z</time></trkpt><trkpt lat="44.2829845" lon="8.2973004"><ele>475.00000000000006</ele><time>2026-03-30T15:12:19.801Z</time></trkpt><trkpt lat="44.2830568" lon="8.2973238"><ele>475.0</ele><time>2026-03-30T15:12:20.8Z</time></trkpt><trkpt lat="44.283123" lon="8.2973416"><ele>474.7142857142857</ele><time>2026-03-30T15:12:21.801Z</time></trkpt><trkpt lat="44.2831976" lon="8.2973636"><ele>474.42857142857144</ele><time>2026-03-30T15:12:22.8Z</time></trkpt><trkpt lat="44.283263" lon="8.2973852"><ele>474.14285714285717</ele><time>2026-03-30T15:12:23.801Z</time></trkpt><trkpt lat="44.2833283" lon="8.2974044"><ele>473.8571428571429</ele><time>2026-03-30T15:12:24.801Z</time></trkpt><trkpt lat="44.2833981" lon="8.2974256"><ele>473.57142857142856</ele><time>2026-03-30T15:12:25.801Z</time></trkpt><trkpt lat="44.283472" lon="8.2974458"><ele>473.28571428571433</ele><time>2026-03-30T15:12:26.801Z</time></trkpt><trkpt lat="44.2835342" lon="8.2974623"><ele>473.0</ele><time>2026-03-30T15:12:27.801Z</time></trkpt><trkpt lat="44.2835978" lon="8.2974742"><ele>473.0</ele><time>2026-03-30T15:12:28.8Z</time></trkpt><trkpt lat="44.2837221" lon="8.2974909"><ele>473.0</ele><time>2026-03-30T15:12:30.801Z</time></trkpt><trkpt lat="44.2838421" lon="8.2975138"><ele>473.0</ele><time>2026-03-30T15:12:32.801Z</time></trkpt><trkpt lat="44.2839659" lon="8.2975478"><ele>473.0</ele><time>2026-03-30T15:12:34.801Z</time></trkpt><trkpt lat="44.2840787" lon="8.2975862"><ele>472.42857142857144</ele><time>2026-03-30T15:12:36.801Z</time></trkpt><trkpt lat="44.2841422" lon="8.2975987"><ele>471.85714285714283</ele><time>2026-03-30T15:12:37.801Z</time></trkpt><trkpt lat="44.2842057" lon="8.2976258"><ele>471.2857142857143</ele><time>2026-03-30T15:12:38.802Z</time></trkpt><trkpt lat="44.284321" lon="8.2976488"><ele>470.7142857142857</ele><time>2026-03-30T15:12:40.801Z</time></trkpt><trkpt lat="44.2843838" lon="8.2976572"><ele>470.1428571428571</ele><time>2026-03-30T15:12:41.802Z</time></trkpt><trkpt lat="44.2844489" lon="8.2976643"><ele>469.57142857142856</ele><time>2026-03-30T15:12:42.801Z</time></trkpt><trkpt lat="44.2845132" lon="8.2976723"><ele>469.0</ele><time>2026-03-30T15:12:43.802Z</time></trkpt><trkpt lat="44.2845759" lon="8.2976837"><ele>469.00000000000006</ele><time>2026-03-30T15:12:44.8Z</time></trkpt><trkpt lat="44.2846424" lon="8.2976931"><ele>469.0</ele><time>2026-03-30T15:12:45.802Z</time></trkpt><trkpt lat="44.2847705" lon="8.2977118"><ele>469.0</ele><time>2026-03-30T15:12:47.801Z</time></trkpt><trkpt lat="44.2848364" lon="8.297716"><ele>469.0</ele><time>2026-03-30T15:12:48.801Z</time></trkpt><trkpt lat="44.2849022" lon="8.297714"><ele>469.00000000000006</ele><time>2026-03-30T15:12:49.802Z</time></trkpt><trkpt lat="44.2849672" lon="8.2977135"><ele>469.0</ele><time>2026-03-30T15:12:50.8Z</time></trkpt><trkpt lat="44.2850309" lon="8.2977109"><ele>469.00000000000006</ele><time>2026-03-30T15:12:51.802Z</time></trkpt><trkpt lat="44.2850961" lon="8.297719"><ele>469.0</ele><time>2026-03-30T15:12:52.802Z</time></trkpt><trkpt lat="44.2852221" lon="8.2977307"><ele>469.0</ele><time>2026-03-30T15:12:54.801Z</time></trkpt><trkpt lat="44.2853426" lon="8.2977353"><ele>469.0</ele><time>2026-03-30T15:12:56.802Z</time></trkpt><trkpt lat="44.285407" lon="8.2977377"><ele>469.00000000000006</ele><time>2026-03-30T15:12:57.802Z</time></trkpt><trkpt lat="44.2854721" lon="8.2977356"><ele>469.0</ele><time>2026-03-30T15:12:58.801Z</time></trkpt><trkpt lat="44.2855998" lon="8.2977388"><ele>468.5</ele><time>2026-03-30T15:13:00.801Z</time></trkpt><trkpt lat="44.2857269" lon="8.2977509"><ele>468.0</ele><time>2026-03-30T15:13:02.801Z</time></trkpt><trkpt lat="44.285851" lon="8.2977371"><ele>467.5</ele><time>2026-03-30T15:13:04.801Z</time></trkpt><trkpt lat="44.2859722" lon="8.2977333"><ele>467.0</ele><time>2026-03-30T15:13:06.801Z</time></trkpt><trkpt lat="44.286089" lon="8.2977296"><ele>467.0</ele><time>2026-03-30T15:13:08.8Z</time></trkpt><trkpt lat="44.2862003" lon="8.2977283"><ele>467.00000000000006</ele><time>2026-03-30T15:13:10.8Z</time></trkpt><trkpt lat="44.2863177" lon="8.2977311"><ele>467.00000000000006</ele><time>2026-03-30T15:13:12.803Z</time></trkpt><trkpt lat="44.2864392" lon="8.2977213"><ele>467.0</ele><time>2026-03-30T15:13:14.801Z</time></trkpt><trkpt lat="44.2865065" lon="8.2977198"><ele>467.0</ele><time>2026-03-30T15:13:15.802Z</time></trkpt><trkpt lat="44.2865737" lon="8.2977168"><ele>466.6</ele><time>2026-03-30T15:13:16.8Z</time></trkpt><trkpt lat="44.2866398" lon="8.2977141"><ele>466.20000000000005</ele><time>2026-03-30T15:13:17.8Z</time></trkpt><trkpt lat="44.2867061" lon="8.2977135"><ele>465.8</ele><time>2026-03-30T15:13:18.801Z</time></trkpt><trkpt lat="44.2867709" lon="8.2977132"><ele>465.4</ele><time>2026-03-30T15:13:19.802Z</time></trkpt><trkpt lat="44.2868986" lon="8.2977161"><ele>465.0</ele><time>2026-03-30T15:13:21.801Z</time></trkpt><trkpt lat="44.2870271" lon="8.2977199"><ele>465.0</ele><time>2026-03-30T15:13:23.801Z</time></trkpt><trkpt lat="44.2870911" lon="8.2977277"><ele>465.0</ele><time>2026-03-30T15:13:24.801Z</time></trkpt><trkpt lat="44.2872136" lon="8.2977197"><ele>465.0</ele><time>2026-03-30T15:13:26.8Z</time></trkpt><trkpt lat="44.287336" lon="8.297707"><ele>465.0</ele><time>2026-03-30T15:13:28.801Z</time></trkpt><trkpt lat="44.2874602" lon="8.2977088"><ele>465.0</ele><time>2026-03-30T15:13:30.802Z</time></trkpt><trkpt lat="44.2875242" lon="8.2977074"><ele>464.5</ele><time>2026-03-30T15:13:31.801Z</time></trkpt><trkpt lat="44.2875882" lon="8.2976998"><ele>464.0</ele><time>2026-03-30T15:13:32.801Z</time></trkpt><trkpt lat="44.2876542" lon="8.2976934"><ele>463.5</ele><time>2026-03-30T15:13:33.8Z</time></trkpt><trkpt lat="44.2877221" lon="8.2976908"><ele>463.0</ele><time>2026-03-30T15:13:34.8Z</time></trkpt><trkpt lat="44.2877916" lon="8.2976913"><ele>462.5</ele><time>2026-03-30T15:13:35.8Z</time></trkpt><trkpt lat="44.2878579" lon="8.2976874"><ele>462.0</ele><time>2026-03-30T15:13:36.803Z</time></trkpt><trkpt lat="44.2879845" lon="8.2976737"><ele>461.8</ele><time>2026-03-30T15:13:38.802Z</time></trkpt><trkpt lat="44.2881103" lon="8.2976548"><ele>461.6</ele><time>2026-03-30T15:13:40.801Z</time></trkpt><trkpt lat="44.2882369" lon="8.2976451"><ele>461.40000000000003</ele><time>2026-03-30T15:13:42.8Z</time></trkpt><trkpt lat="44.2883623" lon="8.2976298"><ele>461.20000000000005</ele><time>2026-03-30T15:13:44.801Z</time></trkpt><trkpt lat="44.288425" lon="8.297621"><ele>461.0</ele><time>2026-03-30T15:13:45.801Z</time></trkpt><trkpt lat="44.2884885" lon="8.2976148"><ele>460.99999999999994</ele><time>2026-03-30T15:13:46.8Z</time></trkpt><trkpt lat="44.2885537" lon="8.2976114"><ele>461.0</ele><time>2026-03-30T15:13:47.8Z</time></trkpt><trkpt lat="44.2886171" lon="8.2976063"><ele>461.0</ele><time>2026-03-30T15:13:48.8Z</time></trkpt><trkpt lat="44.2886822" lon="8.2975977"><ele>461.0</ele><time>2026-03-30T15:13:49.8Z</time></trkpt><trkpt lat="44.2887472" lon="8.2975852"><ele>460.99999999999994</ele><time>2026-03-30T15:13:50.801Z</time></trkpt><trkpt lat="44.2888543" lon="8.2975901"><ele>461.0</ele><time>2026-03-30T15:13:52.801Z</time></trkpt><trkpt lat="44.2889035" lon="8.2977044"><ele>461.0</ele><time>2026-03-30T15:13:54.801Z</time></trkpt><trkpt lat="44.288899" lon="8.2978433"><ele>461.0</ele><time>2026-03-30T15:13:56.802Z</time></trkpt><trkpt lat="44.2888865" lon="8.2979972"><ele>461.0</ele><time>2026-03-30T15:13:58.801Z</time></trkpt><trkpt lat="44.2888923" lon="8.2981654"><ele>461.0</ele><time>2026-03-30T15:14:00.801Z</time></trkpt><trkpt lat="44.2889215" lon="8.2982482"><ele>461.0</ele><time>2026-03-30T15:14:01.801Z</time></trkpt><trkpt lat="44.2889717" lon="8.2983172"><ele>460.8333333333333</ele><time>2026-03-30T15:14:02.803Z</time></trkpt><trkpt lat="44.2890243" lon="8.2983734"><ele>460.66666666666663</ele><time>2026-03-30T15:14:03.8Z</time></trkpt><trkpt lat="44.2891282" lon="8.298473"><ele>460.5</ele><time>2026-03-30T15:14:05.801Z</time></trkpt><trkpt lat="44.2891917" lon="8.298504"><ele>460.33333333333337</ele><time>2026-03-30T15:14:06.801Z</time></trkpt><trkpt lat="44.2892572" lon="8.2985149"><ele>460.1666666666667</ele><time>2026-03-30T15:14:07.802Z</time></trkpt><trkpt lat="44.2893225" lon="8.2985117"><ele>460.0</ele><time>2026-03-30T15:14:08.801Z</time></trkpt><trkpt lat="44.2893877" lon="8.2985172"><ele>459.99999999999994</ele><time>2026-03-30T15:14:09.8Z</time></trkpt><trkpt lat="44.2894541" lon="8.2985128"><ele>460.0</ele><time>2026-03-30T15:14:10.801Z</time></trkpt><trkpt lat="44.2895212" lon="8.2985023"><ele>459.99999999999994</ele><time>2026-03-30T15:14:11.801Z</time></trkpt><trkpt lat="44.2895883" lon="8.2984832"><ele>459.99999999999994</ele><time>2026-03-30T15:14:12.8Z</time></trkpt><trkpt lat="44.2896552" lon="8.2984754"><ele>460.0</ele><time>2026-03-30T15:14:13.801Z</time></trkpt><trkpt lat="44.2897176" lon="8.2984624"><ele>459.99999999999994</ele><time>2026-03-30T15:14:14.8Z</time></trkpt><trkpt lat="44.2897813" lon="8.2984594"><ele>459.99999999999994</ele><time>2026-03-30T15:14:15.8Z</time></trkpt><trkpt lat="44.2899002" lon="8.2984559"><ele>459.8</ele><time>2026-03-30T15:14:17.801Z</time></trkpt><trkpt lat="44.2900103" lon="8.2984426"><ele>459.6</ele><time>2026-03-30T15:14:19.802Z</time></trkpt><trkpt lat="44.2901167" lon="8.2984312"><ele>459.4</ele><time>2026-03-30T15:14:21.8Z</time></trkpt><trkpt lat="44.2902127" lon="8.2984193"><ele>459.2</ele><time>2026-03-30T15:14:23.8Z</time></trkpt><trkpt lat="44.2903126" lon="8.2983938"><ele>459.0</ele><time>2026-03-30T15:14:25.801Z</time></trkpt><trkpt lat="44.2904116" lon="8.2983544"><ele>459.0</ele><time>2026-03-30T15:14:27.8Z</time></trkpt><trkpt lat="44.2904961" lon="8.298306"><ele>459.0</ele><time>2026-03-30T15:14:29.801Z</time></trkpt><trkpt lat="44.2905749" lon="8.2982321"><ele>459.0</ele><time>2026-03-30T15:14:31.801Z</time></trkpt><trkpt lat="44.2906581" lon="8.2981714"><ele>459.0</ele><time>2026-03-30T15:14:33.802Z</time></trkpt><trkpt lat="44.2907318" lon="8.2981577"><ele>459.0</ele><time>2026-03-30T15:14:35.801Z</time></trkpt><trkpt lat="44.2907855" lon="8.2982304"><ele>459.0</ele><time>2026-03-30T15:14:38.802Z</time></trkpt><trkpt lat="44.290805" lon="8.2983277"><ele>458.6</ele><time>2026-03-30T15:14:40.802Z</time></trkpt><trkpt lat="44.290829" lon="8.2984236"><ele>458.2</ele><time>2026-03-30T15:14:42.801Z</time></trkpt><trkpt lat="44.2908707" lon="8.2985629"><ele>457.80000000000007</ele><time>2026-03-30T15:14:44.8Z</time></trkpt><trkpt lat="44.2909227" lon="8.2986981"><ele>457.40000000000003</ele><time>2026-03-30T15:14:46.802Z</time></trkpt><trkpt lat="44.2909914" lon="8.2988275"><ele>457.0</ele><time>2026-03-30T15:14:48.801Z</time></trkpt><trkpt lat="44.2910909" lon="8.2989584"><ele>457.8</ele><time>2026-03-30T15:14:50.801Z</time></trkpt><trkpt lat="44.2911411" lon="8.2990142"><ele>458.6</ele><time>2026-03-30T15:14:51.801Z</time></trkpt><trkpt lat="44.2912352" lon="8.2991273"><ele>459.40000000000003</ele><time>2026-03-30T15:14:53.8Z</time></trkpt><trkpt lat="44.2913291" lon="8.2992337"><ele>460.20000000000005</ele><time>2026-03-30T15:14:55.8Z</time></trkpt><trkpt lat="44.2914363" lon="8.2993185"><ele>461.0</ele><time>2026-03-30T15:14:57.802Z</time></trkpt><trkpt lat="44.2915507" lon="8.2993693"><ele>460.99999999999994</ele><time>2026-03-30T15:14:59.801Z</time></trkpt><trkpt lat="44.2916681" lon="8.2993968"><ele>461.0</ele><time>2026-03-30T15:15:01.801Z</time></trkpt><trkpt lat="44.291731" lon="8.2994017"><ele>461.0</ele><time>2026-03-30T15:15:02.801Z</time></trkpt><trkpt lat="44.2917945" lon="8.2994061"><ele>461.0</ele><time>2026-03-30T15:15:03.8Z</time></trkpt><trkpt lat="44.2918586" lon="8.299408"><ele>460.99999999999994</ele><time>2026-03-30T15:15:04.802Z</time></trkpt><trkpt lat="44.2919246" lon="8.2994101"><ele>461.0</ele><time>2026-03-30T15:15:05.802Z</time></trkpt><trkpt lat="44.2920383" lon="8.2994124"><ele>461.0</ele><time>2026-03-30T15:15:07.802Z</time></trkpt><trkpt lat="44.2921424" lon="8.2993984"><ele>461.0</ele><time>2026-03-30T15:15:09.801Z</time></trkpt><trkpt lat="44.2922397" lon="8.2993929"><ele>461.0</ele><time>2026-03-30T15:15:11.8Z</time></trkpt><trkpt lat="44.2923356" lon="8.2993878"><ele>461.0</ele><time>2026-03-30T15:15:13.802Z</time></trkpt><trkpt lat="44.2924349" lon="8.2993795"><ele>461.0</ele><time>2026-03-30T15:15:15.801Z</time></trkpt><trkpt lat="44.2925278" lon="8.2993804"><ele>460.66666666666663</ele><time>2026-03-30T15:15:17.802Z</time></trkpt><trkpt lat="44.2926225" lon="8.2993852"><ele>460.3333333333333</ele><time>2026-03-30T15:15:19.8Z</time></trkpt><trkpt lat="44.292701" lon="8.299371"><ele>460.0</ele><time>2026-03-30T15:15:21.8Z</time></trkpt><trkpt lat="44.2927822" lon="8.2993803"><ele>459.66666666666663</ele><time>2026-03-30T15:15:23.801Z</time></trkpt><trkpt lat="44.2928512" lon="8.2993985"><ele>459.3333333333333</ele><time>2026-03-30T15:15:25.802Z</time></trkpt><trkpt lat="44.2929227" lon="8.2994403"><ele>459.0</ele><time>2026-03-30T15:15:27.801Z</time></trkpt><trkpt lat="44.2929962" lon="8.2994815"><ele>459.0</ele><time>2026-03-30T15:15:29.801Z</time></trkpt><trkpt lat="44.2930757" lon="8.2995344"><ele>459.0</ele><time>2026-03-30T15:15:31.802Z</time></trkpt><trkpt lat="44.2931512" lon="8.2996286"><ele>459.0</ele><time>2026-03-30T15:15:33.801Z</time></trkpt><trkpt lat="44.293225" lon="8.2997216"><ele>459.0</ele><time>2026-03-30T15:15:35.8Z</time></trkpt><trkpt lat="44.2932864" lon="8.2998316"><ele>459.0</ele><time>2026-03-30T15:15:37.802Z</time></trkpt><trkpt lat="44.2933624" lon="8.2999501"><ele>459.0</ele><time>2026-03-30T15:15:39.801Z</time></trkpt><trkpt lat="44.2933961" lon="8.3000263"><ele>459.0</ele><time>2026-03-30T15:15:40.801Z</time></trkpt><trkpt lat="44.2934567" lon="8.3001622"><ele>459.0</ele><time>2026-03-30T15:15:42.801Z</time></trkpt><trkpt lat="44.293519" lon="8.3002879"><ele>459.0</ele><time>2026-03-30T15:15:44.801Z</time></trkpt><trkpt lat="44.2935853" lon="8.3004057"><ele>459.0</ele><time>2026-03-30T15:15:46.8Z</time></trkpt><trkpt lat="44.2936562" lon="8.3005072"><ele>458.2</ele><time>2026-03-30T15:15:48.801Z</time></trkpt><trkpt lat="44.2937178" lon="8.3006317"><ele>457.4</ele><time>2026-03-30T15:15:50.802Z</time></trkpt><trkpt lat="44.2937763" lon="8.3007585"><ele>456.6</ele><time>2026-03-30T15:15:52.8Z</time></trkpt><trkpt lat="44.2938478" lon="8.3008962"><ele>455.8</ele><time>2026-03-30T15:15:54.802Z</time></trkpt><trkpt lat="44.2939128" lon="8.301014"><ele>455.0</ele><time>2026-03-30T15:15:56.801Z</time></trkpt><trkpt lat="44.2939728" lon="8.3011329"><ele>455.0</ele><time>2026-03-30T15:15:58.801Z</time></trkpt><trkpt lat="44.2940506" lon="8.3012491"><ele>455.0</ele><time>2026-03-30T15:16:00.802Z</time></trkpt><trkpt lat="44.2941286" lon="8.3013601"><ele>455.0</ele><time>2026-03-30T15:16:02.801Z</time></trkpt><trkpt lat="44.2942255" lon="8.3014443"><ele>455.0</ele><time>2026-03-30T15:16:04.801Z</time></trkpt><trkpt lat="44.2943239" lon="8.3015119"><ele>455.0</ele><time>2026-03-30T15:16:06.801Z</time></trkpt><trkpt lat="44.2944234" lon="8.3015757"><ele>455.0</ele><time>2026-03-30T15:16:08.801Z</time></trkpt><trkpt lat="44.2945333" lon="8.3016398"><ele>455.0</ele><time>2026-03-30T15:16:10.801Z</time></trkpt><trkpt lat="44.2946272" lon="8.3017225"><ele>455.0</ele><time>2026-03-30T15:16:12.802Z</time></trkpt><trkpt lat="44.2947161" lon="8.3018236"><ele>455.0</ele><time>2026-03-30T15:16:14.8Z</time></trkpt><trkpt lat="44.2948028" lon="8.3019105"><ele>455.0</ele><time>2026-03-30T15:16:16.801Z</time></trkpt><trkpt lat="44.2948836" lon="8.301994"><ele>455.0</ele><time>2026-03-30T15:16:18.802Z</time></trkpt><trkpt lat="44.2949727" lon="8.3020861"><ele>455.0</ele><time>2026-03-30T15:16:20.801Z</time></trkpt><trkpt lat="44.2950558" lon="8.302155"><ele>455.0</ele><time>2026-03-30T15:16:22.801Z</time></trkpt><trkpt lat="44.2951558" lon="8.3022103"><ele>455.0</ele><time>2026-03-30T15:16:24.802Z</time></trkpt><trkpt lat="44.2952546" lon="8.302251"><ele>455.4</ele><time>2026-03-30T15:16:26.801Z</time></trkpt><trkpt lat="44.2953623" lon="8.3022678"><ele>455.8</ele><time>2026-03-30T15:16:28.801Z</time></trkpt><trkpt lat="44.2954674" lon="8.3022842"><ele>456.20000000000005</ele><time>2026-03-30T15:16:30.801Z</time></trkpt><trkpt lat="44.2955747" lon="8.3022884"><ele>456.6</ele><time>2026-03-30T15:16:32.801Z</time></trkpt><trkpt lat="44.2956804" lon="8.3022918"><ele>457.0</ele><time>2026-03-30T15:16:34.801Z</time></trkpt><trkpt lat="44.2957954" lon="8.302314"><ele>457.0</ele><time>2026-03-30T15:16:36.801Z</time></trkpt><trkpt lat="44.2959012" lon="8.3023556"><ele>457.0</ele><time>2026-03-30T15:16:38.801Z</time></trkpt><trkpt lat="44.2959899" lon="8.3024691"><ele>457.0</ele><time>2026-03-30T15:16:40.8Z</time></trkpt><trkpt lat="44.2960844" lon="8.3025478"><ele>457.0</ele><time>2026-03-30T15:16:42.801Z</time></trkpt><trkpt lat="44.2961824" lon="8.3026402"><ele>457.00000000000006</ele><time>2026-03-30T15:16:44.8Z</time></trkpt><trkpt lat="44.2962744" lon="8.3027317"><ele>457.0</ele><time>2026-03-30T15:16:46.802Z</time></trkpt><trkpt lat="44.2963772" lon="8.3028204"><ele>457.0</ele><time>2026-03-30T15:16:48.802Z</time></trkpt><trkpt lat="44.2964278" lon="8.302875"><ele>457.0</ele><time>2026-03-30T15:16:49.801Z</time></trkpt><trkpt lat="44.2964815" lon="8.3029288"><ele>457.00000000000006</ele><time>2026-03-30T15:16:50.8Z</time></trkpt><trkpt lat="44.2965366" lon="8.3029798"><ele>457.0</ele><time>2026-03-30T15:16:51.802Z</time></trkpt><trkpt lat="44.2965924" lon="8.3030326"><ele>457.00000000000006</ele><time>2026-03-30T15:16:52.8Z</time></trkpt><trkpt lat="44.2966494" lon="8.3030851"><ele>457.0</ele><time>2026-03-30T15:16:53.801Z</time></trkpt><trkpt lat="44.2967029" lon="8.3031434"><ele>457.00000000000006</ele><time>2026-03-30T15:16:54.801Z</time></trkpt><trkpt lat="44.2967612" lon="8.3031998"><ele>457.00000000000006</ele><time>2026-03-30T15:16:55.801Z</time></trkpt><trkpt lat="44.2968209" lon="8.3032538"><ele>457.0</ele><time>2026-03-30T15:16:56.801Z</time></trkpt><trkpt lat="44.296881" lon="8.3033167"><ele>457.00000000000006</ele><time>2026-03-30T15:16:57.802Z</time></trkpt><trkpt lat="44.2969353" lon="8.3033659"><ele>457.00000000000006</ele><time>2026-03-30T15:16:58.801Z</time></trkpt><trkpt lat="44.2969987" lon="8.3034206"><ele>457.00000000000006</ele><time>2026-03-30T15:16:59.802Z</time></trkpt><trkpt lat="44.2970593" lon="8.3034778"><ele>457.0</ele><time>2026-03-30T15:17:00.801Z</time></trkpt><trkpt lat="44.2971198" lon="8.3035393"><ele>457.00000000000006</ele><time>2026-03-30T15:17:01.801Z</time></trkpt><trkpt lat="44.2971742" lon="8.3035971"><ele>457.00000000000006</ele><time>2026-03-30T15:17:02.8Z</time></trkpt><trkpt lat="44.2972252" lon="8.3036493"><ele>457.0</ele><time>2026-03-30T15:17:03.803Z</time></trkpt><trkpt lat="44.2972802" lon="8.3037072"><ele>457.00000000000006</ele><time>2026-03-30T15:17:04.801Z</time></trkpt><trkpt lat="44.2973328" lon="8.3037581"><ele>457.00000000000006</ele><time>2026-03-30T15:17:05.801Z</time></trkpt><trkpt lat="44.2973875" lon="8.3038064"><ele>457.0</ele><time>2026-03-30T15:17:06.8Z</time></trkpt><trkpt lat="44.2974474" lon="8.3038521"><ele>457.00000000000006</ele><time>2026-03-30T15:17:07.801Z</time></trkpt><trkpt lat="44.297507" lon="8.3038972"><ele>457.00000000000006</ele><time>2026-03-30T15:17:08.802Z</time></trkpt><trkpt lat="44.297615" lon="8.3039947"><ele>457.0</ele><time>2026-03-30T15:17:10.8Z</time></trkpt><trkpt lat="44.2977336" lon="8.3040465"><ele>457.0</ele><time>2026-03-30T15:17:12.801Z</time></trkpt><trkpt lat="44.2978484" lon="8.3040971"><ele>457.0</ele><time>2026-03-30T15:17:14.802Z</time></trkpt><trkpt lat="44.2979738" lon="8.304106"><ele>457.0</ele><time>2026-03-30T15:17:16.8Z</time></trkpt><trkpt lat="44.2980832" lon="8.3040866"><ele>457.0</ele><time>2026-03-30T15:17:18.802Z</time></trkpt><trkpt lat="44.2981987" lon="8.3040533"><ele>457.0</ele><time>2026-03-30T15:17:20.802Z</time></trkpt><trkpt lat="44.2983169" lon="8.3040243"><ele>456.8571428571429</ele><time>2026-03-30T15:17:22.801Z</time></trkpt><trkpt lat="44.2983803" lon="8.3040097"><ele>456.7142857142857</ele><time>2026-03-30T15:17:23.8Z</time></trkpt><trkpt lat="44.2984454" lon="8.3039986"><ele>456.57142857142856</ele><time>2026-03-30T15:17:24.801Z</time></trkpt><trkpt lat="44.2985133" lon="8.3039849"><ele>456.42857142857144</ele><time>2026-03-30T15:17:25.801Z</time></trkpt><trkpt lat="44.2985821" lon="8.3039794"><ele>456.2857142857142</ele><time>2026-03-30T15:17:26.8Z</time></trkpt><trkpt lat="44.2986487" lon="8.3039898"><ele>456.1428571428571</ele><time>2026-03-30T15:17:27.802Z</time></trkpt><trkpt lat="44.2987124" lon="8.3039904"><ele>456.0</ele><time>2026-03-30T15:17:28.801Z</time></trkpt><trkpt lat="44.2987791" lon="8.3039943"><ele>456.0</ele><time>2026-03-30T15:17:29.8Z</time></trkpt><trkpt lat="44.2988451" lon="8.303997"><ele>455.99999999999994</ele><time>2026-03-30T15:17:30.801Z</time></trkpt><trkpt lat="44.2989112" lon="8.3039872"><ele>456.0</ele><time>2026-03-30T15:17:31.801Z</time></trkpt><trkpt lat="44.2989769" lon="8.3039745"><ele>456.0</ele><time>2026-03-30T15:17:32.8Z</time></trkpt><trkpt lat="44.2990428" lon="8.3039736"><ele>455.99999999999994</ele><time>2026-03-30T15:17:33.8Z</time></trkpt><trkpt lat="44.2991097" lon="8.3039684"><ele>456.0</ele><time>2026-03-30T15:17:34.8Z</time></trkpt><trkpt lat="44.2991787" lon="8.3039556"><ele>456.0</ele><time>2026-03-30T15:17:35.802Z</time></trkpt><trkpt lat="44.2992486" lon="8.3039335"><ele>454.5</ele><time>2026-03-30T15:17:36.801Z</time></trkpt><trkpt lat="44.2993185" lon="8.3039113"><ele>453.0</ele><time>2026-03-30T15:17:37.803Z</time></trkpt><trkpt lat="44.2993864" lon="8.3038781"><ele>451.5</ele><time>2026-03-30T15:17:38.802Z</time></trkpt><trkpt lat="44.2994518" lon="8.3038467"><ele>450.0</ele><time>2026-03-30T15:17:39.8Z</time></trkpt><trkpt lat="44.2995146" lon="8.3038147"><ele>448.5</ele><time>2026-03-30T15:17:40.801Z</time></trkpt><trkpt lat="44.2995733" lon="8.3037786"><ele>447.0</ele><time>2026-03-30T15:17:41.8Z</time></trkpt><trkpt lat="44.2996876" lon="8.3037348"><ele>446.6</ele><time>2026-03-30T15:17:43.801Z</time></trkpt><trkpt lat="44.2998089" lon="8.3037423"><ele>446.20000000000005</ele><time>2026-03-30T15:17:45.802Z</time></trkpt><trkpt lat="44.2999293" lon="8.3037783"><ele>445.8</ele><time>2026-03-30T15:17:47.8Z</time></trkpt><trkpt lat="44.2999919" lon="8.303797"><ele>445.4</ele><time>2026-03-30T15:17:48.801Z</time></trkpt><trkpt lat="44.3001134" lon="8.3038199"><ele>445.0</ele><time>2026-03-30T15:17:50.801Z</time></trkpt><trkpt lat="44.3002392" lon="8.3038418"><ele>445.0</ele><time>2026-03-30T15:17:52.801Z</time></trkpt><trkpt lat="44.3003038" lon="8.3038523"><ele>445.0</ele><time>2026-03-30T15:17:53.802Z</time></trkpt><trkpt lat="44.300427" lon="8.3038532"><ele>445.0</ele><time>2026-03-30T15:17:55.801Z</time></trkpt><trkpt lat="44.3004899" lon="8.3038478"><ele>445.0</ele><time>2026-03-30T15:17:56.8Z</time></trkpt><trkpt lat="44.3006106" lon="8.3038132"><ele>445.0</ele><time>2026-03-30T15:17:58.801Z</time></trkpt><trkpt lat="44.3007244" lon="8.3037846"><ele>445.6</ele><time>2026-03-30T15:18:00.801Z</time></trkpt><trkpt lat="44.3007863" lon="8.303762"><ele>446.2</ele><time>2026-03-30T15:18:01.801Z</time></trkpt><trkpt lat="44.300901" lon="8.3037046"><ele>446.79999999999995</ele><time>2026-03-30T15:18:03.801Z</time></trkpt><trkpt lat="44.3010056" lon="8.3036447"><ele>447.4</ele><time>2026-03-30T15:18:05.802Z</time></trkpt><trkpt lat="44.3011144" lon="8.3035608"><ele>448.0</ele><time>2026-03-30T15:18:07.801Z</time></trkpt><trkpt lat="44.3012275" lon="8.3034904"><ele>448.0</ele><time>2026-03-30T15:18:09.801Z</time></trkpt><trkpt lat="44.3012882" lon="8.3034655"><ele>447.99999999999994</ele><time>2026-03-30T15:18:10.801Z</time></trkpt><trkpt lat="44.3014053" lon="8.3034425"><ele>447.99999999999994</ele><time>2026-03-30T15:18:12.801Z</time></trkpt><trkpt lat="44.3015143" lon="8.3034672"><ele>448.0</ele><time>2026-03-30T15:18:14.8Z</time></trkpt><trkpt lat="44.3016222" lon="8.303493"><ele>448.0</ele><time>2026-03-30T15:18:16.802Z</time></trkpt><trkpt lat="44.3017315" lon="8.3035117"><ele>448.2</ele><time>2026-03-30T15:18:18.801Z</time></trkpt><trkpt lat="44.301836" lon="8.3035339"><ele>448.4</ele><time>2026-03-30T15:18:20.801Z</time></trkpt><trkpt lat="44.3019384" lon="8.3035571"><ele>448.59999999999997</ele><time>2026-03-30T15:18:22.8Z</time></trkpt><trkpt lat="44.302033" lon="8.3035524"><ele>448.79999999999995</ele><time>2026-03-30T15:18:24.801Z</time></trkpt><trkpt lat="44.3021247" lon="8.3035212"><ele>449.0</ele><time>2026-03-30T15:18:26.8Z</time></trkpt><trkpt lat="44.3022171" lon="8.3034731"><ele>448.4</ele><time>2026-03-30T15:18:28.801Z</time></trkpt><trkpt lat="44.3022908" lon="8.3033944"><ele>447.79999999999995</ele><time>2026-03-30T15:18:30.8Z</time></trkpt><trkpt lat="44.3023738" lon="8.3033155"><ele>447.20000000000005</ele><time>2026-03-30T15:18:32.801Z</time></trkpt><trkpt lat="44.3024595" lon="8.303225"><ele>446.6</ele><time>2026-03-30T15:18:34.8Z</time></trkpt><trkpt lat="44.3025387" lon="8.3031219"><ele>446.0</ele><time>2026-03-30T15:18:36.801Z</time></trkpt><trkpt lat="44.3026063" lon="8.3030228"><ele>446.0</ele><time>2026-03-30T15:18:38.802Z</time></trkpt><trkpt lat="44.3026708" lon="8.3029094"><ele>446.0</ele><time>2026-03-30T15:18:40.801Z</time></trkpt><trkpt lat="44.3027259" lon="8.3028036"><ele>446.0</ele><time>2026-03-30T15:18:42.801Z</time></trkpt><trkpt lat="44.3027799" lon="8.3026841"><ele>446.0</ele><time>2026-03-30T15:18:44.801Z</time></trkpt><trkpt lat="44.3028248" lon="8.3025828"><ele>446.0</ele><time>2026-03-30T15:18:46.801Z</time></trkpt><trkpt lat="44.3028527" lon="8.3024713"><ele>446.0</ele><time>2026-03-30T15:18:48.8Z</time></trkpt><trkpt lat="44.302888" lon="8.3023574"><ele>446.0</ele><time>2026-03-30T15:18:50.802Z</time></trkpt><trkpt lat="44.3029276" lon="8.3022335"><ele>446.0</ele><time>2026-03-30T15:18:52.802Z</time></trkpt><trkpt lat="44.3029719" lon="8.3021227"><ele>446.0</ele><time>2026-03-30T15:18:54.801Z</time></trkpt><trkpt lat="44.3030099" lon="8.3019956"><ele>446.0</ele><time>2026-03-30T15:18:56.801Z</time></trkpt><trkpt lat="44.3030537" lon="8.3018745"><ele>445.4</ele><time>2026-03-30T15:18:58.801Z</time></trkpt><trkpt lat="44.3031012" lon="8.3017566"><ele>444.8</ele><time>2026-03-30T15:19:00.801Z</time></trkpt><trkpt lat="44.3031267" lon="8.3016348"><ele>444.19999999999993</ele><time>2026-03-30T15:19:02.801Z</time></trkpt><trkpt lat="44.3031532" lon="8.3015149"><ele>443.59999999999997</ele><time>2026-03-30T15:19:04.801Z</time></trkpt><trkpt lat="44.3032123" lon="8.3014074"><ele>443.0</ele><time>2026-03-30T15:19:06.801Z</time></trkpt><trkpt lat="44.3032844" lon="8.3013531"><ele>442.99999999999994</ele><time>2026-03-30T15:19:08.801Z</time></trkpt><trkpt lat="44.3033636" lon="8.3013472"><ele>443.0</ele><time>2026-03-30T15:19:10.801Z</time></trkpt><trkpt lat="44.3034456" lon="8.3013686"><ele>443.0</ele><time>2026-03-30T15:19:12.8Z</time></trkpt><trkpt lat="44.3035287" lon="8.3013925"><ele>443.0</ele><time>2026-03-30T15:19:14.801Z</time></trkpt><trkpt lat="44.3036081" lon="8.3014231"><ele>442.99999999999994</ele><time>2026-03-30T15:19:16.801Z</time></trkpt><trkpt lat="44.3036887" lon="8.3014582"><ele>443.0</ele><time>2026-03-30T15:19:18.802Z</time></trkpt><trkpt lat="44.3037763" lon="8.3015088"><ele>444.8333333333333</ele><time>2026-03-30T15:19:20.801Z</time></trkpt><trkpt lat="44.3038614" lon="8.3015238"><ele>446.66666666666663</ele><time>2026-03-30T15:19:22.801Z</time></trkpt><trkpt lat="44.3039479" lon="8.3015347"><ele>448.5</ele><time>2026-03-30T15:19:24.801Z</time></trkpt><trkpt lat="44.3040294" lon="8.3015489"><ele>450.33333333333337</ele><time>2026-03-30T15:19:26.802Z</time></trkpt><trkpt lat="44.3041137" lon="8.3015524"><ele>452.1666666666667</ele><time>2026-03-30T15:19:28.802Z</time></trkpt><trkpt lat="44.3041987" lon="8.30157"><ele>454.0</ele><time>2026-03-30T15:19:30.802Z</time></trkpt><trkpt lat="44.3042879" lon="8.3015823"><ele>455.0</ele><time>2026-03-30T15:19:32.801Z</time></trkpt><trkpt lat="44.3043795" lon="8.3016276"><ele>456.0</ele><time>2026-03-30T15:19:34.801Z</time></trkpt><trkpt lat="44.3044709" lon="8.3016825"><ele>457.0</ele><time>2026-03-30T15:19:36.802Z</time></trkpt><trkpt lat="44.3045562" lon="8.3017769"><ele>458.0</ele><time>2026-03-30T15:19:38.801Z</time></trkpt><trkpt lat="44.3046136" lon="8.3018967"><ele>459.0</ele><time>2026-03-30T15:19:40.802Z</time></trkpt><trkpt lat="44.3046736" lon="8.3020327"><ele>459.0</ele><time>2026-03-30T15:19:42.8Z</time></trkpt><trkpt lat="44.3047179" lon="8.3021127"><ele>459.0</ele><time>2026-03-30T15:19:43.8Z</time></trkpt><trkpt lat="44.3047616" lon="8.3021941"><ele>459.0</ele><time>2026-03-30T15:19:44.8Z</time></trkpt><trkpt lat="44.3048" lon="8.3022699"><ele>459.0</ele><time>2026-03-30T15:19:45.8Z</time></trkpt><trkpt lat="44.3048367" lon="8.302345"><ele>459.0</ele><time>2026-03-30T15:19:46.801Z</time></trkpt><trkpt lat="44.3049038" lon="8.3024665"><ele>459.0</ele><time>2026-03-30T15:19:48.801Z</time></trkpt><trkpt lat="44.3049734" lon="8.302583"><ele>458.2</ele><time>2026-03-30T15:19:50.8Z</time></trkpt><trkpt lat="44.3050571" lon="8.302704"><ele>457.4</ele><time>2026-03-30T15:19:52.801Z</time></trkpt><trkpt lat="44.3051255" lon="8.3028177"><ele>456.6</ele><time>2026-03-30T15:19:54.801Z</time></trkpt><trkpt lat="44.3052059" lon="8.3029216"><ele>455.8</ele><time>2026-03-30T15:19:56.8Z</time></trkpt><trkpt lat="44.3052843" lon="8.3030092"><ele>455.0</ele><time>2026-03-30T15:19:58.8Z</time></trkpt><trkpt lat="44.3053611" lon="8.3031043"><ele>454.8</ele><time>2026-03-30T15:20:00.802Z</time></trkpt><trkpt lat="44.3054421" lon="8.3031975"><ele>454.6</ele><time>2026-03-30T15:20:02.801Z</time></trkpt><trkpt lat="44.3055213" lon="8.3032973"><ele>454.4</ele><time>2026-03-30T15:20:04.8Z</time></trkpt><trkpt lat="44.3055656" lon="8.303362"><ele>454.2</ele><time>2026-03-30T15:20:05.801Z</time></trkpt><trkpt lat="44.3056386" lon="8.3034616"><ele>454.0</ele><time>2026-03-30T15:20:07.801Z</time></trkpt><trkpt lat="44.305714" lon="8.3035633"><ele>454.0</ele><time>2026-03-30T15:20:09.801Z</time></trkpt><trkpt lat="44.3057909" lon="8.3036586"><ele>454.0</ele><time>2026-03-30T15:20:11.8Z</time></trkpt><trkpt lat="44.3058583" lon="8.3037592"><ele>454.0</ele><time>2026-03-30T15:20:13.801Z</time></trkpt><trkpt lat="44.3059583" lon="8.3038491"><ele>454.0</ele><time>2026-03-30T15:20:15.801Z</time></trkpt><trkpt lat="44.3060164" lon="8.303979"><ele>454.0</ele><time>2026-03-30T15:20:17.801Z</time></trkpt><trkpt lat="44.3060847" lon="8.3041139"><ele>459.0</ele><time>2026-03-30T15:20:19.801Z</time></trkpt><trkpt lat="44.3061501" lon="8.3042514"><ele>464.0</ele><time>2026-03-30T15:20:21.801Z</time></trkpt><trkpt lat="44.3062067" lon="8.3043951"><ele>469.0</ele><time>2026-03-30T15:20:23.8Z</time></trkpt><trkpt lat="44.3062561" lon="8.3045377"><ele>474.0</ele><time>2026-03-30T15:20:25.801Z</time></trkpt><trkpt lat="44.3062884" lon="8.3046901"><ele>475.79999999999995</ele><time>2026-03-30T15:20:27.801Z</time></trkpt><trkpt lat="44.3063186" lon="8.3048511"><ele>477.59999999999997</ele><time>2026-03-30T15:20:29.8Z</time></trkpt><trkpt lat="44.3063298" lon="8.3050116"><ele>479.4</ele><time>2026-03-30T15:20:31.802Z</time></trkpt><trkpt lat="44.3063316" lon="8.3051511"><ele>481.2</ele><time>2026-03-30T15:20:33.801Z</time></trkpt><trkpt lat="44.306345" lon="8.3053072"><ele>483.0</ele><time>2026-03-30T15:20:35.801Z</time></trkpt><trkpt lat="44.3063568" lon="8.3054527"><ele>483.2</ele><time>2026-03-30T15:20:37.801Z</time></trkpt><trkpt lat="44.3063638" lon="8.3055969"><ele>483.4</ele><time>2026-03-30T15:20:39.801Z</time></trkpt><trkpt lat="44.3063545" lon="8.3057343"><ele>483.59999999999997</ele><time>2026-03-30T15:20:41.801Z</time></trkpt><trkpt lat="44.3063446" lon="8.3058786"><ele>483.79999999999995</ele><time>2026-03-30T15:20:43.802Z</time></trkpt><trkpt lat="44.3063512" lon="8.3060199"><ele>484.0</ele><time>2026-03-30T15:20:45.802Z</time></trkpt><trkpt lat="44.3063586" lon="8.306169"><ele>484.0</ele><time>2026-03-30T15:20:47.801Z</time></trkpt><trkpt lat="44.3063687" lon="8.3063156"><ele>484.0</ele><time>2026-03-30T15:20:49.803Z</time></trkpt><trkpt lat="44.3063713" lon="8.3064871"><ele>484.0</ele><time>2026-03-30T15:20:51.801Z</time></trkpt><trkpt lat="44.3063702" lon="8.3065773"><ele>484.0</ele><time>2026-03-30T15:20:52.801Z</time></trkpt><trkpt lat="44.3063668" lon="8.3066655"><ele>484.0</ele><time>2026-03-30T15:20:53.802Z</time></trkpt><trkpt lat="44.3063688" lon="8.3068251"><ele>484.0</ele><time>2026-03-30T15:20:55.802Z</time></trkpt><trkpt lat="44.3063705" lon="8.3069941"><ele>484.0</ele><time>2026-03-30T15:20:57.801Z</time></trkpt><trkpt lat="44.3063665" lon="8.3070829"><ele>484.0</ele><time>2026-03-30T15:20:58.801Z</time></trkpt><trkpt lat="44.3063686" lon="8.3072499"><ele>484.0</ele><time>2026-03-30T15:21:00.801Z</time></trkpt><trkpt lat="44.3063708" lon="8.3073397"><ele>484.0</ele><time>2026-03-30T15:21:01.801Z</time></trkpt><trkpt lat="44.3063798" lon="8.3075094"><ele>483.83333333333337</ele><time>2026-03-30T15:21:03.801Z</time></trkpt><trkpt lat="44.3063945" lon="8.3076833"><ele>483.6666666666667</ele><time>2026-03-30T15:21:05.801Z</time></trkpt><trkpt lat="44.3064162" lon="8.3078389"><ele>483.5</ele><time>2026-03-30T15:21:07.801Z</time></trkpt><trkpt lat="44.306428" lon="8.307926"><ele>483.33333333333337</ele><time>2026-03-30T15:21:08.801Z</time></trkpt><trkpt lat="44.3064689" lon="8.3080072"><ele>483.1666666666667</ele><time>2026-03-30T15:21:09.801Z</time></trkpt><trkpt lat="44.3064935" lon="8.3080937"><ele>483.0</ele><time>2026-03-30T15:21:10.8Z</time></trkpt><trkpt lat="44.3065322" lon="8.3081715"><ele>478.0</ele><time>2026-03-30T15:21:11.8Z</time></trkpt><trkpt lat="44.30658" lon="8.3082398"><ele>472.99999999999994</ele><time>2026-03-30T15:21:12.801Z</time></trkpt><trkpt lat="44.3066717" lon="8.308329"><ele>467.99999999999994</ele><time>2026-03-30T15:21:14.801Z</time></trkpt><trkpt lat="44.3067287" lon="8.3083705"><ele>463.0</ele><time>2026-03-30T15:21:15.801Z</time></trkpt><trkpt lat="44.3068409" lon="8.3084364"><ele>458.0</ele><time>2026-03-30T15:21:17.8Z</time></trkpt><trkpt lat="44.3069552" lon="8.3084888"><ele>458.0</ele><time>2026-03-30T15:21:19.801Z</time></trkpt><trkpt lat="44.3070198" lon="8.308516"><ele>457.99999999999994</ele><time>2026-03-30T15:21:20.801Z</time></trkpt><trkpt lat="44.3071317" lon="8.308593"><ele>457.99999999999994</ele><time>2026-03-30T15:21:22.802Z</time></trkpt><trkpt lat="44.3071939" lon="8.3086283"><ele>458.0</ele><time>2026-03-30T15:21:23.801Z</time></trkpt><trkpt lat="44.3073126" lon="8.3087002"><ele>458.0</ele><time>2026-03-30T15:21:25.802Z</time></trkpt><trkpt lat="44.3073741" lon="8.3087404"><ele>458.16666666666663</ele><time>2026-03-30T15:21:26.801Z</time></trkpt><trkpt lat="44.3074342" lon="8.3087954"><ele>458.3333333333333</ele><time>2026-03-30T15:21:27.801Z</time></trkpt><trkpt lat="44.3075641" lon="8.3088541"><ele>458.5</ele><time>2026-03-30T15:21:29.802Z</time></trkpt><trkpt lat="44.3076302" lon="8.3088866"><ele>458.66666666666663</ele><time>2026-03-30T15:21:30.801Z</time></trkpt><trkpt lat="44.307699" lon="8.3089302"><ele>458.8333333333333</ele><time>2026-03-30T15:21:31.801Z</time></trkpt><trkpt lat="44.3077714" lon="8.308968"><ele>459.0</ele><time>2026-03-30T15:21:32.801Z</time></trkpt><trkpt lat="44.3078329" lon="8.3090053"><ele>459.0</ele><time>2026-03-30T15:21:33.8Z</time></trkpt><trkpt lat="44.3079081" lon="8.3090536"><ele>459.0</ele><time>2026-03-30T15:21:34.801Z</time></trkpt><trkpt lat="44.307982" lon="8.3090986"><ele>459.0</ele><time>2026-03-30T15:21:35.801Z</time></trkpt><trkpt lat="44.3080619" lon="8.3091367"><ele>459.0</ele><time>2026-03-30T15:21:36.801Z</time></trkpt><trkpt lat="44.3081426" lon="8.3091832"><ele>459.0</ele><time>2026-03-30T15:21:37.801Z</time></trkpt><trkpt lat="44.3082262" lon="8.3092322"><ele>459.0</ele><time>2026-03-30T15:21:38.802Z</time></trkpt><trkpt lat="44.3083017" lon="8.3092792"><ele>456.3333333333333</ele><time>2026-03-30T15:21:39.8Z</time></trkpt><trkpt lat="44.3083796" lon="8.3093262"><ele>453.66666666666663</ele><time>2026-03-30T15:21:40.802Z</time></trkpt><trkpt lat="44.3084588" lon="8.3093807"><ele>451.0</ele><time>2026-03-30T15:21:41.8Z</time></trkpt><trkpt lat="44.3085364" lon="8.3094333"><ele>448.3333333333333</ele><time>2026-03-30T15:21:42.801Z</time></trkpt><trkpt lat="44.3086136" lon="8.3094977"><ele>445.66666666666663</ele><time>2026-03-30T15:21:43.8Z</time></trkpt><trkpt lat="44.3086822" lon="8.3095881"><ele>443.0</ele><time>2026-03-30T15:21:44.802Z</time></trkpt><trkpt lat="44.3087428" lon="8.3096776"><ele>442.16666666666663</ele><time>2026-03-30T15:21:45.8Z</time></trkpt><trkpt lat="44.3088167" lon="8.3097601"><ele>441.3333333333333</ele><time>2026-03-30T15:21:46.801Z</time></trkpt><trkpt lat="44.3088775" lon="8.3098333"><ele>440.5</ele><time>2026-03-30T15:21:47.801Z</time></trkpt><trkpt lat="44.3089232" lon="8.309903"><ele>439.66666666666663</ele><time>2026-03-30T15:21:48.801Z</time></trkpt><trkpt lat="44.3089763" lon="8.30998"><ele>438.8333333333333</ele><time>2026-03-30T15:21:49.8Z</time></trkpt><trkpt lat="44.3090287" lon="8.3100572"><ele>438.0</ele><time>2026-03-30T15:21:50.801Z</time></trkpt><trkpt lat="44.3091295" lon="8.3101753"><ele>438.0</ele><time>2026-03-30T15:21:52.801Z</time></trkpt><trkpt lat="44.3091825" lon="8.3102268"><ele>438.0</ele><time>2026-03-30T15:21:53.801Z</time></trkpt><trkpt lat="44.3092362" lon="8.3102831"><ele>438.0</ele><time>2026-03-30T15:21:54.801Z</time></trkpt><trkpt lat="44.3092913" lon="8.3103366"><ele>438.0</ele><time>2026-03-30T15:21:55.801Z</time></trkpt><trkpt lat="44.309376" lon="8.3104539"><ele>438.0</ele><time>2026-03-30T15:21:57.801Z</time></trkpt><trkpt lat="44.3094426" lon="8.3105536"><ele>438.0</ele><time>2026-03-30T15:21:59.802Z</time></trkpt><trkpt lat="44.3094976" lon="8.3106476"><ele>438.75</ele><time>2026-03-30T15:22:01.802Z</time></trkpt><trkpt lat="44.3095629" lon="8.3107579"><ele>439.5</ele><time>2026-03-30T15:22:03.801Z</time></trkpt><trkpt lat="44.30965" lon="8.3108812"><ele>440.25</ele><time>2026-03-30T15:22:05.801Z</time></trkpt><trkpt lat="44.3097322" lon="8.3109958"><ele>441.0</ele><time>2026-03-30T15:22:07.801Z</time></trkpt><trkpt lat="44.3098191" lon="8.3111149"><ele>441.0</ele><time>2026-03-30T15:22:09.801Z</time></trkpt><trkpt lat="44.3098419" lon="8.3111974"><ele>441.0</ele><time>2026-03-30T15:22:10.801Z</time></trkpt><trkpt lat="44.309851" lon="8.3112919"><ele>441.0</ele><time>2026-03-30T15:22:11.801Z</time></trkpt><trkpt lat="44.3098345" lon="8.3114117"><ele>441.0</ele><time>2026-03-30T15:22:12.801Z</time></trkpt><trkpt lat="44.3098189" lon="8.3115179"><ele>441.0</ele><time>2026-03-30T15:22:13.8Z</time></trkpt><trkpt lat="44.309798" lon="8.3116238"><ele>441.0</ele><time>2026-03-30T15:22:14.802Z</time></trkpt><trkpt lat="44.3097563" lon="8.3117206"><ele>443.5</ele><time>2026-03-30T15:22:15.801Z</time></trkpt><trkpt lat="44.3097177" lon="8.3118267"><ele>446.0</ele><time>2026-03-30T15:22:16.801Z</time></trkpt><trkpt lat="44.3096896" lon="8.3119391"><ele>448.5</ele><time>2026-03-30T15:22:17.8Z</time></trkpt><trkpt lat="44.309666" lon="8.3120558"><ele>451.0</ele><time>2026-03-30T15:22:18.801Z</time></trkpt><trkpt lat="44.3096429" lon="8.3121669"><ele>453.5</ele><time>2026-03-30T15:22:19.801Z</time></trkpt><trkpt lat="44.3096333" lon="8.3122846"><ele>456.0</ele><time>2026-03-30T15:22:20.8Z</time></trkpt><trkpt lat="44.3096558" lon="8.3124076"><ele>456.8333333333333</ele><time>2026-03-30T15:22:21.8Z</time></trkpt><trkpt lat="44.309685" lon="8.3125212"><ele>457.66666666666663</ele><time>2026-03-30T15:22:22.802Z</time></trkpt><trkpt lat="44.3097104" lon="8.3126371"><ele>458.5</ele><time>2026-03-30T15:22:23.8Z</time></trkpt><trkpt lat="44.3097413" lon="8.3127512"><ele>459.3333333333333</ele><time>2026-03-30T15:22:24.801Z</time></trkpt><trkpt lat="44.3097736" lon="8.312864"><ele>460.16666666666663</ele><time>2026-03-30T15:22:25.801Z</time></trkpt><trkpt lat="44.3098213" lon="8.3129834"><ele>461.0</ele><time>2026-03-30T15:22:26.801Z</time></trkpt><trkpt lat="44.3098721" lon="8.3130953"><ele>456.66666666666663</ele><time>2026-03-30T15:22:27.801Z</time></trkpt><trkpt lat="44.3099229" lon="8.3131959"><ele>452.3333333333333</ele><time>2026-03-30T15:22:28.8Z</time></trkpt><trkpt lat="44.3099876" lon="8.3132742"><ele>448.0</ele><time>2026-03-30T15:22:29.801Z</time></trkpt><trkpt lat="44.3100688" lon="8.3133409"><ele>443.66666666666663</ele><time>2026-03-30T15:22:30.802Z</time></trkpt><trkpt lat="44.310152" lon="8.3133806"><ele>439.3333333333333</ele><time>2026-03-30T15:22:31.801Z</time></trkpt><trkpt lat="44.3102387" lon="8.3134043"><ele>435.0</ele><time>2026-03-30T15:22:32.801Z</time></trkpt><trkpt lat="44.310328" lon="8.3134221"><ele>435.0</ele><time>2026-03-30T15:22:33.801Z</time></trkpt><trkpt lat="44.3104205" lon="8.3134259"><ele>435.0</ele><time>2026-03-30T15:22:34.8Z</time></trkpt><trkpt lat="44.3105159" lon="8.3134162"><ele>435.0</ele><time>2026-03-30T15:22:35.8Z</time></trkpt><trkpt lat="44.3106109" lon="8.3134002"><ele>435.0</ele><time>2026-03-30T15:22:36.801Z</time></trkpt><trkpt lat="44.3106991" lon="8.3134095"><ele>435.0</ele><time>2026-03-30T15:22:37.801Z</time></trkpt><trkpt lat="44.3107975" lon="8.313405"><ele>434.2</ele><time>2026-03-30T15:22:38.801Z</time></trkpt><trkpt lat="44.3108933" lon="8.3134062"><ele>433.4</ele><time>2026-03-30T15:22:39.802Z</time></trkpt><trkpt lat="44.3109917" lon="8.3134076"><ele>432.6</ele><time>2026-03-30T15:22:40.8Z</time></trkpt><trkpt lat="44.3110907" lon="8.3134072"><ele>431.8</ele><time>2026-03-30T15:22:41.801Z</time></trkpt><trkpt lat="44.3111909" lon="8.313404"><ele>431.0</ele><time>2026-03-30T15:22:42.8Z</time></trkpt><trkpt lat="44.3112811" lon="8.3134027"><ele>431.0</ele><time>2026-03-30T15:22:43.801Z</time></trkpt><trkpt lat="44.3113808" lon="8.3133886"><ele>431.0</ele><time>2026-03-30T15:22:44.8Z</time></trkpt><trkpt lat="44.3114708" lon="8.31336"><ele>431.0</ele><time>2026-03-30T15:22:45.801Z</time></trkpt><trkpt lat="44.3115566" lon="8.3133076"><ele>431.0</ele><time>2026-03-30T15:22:46.8Z</time></trkpt><trkpt lat="44.3116356" lon="8.3132438"><ele>431.0</ele><time>2026-03-30T15:22:47.8Z</time></trkpt><trkpt lat="44.3117146" lon="8.3131817"><ele>429.66666666666663</ele><time>2026-03-30T15:22:48.8Z</time></trkpt><trkpt lat="44.3117917" lon="8.3131211"><ele>428.3333333333333</ele><time>2026-03-30T15:22:49.801Z</time></trkpt><trkpt lat="44.3118661" lon="8.3130593"><ele>427.0</ele><time>2026-03-30T15:22:50.801Z</time></trkpt><trkpt lat="44.3119375" lon="8.3129976"><ele>425.66666666666663</ele><time>2026-03-30T15:22:51.802Z</time></trkpt><trkpt lat="44.3119967" lon="8.3129282"><ele>424.3333333333333</ele><time>2026-03-30T15:22:52.8Z</time></trkpt><trkpt lat="44.31205" lon="8.3128578"><ele>423.0</ele><time>2026-03-30T15:22:53.802Z</time></trkpt><trkpt lat="44.3121165" lon="8.3127908"><ele>423.0</ele><time>2026-03-30T15:22:54.801Z</time></trkpt><trkpt lat="44.312178" lon="8.3127306"><ele>423.0</ele><time>2026-03-30T15:22:55.801Z</time></trkpt><trkpt lat="44.3122366" lon="8.3126787"><ele>423.0</ele><time>2026-03-30T15:22:56.802Z</time></trkpt><trkpt lat="44.3123406" lon="8.312589"><ele>423.0</ele><time>2026-03-30T15:22:58.801Z</time></trkpt><trkpt lat="44.3123986" lon="8.312541"><ele>423.0</ele><time>2026-03-30T15:22:59.801Z</time></trkpt><trkpt lat="44.3124653" lon="8.3125054"><ele>423.0</ele><time>2026-03-30T15:23:00.801Z</time></trkpt><trkpt lat="44.3125795" lon="8.3124421"><ele>423.8333333333333</ele><time>2026-03-30T15:23:02.8Z</time></trkpt><trkpt lat="44.3126434" lon="8.3124428"><ele>424.66666666666663</ele><time>2026-03-30T15:23:03.801Z</time></trkpt><trkpt lat="44.3127082" lon="8.3124591"><ele>425.5</ele><time>2026-03-30T15:23:04.801Z</time></trkpt><trkpt lat="44.3127701" lon="8.3124911"><ele>426.3333333333333</ele><time>2026-03-30T15:23:05.801Z</time></trkpt><trkpt lat="44.312823" lon="8.3125416"><ele>427.16666666666663</ele><time>2026-03-30T15:23:06.801Z</time></trkpt><trkpt lat="44.3129042" lon="8.3126405"><ele>428.0</ele><time>2026-03-30T15:23:08.8Z</time></trkpt><trkpt lat="44.3129836" lon="8.3127564"><ele>428.0</ele><time>2026-03-30T15:23:10.801Z</time></trkpt><trkpt lat="44.3130579" lon="8.3128778"><ele>428.0</ele><time>2026-03-30T15:23:12.8Z</time></trkpt><trkpt lat="44.3131288" lon="8.3130108"><ele>428.0</ele><time>2026-03-30T15:23:14.801Z</time></trkpt><trkpt lat="44.3131999" lon="8.313139"><ele>428.0</ele><time>2026-03-30T15:23:16.801Z</time></trkpt><trkpt lat="44.3132718" lon="8.3132709"><ele>429.49999999999994</ele><time>2026-03-30T15:23:18.801Z</time></trkpt><trkpt lat="44.3133262" lon="8.3133346"><ele>431.0</ele><time>2026-03-30T15:23:19.8Z</time></trkpt><trkpt lat="44.313378" lon="8.3133999"><ele>432.5</ele><time>2026-03-30T15:23:20.801Z</time></trkpt><trkpt lat="44.3134485" lon="8.31353"><ele>434.0</ele><time>2026-03-30T15:23:22.8Z</time></trkpt><trkpt lat="44.3134934" lon="8.3136011"><ele>435.49999999999994</ele><time>2026-03-30T15:23:23.801Z</time></trkpt><trkpt lat="44.313573" lon="8.31373"><ele>437.0</ele><time>2026-03-30T15:23:25.8Z</time></trkpt><trkpt lat="44.3136571" lon="8.3138298"><ele>437.0</ele><time>2026-03-30T15:23:27.801Z</time></trkpt><trkpt lat="44.3137266" lon="8.3138986"><ele>437.00000000000006</ele><time>2026-03-30T15:23:29.801Z</time></trkpt><trkpt lat="44.3138555" lon="8.3139214"><ele>437.00000000000006</ele><time>2026-03-30T15:23:31.8Z</time></trkpt><trkpt lat="44.3139231" lon="8.313923"><ele>437.0</ele><time>2026-03-30T15:23:32.801Z</time></trkpt><trkpt lat="44.3140456" lon="8.3138974"><ele>437.0</ele><time>2026-03-30T15:23:34.801Z</time></trkpt><trkpt lat="44.3141639" lon="8.3138647"><ele>438.8</ele><time>2026-03-30T15:23:36.801Z</time></trkpt><trkpt lat="44.31423" lon="8.3138501"><ele>440.6</ele><time>2026-03-30T15:23:37.8Z</time></trkpt><trkpt lat="44.3143399" lon="8.3138307"><ele>442.40000000000003</ele><time>2026-03-30T15:23:39.8Z</time></trkpt><trkpt lat="44.3144584" lon="8.3138602"><ele>444.20000000000005</ele><time>2026-03-30T15:23:41.801Z</time></trkpt><trkpt lat="44.314563" lon="8.3139215"><ele>446.0</ele><time>2026-03-30T15:23:43.8Z</time></trkpt><trkpt lat="44.3146731" lon="8.3139723"><ele>447.20000000000005</ele><time>2026-03-30T15:23:45.801Z</time></trkpt><trkpt lat="44.3147854" lon="8.3139593"><ele>448.40000000000003</ele><time>2026-03-30T15:23:47.8Z</time></trkpt><trkpt lat="44.3149007" lon="8.3139456"><ele>449.6</ele><time>2026-03-30T15:23:49.8Z</time></trkpt><trkpt lat="44.3150058" lon="8.3139035"><ele>450.8</ele><time>2026-03-30T15:23:51.8Z</time></trkpt><trkpt lat="44.3151104" lon="8.3138666"><ele>452.0</ele><time>2026-03-30T15:23:53.801Z</time></trkpt><trkpt lat="44.3152231" lon="8.3138168"><ele>447.20000000000005</ele><time>2026-03-30T15:23:55.801Z</time></trkpt><trkpt lat="44.3153259" lon="8.3137754"><ele>442.40000000000003</ele><time>2026-03-30T15:23:57.802Z</time></trkpt><trkpt lat="44.3154294" lon="8.3137495"><ele>437.59999999999997</ele><time>2026-03-30T15:23:59.801Z</time></trkpt><trkpt lat="44.315527" lon="8.3137311"><ele>432.79999999999995</ele><time>2026-03-30T15:24:01.801Z</time></trkpt><trkpt lat="44.3156282" lon="8.3137089"><ele>428.0</ele><time>2026-03-30T15:24:03.801Z</time></trkpt><trkpt lat="44.3157237" lon="8.3136939"><ele>428.0</ele><time>2026-03-30T15:24:05.801Z</time></trkpt><trkpt lat="44.3158254" lon="8.3136749"><ele>427.99999999999994</ele><time>2026-03-30T15:24:07.8Z</time></trkpt><trkpt lat="44.3159243" lon="8.3136705"><ele>427.99999999999994</ele><time>2026-03-30T15:24:09.801Z</time></trkpt><trkpt lat="44.3160339" lon="8.3136788"><ele>428.0</ele><time>2026-03-30T15:24:11.801Z</time></trkpt><trkpt lat="44.3161351" lon="8.3137067"><ele>428.0</ele><time>2026-03-30T15:24:13.802Z</time></trkpt><trkpt lat="44.316231" lon="8.3137409"><ele>428.0</ele><time>2026-03-30T15:24:15.801Z</time></trkpt><trkpt lat="44.3163297" lon="8.3138605"><ele>427.99999999999994</ele><time>2026-03-30T15:24:17.8Z</time></trkpt><trkpt lat="44.3163912" lon="8.3139926"><ele>427.99999999999994</ele><time>2026-03-30T15:24:19.8Z</time></trkpt><trkpt lat="44.3164366" lon="8.3141639"><ele>428.0</ele><time>2026-03-30T15:24:21.801Z</time></trkpt><trkpt lat="44.3164569" lon="8.3142513"><ele>428.0</ele><time>2026-03-30T15:24:22.801Z</time></trkpt><trkpt lat="44.3164803" lon="8.314341"><ele>428.0</ele><time>2026-03-30T15:24:23.8Z</time></trkpt><trkpt lat="44.3165126" lon="8.314505"><ele>427.99999999999994</ele><time>2026-03-30T15:24:25.801Z</time></trkpt><trkpt lat="44.3165428" lon="8.3146677"><ele>427.99999999999994</ele><time>2026-03-30T15:24:27.799Z</time></trkpt><trkpt lat="44.3165511" lon="8.314848"><ele>428.0</ele><time>2026-03-30T15:24:29.8Z</time></trkpt><trkpt lat="44.3165466" lon="8.3149472"><ele>428.0</ele><time>2026-03-30T15:24:30.802Z</time></trkpt><trkpt lat="44.3165513" lon="8.3150388"><ele>427.99999999999994</ele><time>2026-03-30T15:24:31.801Z</time></trkpt><trkpt lat="44.3165479" lon="8.3151342"><ele>428.0</ele><time>2026-03-30T15:24:32.801Z</time></trkpt><trkpt lat="44.3165474" lon="8.3152288"><ele>428.0</ele><time>2026-03-30T15:24:33.802Z</time></trkpt><trkpt lat="44.3165634" lon="8.3153989"><ele>428.0</ele><time>2026-03-30T15:24:35.8Z</time></trkpt><trkpt lat="44.3165613" lon="8.3154921"><ele>427.99999999999994</ele><time>2026-03-30T15:24:36.801Z</time></trkpt><trkpt lat="44.3165687" lon="8.3156613"><ele>428.0</ele><time>2026-03-30T15:24:38.8Z</time></trkpt><trkpt lat="44.3165704" lon="8.3157512"><ele>428.2</ele><time>2026-03-30T15:24:39.801Z</time></trkpt><trkpt lat="44.3165656" lon="8.3158425"><ele>428.4</ele><time>2026-03-30T15:24:40.801Z</time></trkpt><trkpt lat="44.3165665" lon="8.3160241"><ele>428.59999999999997</ele><time>2026-03-30T15:24:42.802Z</time></trkpt><trkpt lat="44.3165626" lon="8.3161914"><ele>428.79999999999995</ele><time>2026-03-30T15:24:44.802Z</time></trkpt><trkpt lat="44.3165555" lon="8.3163631"><ele>429.0</ele><time>2026-03-30T15:24:46.8Z</time></trkpt><trkpt lat="44.316552" lon="8.3164544"><ele>428.2</ele><time>2026-03-30T15:24:47.802Z</time></trkpt><trkpt lat="44.3165399" lon="8.3166259"><ele>427.4</ele><time>2026-03-30T15:24:49.801Z</time></trkpt><trkpt lat="44.3165303" lon="8.3167136"><ele>426.6</ele><time>2026-03-30T15:24:50.8Z</time></trkpt><trkpt lat="44.3165119" lon="8.3168809"><ele>425.8</ele><time>2026-03-30T15:24:52.801Z</time></trkpt><trkpt lat="44.316502" lon="8.3169719"><ele>425.0</ele><time>2026-03-30T15:24:53.801Z</time></trkpt><trkpt lat="44.316477" lon="8.3171475"><ele>425.0</ele><time>2026-03-30T15:24:55.801Z</time></trkpt><trkpt lat="44.3164648" lon="8.3172356"><ele>425.0</ele><time>2026-03-30T15:24:56.8Z</time></trkpt><trkpt lat="44.316452" lon="8.3173237"><ele>425.0</ele><time>2026-03-30T15:24:57.801Z</time></trkpt><trkpt lat="44.3164377" lon="8.3174122"><ele>425.0</ele><time>2026-03-30T15:24:58.801Z</time></trkpt><trkpt lat="44.3164269" lon="8.3175016"><ele>425.0</ele><time>2026-03-30T15:24:59.8Z</time></trkpt><trkpt lat="44.316415" lon="8.3175911"><ele>425.0</ele><time>2026-03-30T15:25:00.801Z</time></trkpt><trkpt lat="44.3164045" lon="8.3176829"><ele>425.0</ele><time>2026-03-30T15:25:01.801Z</time></trkpt><trkpt lat="44.3163895" lon="8.3177761"><ele>427.7142857142857</ele><time>2026-03-30T15:25:02.801Z</time></trkpt><trkpt lat="44.3163727" lon="8.3178681"><ele>430.42857142857144</ele><time>2026-03-30T15:25:03.8Z</time></trkpt><trkpt lat="44.3163534" lon="8.3179604"><ele>433.1428571428571</ele><time>2026-03-30T15:25:04.801Z</time></trkpt><trkpt lat="44.3163361" lon="8.3180556"><ele>435.8571428571429</ele><time>2026-03-30T15:25:05.801Z</time></trkpt><trkpt lat="44.3163316" lon="8.318151"><ele>438.5714285714286</ele><time>2026-03-30T15:25:06.802Z</time></trkpt><trkpt lat="44.3163342" lon="8.3182462"><ele>441.2857142857143</ele><time>2026-03-30T15:25:07.801Z</time></trkpt><trkpt lat="44.3163478" lon="8.3183374"><ele>444.0</ele><time>2026-03-30T15:25:08.801Z</time></trkpt><trkpt lat="44.3163689" lon="8.318429"><ele>444.0</ele><time>2026-03-30T15:25:09.801Z</time></trkpt><trkpt lat="44.3164003" lon="8.3185164"><ele>444.0</ele><time>2026-03-30T15:25:10.8Z</time></trkpt><trkpt lat="44.3164453" lon="8.3186099"><ele>444.0</ele><time>2026-03-30T15:25:11.802Z</time></trkpt><trkpt lat="44.3164947" lon="8.3187012"><ele>444.0</ele><time>2026-03-30T15:25:12.802Z</time></trkpt><trkpt lat="44.3165514" lon="8.318788"><ele>444.0</ele><time>2026-03-30T15:25:13.801Z</time></trkpt><trkpt lat="44.3166041" lon="8.31887"><ele>444.0</ele><time>2026-03-30T15:25:14.801Z</time></trkpt><trkpt lat="44.3166592" lon="8.3189405"><ele>441.1666666666667</ele><time>2026-03-30T15:25:15.802Z</time></trkpt><trkpt lat="44.3167107" lon="8.3190184"><ele>438.33333333333337</ele><time>2026-03-30T15:25:16.801Z</time></trkpt><trkpt lat="44.3167621" lon="8.3190967"><ele>435.5</ele><time>2026-03-30T15:25:17.801Z</time></trkpt><trkpt lat="44.3168159" lon="8.3191862"><ele>432.6666666666667</ele><time>2026-03-30T15:25:18.801Z</time></trkpt><trkpt lat="44.3168636" lon="8.3192722"><ele>429.83333333333337</ele><time>2026-03-30T15:25:19.8Z</time></trkpt><trkpt lat="44.3169167" lon="8.3193585"><ele>427.0</ele><time>2026-03-30T15:25:20.801Z</time></trkpt><trkpt lat="44.3169655" lon="8.3194441"><ele>427.00000000000006</ele><time>2026-03-30T15:25:21.801Z</time></trkpt><trkpt lat="44.3170137" lon="8.3195325"><ele>427.0</ele><time>2026-03-30T15:25:22.8Z</time></trkpt><trkpt lat="44.3170644" lon="8.3196189"><ele>427.0</ele><time>2026-03-30T15:25:23.801Z</time></trkpt><trkpt lat="44.3171184" lon="8.3197086"><ele>427.0</ele><time>2026-03-30T15:25:24.802Z</time></trkpt><trkpt lat="44.3171757" lon="8.3197913"><ele>427.00000000000006</ele><time>2026-03-30T15:25:25.801Z</time></trkpt><trkpt lat="44.3172265" lon="8.3198783"><ele>427.0</ele><time>2026-03-30T15:25:26.801Z</time></trkpt><trkpt lat="44.3172637" lon="8.3199658"><ele>425.83333333333337</ele><time>2026-03-30T15:25:27.801Z</time></trkpt><trkpt lat="44.3173142" lon="8.3200467"><ele>424.6666666666667</ele><time>2026-03-30T15:25:28.801Z</time></trkpt><trkpt lat="44.3173777" lon="8.3201167"><ele>423.5</ele><time>2026-03-30T15:25:29.799Z</time></trkpt><trkpt lat="44.3174431" lon="8.3201714"><ele>422.33333333333337</ele><time>2026-03-30T15:25:30.802Z</time></trkpt><trkpt lat="44.3175148" lon="8.320196"><ele>421.1666666666667</ele><time>2026-03-30T15:25:31.801Z</time></trkpt><trkpt lat="44.3175892" lon="8.3202038"><ele>420.0</ele><time>2026-03-30T15:25:32.801Z</time></trkpt><trkpt lat="44.3176662" lon="8.3202012"><ele>420.0</ele><time>2026-03-30T15:25:33.802Z</time></trkpt><trkpt lat="44.3177353" lon="8.3202041"><ele>420.0</ele><time>2026-03-30T15:25:34.801Z</time></trkpt><trkpt lat="44.3178031" lon="8.3202133"><ele>420.0</ele><time>2026-03-30T15:25:35.801Z</time></trkpt><trkpt lat="44.3178685" lon="8.3202214"><ele>420.0</ele><time>2026-03-30T15:25:36.801Z</time></trkpt><trkpt lat="44.3179813" lon="8.3202351"><ele>420.0</ele><time>2026-03-30T15:25:38.801Z</time></trkpt><trkpt lat="44.3180929" lon="8.3202412"><ele>420.0</ele><time>2026-03-30T15:25:40.801Z</time></trkpt><trkpt lat="44.3181876" lon="8.3203034"><ele>419.5</ele><time>2026-03-30T15:25:42.8Z</time></trkpt><trkpt lat="44.318262" lon="8.3204181"><ele>419.0</ele><time>2026-03-30T15:25:44.801Z</time></trkpt><trkpt lat="44.3183304" lon="8.3205561"><ele>418.5</ele><time>2026-03-30T15:25:46.801Z</time></trkpt><trkpt lat="44.3183952" lon="8.3206962"><ele>418.0</ele><time>2026-03-30T15:25:48.801Z</time></trkpt><trkpt lat="44.3184605" lon="8.3208437"><ele>418.00000000000006</ele><time>2026-03-30T15:25:50.801Z</time></trkpt><trkpt lat="44.318494" lon="8.3209198"><ele>418.0</ele><time>2026-03-30T15:25:51.801Z</time></trkpt><trkpt lat="44.3185241" lon="8.3210021"><ele>418.0</ele><time>2026-03-30T15:25:52.801Z</time></trkpt><trkpt lat="44.3185572" lon="8.3210792"><ele>418.0</ele><time>2026-03-30T15:25:53.8Z</time></trkpt><trkpt lat="44.318617" lon="8.3212363"><ele>418.00000000000006</ele><time>2026-03-30T15:25:55.801Z</time></trkpt><trkpt lat="44.3186498" lon="8.3213163"><ele>418.0</ele><time>2026-03-30T15:25:56.801Z</time></trkpt><trkpt lat="44.318704" lon="8.3214703"><ele>418.4</ele><time>2026-03-30T15:25:58.801Z</time></trkpt><trkpt lat="44.3187679" lon="8.321613"><ele>418.79999999999995</ele><time>2026-03-30T15:26:00.801Z</time></trkpt><trkpt lat="44.3188364" lon="8.3217558"><ele>419.2</ele><time>2026-03-30T15:26:02.8Z</time></trkpt><trkpt lat="44.3188793" lon="8.3218221"><ele>419.6</ele><time>2026-03-30T15:26:03.8Z</time></trkpt><trkpt lat="44.3189585" lon="8.3219476"><ele>420.0</ele><time>2026-03-30T15:26:05.801Z</time></trkpt><trkpt lat="44.3190037" lon="8.3220157"><ele>419.57142857142856</ele><time>2026-03-30T15:26:06.801Z</time></trkpt><trkpt lat="44.3190516" lon="8.3220749"><ele>419.1428571428571</ele><time>2026-03-30T15:26:07.801Z</time></trkpt><trkpt lat="44.3191011" lon="8.3221408"><ele>418.7142857142857</ele><time>2026-03-30T15:26:08.801Z</time></trkpt><trkpt lat="44.3191529" lon="8.3222021"><ele>418.2857142857143</ele><time>2026-03-30T15:26:09.8Z</time></trkpt><trkpt lat="44.3192046" lon="8.3222674"><ele>417.85714285714283</ele><time>2026-03-30T15:26:10.802Z</time></trkpt><trkpt lat="44.3192529" lon="8.3223311"><ele>417.42857142857144</ele><time>2026-03-30T15:26:11.799Z</time></trkpt><trkpt lat="44.3193025" lon="8.3223908"><ele>417.0</ele><time>2026-03-30T15:26:12.801Z</time></trkpt><trkpt lat="44.3193478" lon="8.322457"><ele>417.0</ele><time>2026-03-30T15:26:13.801Z</time></trkpt><trkpt lat="44.3193937" lon="8.3225173"><ele>417.0</ele><time>2026-03-30T15:26:14.801Z</time></trkpt><trkpt lat="44.3194403" lon="8.3225769"><ele>417.0</ele><time>2026-03-30T15:26:15.802Z</time></trkpt><trkpt lat="44.3195329" lon="8.3226881"><ele>417.0</ele><time>2026-03-30T15:26:17.802Z</time></trkpt><trkpt lat="44.3196169" lon="8.3227944"><ele>417.0</ele><time>2026-03-30T15:26:19.801Z</time></trkpt><trkpt lat="44.3197106" lon="8.3228835"><ele>416.75</ele><time>2026-03-30T15:26:21.801Z</time></trkpt><trkpt lat="44.3198185" lon="8.3229597"><ele>416.5</ele><time>2026-03-30T15:26:23.801Z</time></trkpt><trkpt lat="44.3199298" lon="8.3230197"><ele>416.25</ele><time>2026-03-30T15:26:25.801Z</time></trkpt><trkpt lat="44.3200245" lon="8.3230867"><ele>416.0</ele><time>2026-03-30T15:26:27.802Z</time></trkpt><trkpt lat="44.3201275" lon="8.3231703"><ele>416.0</ele><time>2026-03-30T15:26:29.801Z</time></trkpt><trkpt lat="44.3202334" lon="8.3232131"><ele>416.0</ele><time>2026-03-30T15:26:31.801Z</time></trkpt><trkpt lat="44.3203503" lon="8.3232603"><ele>416.0</ele><time>2026-03-30T15:26:33.801Z</time></trkpt><trkpt lat="44.3204629" lon="8.3233199"><ele>416.0</ele><time>2026-03-30T15:26:35.801Z</time></trkpt><trkpt lat="44.3205789" lon="8.3233684"><ele>414.5</ele><time>2026-03-30T15:26:37.801Z</time></trkpt><trkpt lat="44.3206824" lon="8.3234312"><ele>413.0</ele><time>2026-03-30T15:26:39.801Z</time></trkpt><trkpt lat="44.3207917" lon="8.3234945"><ele>411.5</ele><time>2026-03-30T15:26:41.802Z</time></trkpt><trkpt lat="44.3208993" lon="8.3235605"><ele>410.0</ele><time>2026-03-30T15:26:43.802Z</time></trkpt><trkpt lat="44.3210109" lon="8.3236167"><ele>410.0</ele><time>2026-03-30T15:26:45.8Z</time></trkpt><trkpt lat="44.3211119" lon="8.3236596"><ele>410.0</ele><time>2026-03-30T15:26:47.801Z</time></trkpt><trkpt lat="44.3212152" lon="8.3237038"><ele>410.0</ele><time>2026-03-30T15:26:49.8Z</time></trkpt><trkpt lat="44.3213144" lon="8.3237694"><ele>410.0</ele><time>2026-03-30T15:26:51.8Z</time></trkpt><trkpt lat="44.3214123" lon="8.3238184"><ele>410.0</ele><time>2026-03-30T15:26:53.801Z</time></trkpt><trkpt lat="44.3215074" lon="8.3238637"><ele>409.75</ele><time>2026-03-30T15:26:55.8Z</time></trkpt><trkpt lat="44.3216097" lon="8.323904"><ele>409.5</ele><time>2026-03-30T15:26:57.802Z</time></trkpt><trkpt lat="44.3217115" lon="8.3239717"><ele>409.25</ele><time>2026-03-30T15:26:59.8Z</time></trkpt><trkpt lat="44.3218088" lon="8.3240568"><ele>409.0</ele><time>2026-03-30T15:27:01.802Z</time></trkpt><trkpt lat="44.321898" lon="8.3241631"><ele>409.0</ele><time>2026-03-30T15:27:03.802Z</time></trkpt><trkpt lat="44.321977" lon="8.3242863"><ele>409.0</ele><time>2026-03-30T15:27:05.8Z</time></trkpt><trkpt lat="44.3220533" lon="8.3244169"><ele>409.0</ele><time>2026-03-30T15:27:07.8Z</time></trkpt><trkpt lat="44.3221494" lon="8.3245336"><ele>409.0</ele><time>2026-03-30T15:27:09.8Z</time></trkpt><trkpt lat="44.3222064" lon="8.3245788"><ele>409.0</ele><time>2026-03-30T15:27:10.801Z</time></trkpt><trkpt lat="44.3222666" lon="8.324615"><ele>409.2857142857143</ele><time>2026-03-30T15:27:11.801Z</time></trkpt><trkpt lat="44.3223293" lon="8.3246389"><ele>409.5714285714286</ele><time>2026-03-30T15:27:12.802Z</time></trkpt><trkpt lat="44.322392" lon="8.3246474"><ele>409.8571428571429</ele><time>2026-03-30T15:27:13.8Z</time></trkpt><trkpt lat="44.3224603" lon="8.3246431"><ele>410.1428571428571</ele><time>2026-03-30T15:27:14.802Z</time></trkpt><trkpt lat="44.3225253" lon="8.3246224"><ele>410.42857142857144</ele><time>2026-03-30T15:27:15.801Z</time></trkpt><trkpt lat="44.3225891" lon="8.3245893"><ele>410.7142857142857</ele><time>2026-03-30T15:27:16.801Z</time></trkpt><trkpt lat="44.3226491" lon="8.3245472"><ele>411.0</ele><time>2026-03-30T15:27:17.801Z</time></trkpt><trkpt lat="44.3227075" lon="8.3244995"><ele>411.0</ele><time>2026-03-30T15:27:18.8Z</time></trkpt><trkpt lat="44.3227684" lon="8.3244459"><ele>411.0</ele><time>2026-03-30T15:27:19.8Z</time></trkpt><trkpt lat="44.3228262" lon="8.3243869"><ele>411.0</ele><time>2026-03-30T15:27:20.8Z</time></trkpt><trkpt lat="44.3228844" lon="8.3243341"><ele>411.0</ele><time>2026-03-30T15:27:21.8Z</time></trkpt><trkpt lat="44.3229432" lon="8.3242856"><ele>411.0</ele><time>2026-03-30T15:27:22.801Z</time></trkpt><trkpt lat="44.322999" lon="8.3242333"><ele>411.0</ele><time>2026-03-30T15:27:23.801Z</time></trkpt><trkpt lat="44.3230527" lon="8.3241782"><ele>411.0</ele><time>2026-03-30T15:27:24.8Z</time></trkpt><trkpt lat="44.3231616" lon="8.3240929"><ele>411.0</ele><time>2026-03-30T15:27:26.8Z</time></trkpt><trkpt lat="44.3232698" lon="8.3240215"><ele>411.0</ele><time>2026-03-30T15:27:28.801Z</time></trkpt><trkpt lat="44.3233887" lon="8.3239667"><ele>411.0</ele><time>2026-03-30T15:27:30.801Z</time></trkpt><trkpt lat="44.3235127" lon="8.3239788"><ele>411.0</ele><time>2026-03-30T15:27:32.801Z</time></trkpt><trkpt lat="44.3235707" lon="8.3240187"><ele>411.0</ele><time>2026-03-30T15:27:33.8Z</time></trkpt><trkpt lat="44.3236212" lon="8.3240779"><ele>411.0</ele><time>2026-03-30T15:27:34.801Z</time></trkpt><trkpt lat="44.3236676" lon="8.3241415"><ele>411.0</ele><time>2026-03-30T15:27:35.8Z</time></trkpt><trkpt lat="44.3237091" lon="8.3242128"><ele>411.0</ele><time>2026-03-30T15:27:36.801Z</time></trkpt><trkpt lat="44.3237504" lon="8.3242885"><ele>411.0</ele><time>2026-03-30T15:27:37.801Z</time></trkpt><trkpt lat="44.3237849" lon="8.3243717"><ele>411.0</ele><time>2026-03-30T15:27:38.8Z</time></trkpt><trkpt lat="44.3238088" lon="8.3244609"><ele>411.0</ele><time>2026-03-30T15:27:39.8Z</time></trkpt><trkpt lat="44.3238285" lon="8.3245537"><ele>411.0</ele><time>2026-03-30T15:27:40.801Z</time></trkpt><trkpt lat="44.323844" lon="8.3246485"><ele>410.42857142857144</ele><time>2026-03-30T15:27:41.801Z</time></trkpt><trkpt lat="44.3238665" lon="8.3247436"><ele>409.85714285714283</ele><time>2026-03-30T15:27:42.801Z</time></trkpt><trkpt lat="44.3238873" lon="8.3248329"><ele>409.28571428571433</ele><time>2026-03-30T15:27:43.801Z</time></trkpt><trkpt lat="44.3239029" lon="8.3249311"><ele>408.7142857142857</ele><time>2026-03-30T15:27:44.801Z</time></trkpt><trkpt lat="44.3239174" lon="8.3250258"><ele>408.14285714285717</ele><time>2026-03-30T15:27:45.801Z</time></trkpt><trkpt lat="44.3239272" lon="8.3251177"><ele>407.5714285714286</ele><time>2026-03-30T15:27:46.801Z</time></trkpt><trkpt lat="44.3239357" lon="8.3252115"><ele>407.0</ele><time>2026-03-30T15:27:47.801Z</time></trkpt><trkpt lat="44.3239507" lon="8.325301"><ele>407.00000000000006</ele><time>2026-03-30T15:27:48.801Z</time></trkpt><trkpt lat="44.3239641" lon="8.3253923"><ele>407.0</ele><time>2026-03-30T15:27:49.801Z</time></trkpt><trkpt lat="44.3239776" lon="8.3254897"><ele>407.0</ele><time>2026-03-30T15:27:50.802Z</time></trkpt><trkpt lat="44.323993" lon="8.3255881"><ele>407.0</ele><time>2026-03-30T15:27:51.801Z</time></trkpt><trkpt lat="44.3240106" lon="8.3256755"><ele>407.0</ele><time>2026-03-30T15:27:52.801Z</time></trkpt><trkpt lat="44.3240271" lon="8.3257696"><ele>407.00000000000006</ele><time>2026-03-30T15:27:53.799Z</time></trkpt><trkpt lat="44.3240417" lon="8.325866"><ele>407.0</ele><time>2026-03-30T15:27:54.801Z</time></trkpt><trkpt lat="44.3240572" lon="8.3259604"><ele>407.42857142857144</ele><time>2026-03-30T15:27:55.801Z</time></trkpt><trkpt lat="44.3240662" lon="8.3260591"><ele>407.8571428571429</ele><time>2026-03-30T15:27:56.799Z</time></trkpt><trkpt lat="44.3240798" lon="8.3261539"><ele>408.28571428571433</ele><time>2026-03-30T15:27:57.801Z</time></trkpt><trkpt lat="44.3240948" lon="8.3262505"><ele>408.7142857142857</ele><time>2026-03-30T15:27:58.801Z</time></trkpt><trkpt lat="44.324109" lon="8.3263504"><ele>409.1428571428571</ele><time>2026-03-30T15:27:59.8Z</time></trkpt><trkpt lat="44.324123" lon="8.3264488"><ele>409.5714285714286</ele><time>2026-03-30T15:28:00.8Z</time></trkpt><trkpt lat="44.3241439" lon="8.3265411"><ele>410.0</ele><time>2026-03-30T15:28:01.801Z</time></trkpt><trkpt lat="44.3241705" lon="8.326629"><ele>411.8571428571429</ele><time>2026-03-30T15:28:02.8Z</time></trkpt><trkpt lat="44.324206" lon="8.3267097"><ele>413.71428571428567</ele><time>2026-03-30T15:28:03.802Z</time></trkpt><trkpt lat="44.3242475" lon="8.3267852"><ele>415.57142857142856</ele><time>2026-03-30T15:28:04.8Z</time></trkpt><trkpt lat="44.3243033" lon="8.3268471"><ele>417.42857142857144</ele><time>2026-03-30T15:28:05.8Z</time></trkpt><trkpt lat="44.3243589" lon="8.3269053"><ele>419.28571428571433</ele><time>2026-03-30T15:28:06.801Z</time></trkpt><trkpt lat="44.3244266" lon="8.3269388"><ele>421.1428571428571</ele><time>2026-03-30T15:28:07.8Z</time></trkpt><trkpt lat="44.3244953" lon="8.3269648"><ele>423.0</ele><time>2026-03-30T15:28:08.801Z</time></trkpt><trkpt lat="44.3246074" lon="8.3270148"><ele>423.0</ele><time>2026-03-30T15:28:10.8Z</time></trkpt><trkpt lat="44.3247198" lon="8.3270452"><ele>423.0</ele><time>2026-03-30T15:28:12.801Z</time></trkpt><trkpt lat="44.3248391" lon="8.3270803"><ele>423.0</ele><time>2026-03-30T15:28:14.8Z</time></trkpt><trkpt lat="44.3249609" lon="8.3271093"><ele>423.0</ele><time>2026-03-30T15:28:16.801Z</time></trkpt><trkpt lat="44.3250756" lon="8.3271197"><ele>420.4</ele><time>2026-03-30T15:28:18.801Z</time></trkpt><trkpt lat="44.3251938" lon="8.3271406"><ele>417.79999999999995</ele><time>2026-03-30T15:28:20.8Z</time></trkpt><trkpt lat="44.3252592" lon="8.3271547"><ele>415.2</ele><time>2026-03-30T15:28:21.801Z</time></trkpt><trkpt lat="44.3253751" lon="8.3271694"><ele>412.6</ele><time>2026-03-30T15:28:23.799Z</time></trkpt><trkpt lat="44.3254929" lon="8.3271931"><ele>410.0</ele><time>2026-03-30T15:28:25.801Z</time></trkpt><trkpt lat="44.3256077" lon="8.327233"><ele>409.2</ele><time>2026-03-30T15:28:27.8Z</time></trkpt><trkpt lat="44.3257149" lon="8.3272963"><ele>408.4</ele><time>2026-03-30T15:28:29.801Z</time></trkpt><trkpt lat="44.3258109" lon="8.3273549"><ele>407.6</ele><time>2026-03-30T15:28:31.801Z</time></trkpt><trkpt lat="44.3259114" lon="8.3274622"><ele>406.8</ele><time>2026-03-30T15:28:33.801Z</time></trkpt><trkpt lat="44.3259624" lon="8.3275194"><ele>406.0</ele><time>2026-03-30T15:28:34.8Z</time></trkpt><trkpt lat="44.3260679" lon="8.3276451"><ele>406.0</ele><time>2026-03-30T15:28:36.801Z</time></trkpt><trkpt lat="44.3261428" lon="8.3277299"><ele>406.0</ele><time>2026-03-30T15:28:38.8Z</time></trkpt><trkpt lat="44.326218" lon="8.3278375"><ele>406.0</ele><time>2026-03-30T15:28:40.801Z</time></trkpt><trkpt lat="44.326293" lon="8.3279464"><ele>406.0</ele><time>2026-03-30T15:28:42.801Z</time></trkpt><trkpt lat="44.3263271" lon="8.3280826"><ele>406.0</ele><time>2026-03-30T15:28:44.801Z</time></trkpt><trkpt lat="44.3263406" lon="8.3282232"><ele>406.20000000000005</ele><time>2026-03-30T15:28:46.8Z</time></trkpt><trkpt lat="44.3263573" lon="8.3283568"><ele>406.40000000000003</ele><time>2026-03-30T15:28:48.801Z</time></trkpt><trkpt lat="44.3263703" lon="8.328499"><ele>406.6</ele><time>2026-03-30T15:28:50.8Z</time></trkpt><trkpt lat="44.3263746" lon="8.3286539"><ele>406.8</ele><time>2026-03-30T15:28:52.799Z</time></trkpt><trkpt lat="44.3263672" lon="8.3288044"><ele>407.0</ele><time>2026-03-30T15:28:54.801Z</time></trkpt><trkpt lat="44.3263597" lon="8.3289718"><ele>407.0</ele><time>2026-03-30T15:28:56.8Z</time></trkpt><trkpt lat="44.3263567" lon="8.3291273"><ele>407.0</ele><time>2026-03-30T15:28:58.801Z</time></trkpt><trkpt lat="44.3263679" lon="8.3292914"><ele>407.0</ele><time>2026-03-30T15:29:00.8Z</time></trkpt><trkpt lat="44.3263875" lon="8.329451"><ele>407.0</ele><time>2026-03-30T15:29:02.801Z</time></trkpt><trkpt lat="44.3264113" lon="8.3296069"><ele>405.20000000000005</ele><time>2026-03-30T15:29:04.8Z</time></trkpt><trkpt lat="44.3264378" lon="8.3297714"><ele>403.4</ele><time>2026-03-30T15:29:06.8Z</time></trkpt><trkpt lat="44.3264523" lon="8.329859"><ele>401.6</ele><time>2026-03-30T15:29:07.8Z</time></trkpt><trkpt lat="44.3264929" lon="8.3300283"><ele>399.79999999999995</ele><time>2026-03-30T15:29:09.801Z</time></trkpt><trkpt lat="44.3265216" lon="8.3301933"><ele>398.0</ele><time>2026-03-30T15:29:11.8Z</time></trkpt><trkpt lat="44.3265646" lon="8.3303536"><ele>398.0</ele><time>2026-03-30T15:29:13.801Z</time></trkpt><trkpt lat="44.3266122" lon="8.3305023"><ele>398.0</ele><time>2026-03-30T15:29:15.802Z</time></trkpt><trkpt lat="44.326663" lon="8.3306229"><ele>398.0</ele><time>2026-03-30T15:29:17.802Z</time></trkpt><trkpt lat="44.3267117" lon="8.330756"><ele>398.0</ele><time>2026-03-30T15:29:19.801Z</time></trkpt><trkpt lat="44.3267613" lon="8.330884"><ele>398.0</ele><time>2026-03-30T15:29:21.801Z</time></trkpt><trkpt lat="44.3268196" lon="8.3309975"><ele>398.59999999999997</ele><time>2026-03-30T15:29:23.801Z</time></trkpt><trkpt lat="44.3268691" lon="8.3311295"><ele>399.2</ele><time>2026-03-30T15:29:25.8Z</time></trkpt><trkpt lat="44.3269349" lon="8.3312574"><ele>399.8</ele><time>2026-03-30T15:29:27.802Z</time></trkpt><trkpt lat="44.3269802" lon="8.3313848"><ele>400.4</ele><time>2026-03-30T15:29:29.801Z</time></trkpt><trkpt lat="44.3270372" lon="8.3315063"><ele>401.0</ele><time>2026-03-30T15:29:31.8Z</time></trkpt><trkpt lat="44.3270788" lon="8.331617"><ele>401.20000000000005</ele><time>2026-03-30T15:29:33.801Z</time></trkpt><trkpt lat="44.3271247" lon="8.3317375"><ele>401.40000000000003</ele><time>2026-03-30T15:29:35.801Z</time></trkpt><trkpt lat="44.3271594" lon="8.3318671"><ele>401.6</ele><time>2026-03-30T15:29:37.8Z</time></trkpt><trkpt lat="44.3272021" lon="8.3320049"><ele>401.8</ele><time>2026-03-30T15:29:39.8Z</time></trkpt><trkpt lat="44.3272297" lon="8.3321384"><ele>402.0</ele><time>2026-03-30T15:29:41.801Z</time></trkpt><trkpt lat="44.3272635" lon="8.3322837"><ele>401.0</ele><time>2026-03-30T15:29:43.801Z</time></trkpt><trkpt lat="44.3272859" lon="8.3324215"><ele>400.0</ele><time>2026-03-30T15:29:45.801Z</time></trkpt><trkpt lat="44.3273117" lon="8.332562"><ele>399.0</ele><time>2026-03-30T15:29:47.801Z</time></trkpt><trkpt lat="44.3273201" lon="8.3326924"><ele>398.0</ele><time>2026-03-30T15:29:49.799Z</time></trkpt><trkpt lat="44.3273407" lon="8.332846"><ele>397.0</ele><time>2026-03-30T15:29:51.801Z</time></trkpt><trkpt lat="44.327362" lon="8.3329906"><ele>397.40000000000003</ele><time>2026-03-30T15:29:53.8Z</time></trkpt><trkpt lat="44.3273829" lon="8.33314"><ele>397.8</ele><time>2026-03-30T15:29:55.801Z</time></trkpt><trkpt lat="44.3273899" lon="8.3332869"><ele>398.2</ele><time>2026-03-30T15:29:57.801Z</time></trkpt><trkpt lat="44.3273804" lon="8.3334387"><ele>398.6</ele><time>2026-03-30T15:29:59.8Z</time></trkpt><trkpt lat="44.3273744" lon="8.3335802"><ele>399.0</ele><time>2026-03-30T15:30:01.801Z</time></trkpt><trkpt lat="44.3273689" lon="8.33372"><ele>399.0</ele><time>2026-03-30T15:30:03.801Z</time></trkpt><trkpt lat="44.3273714" lon="8.3338685"><ele>399.0</ele><time>2026-03-30T15:30:05.801Z</time></trkpt><trkpt lat="44.3273889" lon="8.3340218"><ele>399.0</ele><time>2026-03-30T15:30:07.801Z</time></trkpt><trkpt lat="44.3274178" lon="8.3341591"><ele>399.0</ele><time>2026-03-30T15:30:09.801Z</time></trkpt><trkpt lat="44.3274634" lon="8.3342856"><ele>399.0</ele><time>2026-03-30T15:30:11.8Z</time></trkpt><trkpt lat="44.3275195" lon="8.3343915"><ele>400.6</ele><time>2026-03-30T15:30:13.8Z</time></trkpt><trkpt lat="44.3275835" lon="8.3344804"><ele>402.2</ele><time>2026-03-30T15:30:15.8Z</time></trkpt><trkpt lat="44.3276688" lon="8.3345709"><ele>403.8</ele><time>2026-03-30T15:30:17.8Z</time></trkpt><trkpt lat="44.3277573" lon="8.3346265"><ele>405.40000000000003</ele><time>2026-03-30T15:30:19.8Z</time></trkpt><trkpt lat="44.3278382" lon="8.3346818"><ele>407.0</ele><time>2026-03-30T15:30:21.801Z</time></trkpt><trkpt lat="44.3279146" lon="8.3347421"><ele>407.16666666666663</ele><time>2026-03-30T15:30:23.801Z</time></trkpt><trkpt lat="44.3280022" lon="8.3347928"><ele>407.3333333333333</ele><time>2026-03-30T15:30:25.801Z</time></trkpt><trkpt lat="44.3280811" lon="8.3348434"><ele>407.5</ele><time>2026-03-30T15:30:27.802Z</time></trkpt><trkpt lat="44.3281649" lon="8.3348851"><ele>407.66666666666663</ele><time>2026-03-30T15:30:29.799Z</time></trkpt><trkpt lat="44.3282316" lon="8.3349313"><ele>407.8333333333333</ele><time>2026-03-30T15:30:31.8Z</time></trkpt><trkpt lat="44.3283199" lon="8.3349761"><ele>408.0</ele><time>2026-03-30T15:30:33.801Z</time></trkpt><trkpt lat="44.3284022" lon="8.3350329"><ele>408.0</ele><time>2026-03-30T15:30:35.801Z</time></trkpt><trkpt lat="44.3284903" lon="8.3350862"><ele>408.0</ele><time>2026-03-30T15:30:37.801Z</time></trkpt><trkpt lat="44.3285617" lon="8.3351407"><ele>408.0</ele><time>2026-03-30T15:30:39.801Z</time></trkpt><trkpt lat="44.3286472" lon="8.3351832"><ele>408.0</ele><time>2026-03-30T15:30:41.802Z</time></trkpt><trkpt lat="44.328731" lon="8.3352331"><ele>408.0</ele><time>2026-03-30T15:30:43.801Z</time></trkpt><trkpt lat="44.3288188" lon="8.3352739"><ele>407.59999999999997</ele><time>2026-03-30T15:30:45.801Z</time></trkpt><trkpt lat="44.3289095" lon="8.3353382"><ele>407.2</ele><time>2026-03-30T15:30:47.801Z</time></trkpt><trkpt lat="44.3289985" lon="8.3353923"><ele>406.8</ele><time>2026-03-30T15:30:49.8Z</time></trkpt><trkpt lat="44.3290784" lon="8.3354385"><ele>406.4</ele><time>2026-03-30T15:30:51.8Z</time></trkpt><trkpt lat="44.3291632" lon="8.3354656"><ele>406.0</ele><time>2026-03-30T15:30:53.8Z</time></trkpt><trkpt lat="44.3292523" lon="8.3354692"><ele>406.00000000000006</ele><time>2026-03-30T15:30:55.801Z</time></trkpt><trkpt lat="44.3293347" lon="8.3354685"><ele>406.0</ele><time>2026-03-30T15:30:57.801Z</time></trkpt><trkpt lat="44.3294146" lon="8.3354494"><ele>406.0</ele><time>2026-03-30T15:30:59.801Z</time></trkpt><trkpt lat="44.3294918" lon="8.3354258"><ele>406.0</ele><time>2026-03-30T15:31:01.801Z</time></trkpt><trkpt lat="44.3295676" lon="8.335399"><ele>406.00000000000006</ele><time>2026-03-30T15:31:03.8Z</time></trkpt><trkpt lat="44.329642" lon="8.3353655"><ele>406.0</ele><time>2026-03-30T15:31:05.801Z</time></trkpt><trkpt lat="44.3297152" lon="8.3353279"><ele>407.2857142857143</ele><time>2026-03-30T15:31:07.801Z</time></trkpt><trkpt lat="44.329779" lon="8.3352956"><ele>408.57142857142856</ele><time>2026-03-30T15:31:09.8Z</time></trkpt><trkpt lat="44.3298442" lon="8.3352745"><ele>409.8571428571429</ele><time>2026-03-30T15:31:11.801Z</time></trkpt><trkpt lat="44.329908" lon="8.3352446"><ele>411.1428571428571</ele><time>2026-03-30T15:31:13.801Z</time></trkpt><trkpt lat="44.3299739" lon="8.3352069"><ele>412.42857142857144</ele><time>2026-03-30T15:31:15.801Z</time></trkpt><trkpt lat="44.3300359" lon="8.3351726"><ele>413.7142857142857</ele><time>2026-03-30T15:31:17.8Z</time></trkpt><trkpt lat="44.3301176" lon="8.3351206"><ele>415.0</ele><time>2026-03-30T15:31:20.8Z</time></trkpt><trkpt lat="44.3302044" lon="8.3350824"><ele>415.0</ele><time>2026-03-30T15:31:23.801Z</time></trkpt><trkpt lat="44.3302641" lon="8.3350536"><ele>415.0</ele><time>2026-03-30T15:31:25.801Z</time></trkpt><trkpt lat="44.3303267" lon="8.3350234"><ele>415.0</ele><time>2026-03-30T15:31:27.801Z</time></trkpt><trkpt lat="44.3303885" lon="8.3349935"><ele>415.0</ele><time>2026-03-30T15:31:29.801Z</time></trkpt><trkpt lat="44.3304734" lon="8.3349601"><ele>415.0</ele><time>2026-03-30T15:31:32.801Z</time></trkpt><trkpt lat="44.3305316" lon="8.3349255"><ele>415.0</ele><time>2026-03-30T15:31:34.802Z</time></trkpt><trkpt lat="44.3305916" lon="8.3348906"><ele>415.0</ele><time>2026-03-30T15:31:36.801Z</time></trkpt><trkpt lat="44.3306503" lon="8.3348418"><ele>414.42857142857144</ele><time>2026-03-30T15:31:38.801Z</time></trkpt><trkpt lat="44.3307037" lon="8.3347927"><ele>413.8571428571429</ele><time>2026-03-30T15:31:40.8Z</time></trkpt><trkpt lat="44.3307578" lon="8.3347331"><ele>413.2857142857143</ele><time>2026-03-30T15:31:42.801Z</time></trkpt><trkpt lat="44.3308102" lon="8.3346769"><ele>412.7142857142857</ele><time>2026-03-30T15:31:44.801Z</time></trkpt><trkpt lat="44.3308619" lon="8.3346244"><ele>412.1428571428571</ele><time>2026-03-30T15:31:46.801Z</time></trkpt><trkpt lat="44.3309129" lon="8.334572"><ele>411.57142857142856</ele><time>2026-03-30T15:31:48.802Z</time></trkpt><trkpt lat="44.3309862" lon="8.3344923"><ele>411.0</ele><time>2026-03-30T15:31:51.8Z</time></trkpt><trkpt lat="44.3310559" lon="8.33442"><ele>411.0</ele><time>2026-03-30T15:31:54.801Z</time></trkpt><trkpt lat="44.3311272" lon="8.3343421"><ele>411.0</ele><time>2026-03-30T15:31:57.801Z</time></trkpt><trkpt lat="44.3311992" lon="8.3342626"><ele>411.0</ele><time>2026-03-30T15:32:00.801Z</time></trkpt><trkpt lat="44.3312684" lon="8.3341718"><ele>411.0</ele><time>2026-03-30T15:32:03.8Z</time></trkpt><trkpt lat="44.331313" lon="8.3341086"><ele>411.0</ele><time>2026-03-30T15:32:05.801Z</time></trkpt><trkpt lat="44.3313565" lon="8.3340437"><ele>411.0</ele><time>2026-03-30T15:32:07.801Z</time></trkpt><trkpt lat="44.3313966" lon="8.3339739"><ele>411.7142857142857</ele><time>2026-03-30T15:32:09.799Z</time></trkpt><trkpt lat="44.3314435" lon="8.333905"><ele>412.42857142857144</ele><time>2026-03-30T15:32:11.801Z</time></trkpt><trkpt lat="44.3314904" lon="8.3338442"><ele>413.1428571428571</ele><time>2026-03-30T15:32:13.801Z</time></trkpt><trkpt lat="44.3315528" lon="8.3337448"><ele>413.8571428571429</ele><time>2026-03-30T15:32:16.801Z</time></trkpt><trkpt lat="44.331599" lon="8.3336803"><ele>414.5714285714286</ele><time>2026-03-30T15:32:18.801Z</time></trkpt><trkpt lat="44.3316672" lon="8.3335893"><ele>415.2857142857143</ele><time>2026-03-30T15:32:21.801Z</time></trkpt><trkpt lat="44.3317081" lon="8.333522"><ele>416.0</ele><time>2026-03-30T15:32:23.8Z</time></trkpt><trkpt lat="44.331756" lon="8.3334515"><ele>416.0</ele><time>2026-03-30T15:32:25.801Z</time></trkpt><trkpt lat="44.3318032" lon="8.3333824"><ele>416.0</ele><time>2026-03-30T15:32:27.8Z</time></trkpt><trkpt lat="44.3318547" lon="8.3333104"><ele>416.0</ele><time>2026-03-30T15:32:29.799Z</time></trkpt><trkpt lat="44.331908" lon="8.333236"><ele>416.0</ele><time>2026-03-30T15:32:31.799Z</time></trkpt><trkpt lat="44.3319651" lon="8.3331684"><ele>416.0</ele><time>2026-03-30T15:32:33.802Z</time></trkpt><trkpt lat="44.332023" lon="8.3331013"><ele>416.0</ele><time>2026-03-30T15:32:35.799Z</time></trkpt><trkpt lat="44.3320841" lon="8.333027"><ele>416.0</ele><time>2026-03-30T15:32:37.8Z</time></trkpt><trkpt lat="44.3321472" lon="8.3329489"><ele>414.16666666666663</ele><time>2026-03-30T15:32:39.801Z</time></trkpt><trkpt lat="44.3322045" lon="8.3328681"><ele>412.3333333333333</ele><time>2026-03-30T15:32:41.801Z</time></trkpt><trkpt lat="44.33226" lon="8.3327986"><ele>410.5</ele><time>2026-03-30T15:32:43.801Z</time></trkpt><trkpt lat="44.3323219" lon="8.332749"><ele>408.66666666666663</ele><time>2026-03-30T15:32:45.801Z</time></trkpt><trkpt lat="44.3323922" lon="8.3327295"><ele>406.8333333333333</ele><time>2026-03-30T15:32:47.801Z</time></trkpt><trkpt lat="44.3324683" lon="8.332744"><ele>405.0</ele><time>2026-03-30T15:32:49.801Z</time></trkpt><trkpt lat="44.3325739" lon="8.3328339"><ele>409.1666666666667</ele><time>2026-03-30T15:32:51.801Z</time></trkpt><trkpt lat="44.3326291" lon="8.3328793"><ele>413.33333333333337</ele><time>2026-03-30T15:32:52.8Z</time></trkpt><trkpt lat="44.3326987" lon="8.332973"><ele>417.5</ele><time>2026-03-30T15:32:54.801Z</time></trkpt><trkpt lat="44.332764" lon="8.3330045"><ele>421.6666666666667</ele><time>2026-03-30T15:32:55.8Z</time></trkpt><trkpt lat="44.3328543" lon="8.3330162"><ele>425.83333333333337</ele><time>2026-03-30T15:32:56.801Z</time></trkpt><trkpt lat="44.3329365" lon="8.333006"><ele>430.0</ele><time>2026-03-30T15:32:57.801Z</time></trkpt><trkpt lat="44.3330298" lon="8.3329983"><ele>431.2</ele><time>2026-03-30T15:32:58.8Z</time></trkpt><trkpt lat="44.3331307" lon="8.3329765"><ele>432.4</ele><time>2026-03-30T15:32:59.8Z</time></trkpt><trkpt lat="44.333237" lon="8.3329324"><ele>433.6</ele><time>2026-03-30T15:33:00.799Z</time></trkpt><trkpt lat="44.3333375" lon="8.332895"><ele>434.8</ele><time>2026-03-30T15:33:01.801Z</time></trkpt><trkpt lat="44.3334294" lon="8.3328514"><ele>436.0</ele><time>2026-03-30T15:33:02.801Z</time></trkpt><trkpt lat="44.3335285" lon="8.3327944"><ele>436.0</ele><time>2026-03-30T15:33:03.802Z</time></trkpt><trkpt lat="44.3336255" lon="8.3327327"><ele>436.0</ele><time>2026-03-30T15:33:04.801Z</time></trkpt><trkpt lat="44.3337283" lon="8.3326745"><ele>436.0</ele><time>2026-03-30T15:33:05.801Z</time></trkpt><trkpt lat="44.3338365" lon="8.332624"><ele>436.0</ele><time>2026-03-30T15:33:06.8Z</time></trkpt><trkpt lat="44.3339503" lon="8.3325803"><ele>431.75</ele><time>2026-03-30T15:33:07.801Z</time></trkpt><trkpt lat="44.3340645" lon="8.3325369"><ele>427.5</ele><time>2026-03-30T15:33:08.8Z</time></trkpt><trkpt lat="44.3341808" lon="8.3324902"><ele>423.25</ele><time>2026-03-30T15:33:09.799Z</time></trkpt><trkpt lat="44.3343039" lon="8.3324399"><ele>419.0</ele><time>2026-03-30T15:33:10.8Z</time></trkpt><trkpt lat="44.334424" lon="8.3323948"><ele>419.0</ele><time>2026-03-30T15:33:11.801Z</time></trkpt><trkpt lat="44.334548" lon="8.3323553"><ele>419.0</ele><time>2026-03-30T15:33:12.8Z</time></trkpt><trkpt lat="44.3346633" lon="8.332328"><ele>419.0</ele><time>2026-03-30T15:33:13.8Z</time></trkpt><trkpt lat="44.3347789" lon="8.3323031"><ele>419.0</ele><time>2026-03-30T15:33:14.801Z</time></trkpt><trkpt lat="44.3348899" lon="8.3322889"><ele>416.6</ele><time>2026-03-30T15:33:15.799Z</time></trkpt><trkpt lat="44.335" lon="8.3322672"><ele>414.2</ele><time>2026-03-30T15:33:16.801Z</time></trkpt><trkpt lat="44.3351086" lon="8.3322387"><ele>411.8</ele><time>2026-03-30T15:33:17.801Z</time></trkpt><trkpt lat="44.3352188" lon="8.3322076"><ele>409.40000000000003</ele><time>2026-03-30T15:33:18.802Z</time></trkpt><trkpt lat="44.335318" lon="8.332198"><ele>407.0</ele><time>2026-03-30T15:33:19.801Z</time></trkpt><trkpt lat="44.3354134" lon="8.3322032"><ele>406.8333333333333</ele><time>2026-03-30T15:33:20.801Z</time></trkpt><trkpt lat="44.335496" lon="8.3322339"><ele>406.66666666666663</ele><time>2026-03-30T15:33:21.8Z</time></trkpt><trkpt lat="44.3355715" lon="8.332292"><ele>406.5</ele><time>2026-03-30T15:33:22.799Z</time></trkpt><trkpt lat="44.3356248" lon="8.3323661"><ele>406.33333333333337</ele><time>2026-03-30T15:33:23.801Z</time></trkpt><trkpt lat="44.3356565" lon="8.3324622"><ele>406.1666666666667</ele><time>2026-03-30T15:33:24.801Z</time></trkpt><trkpt lat="44.3356587" lon="8.3325696"><ele>406.0</ele><time>2026-03-30T15:33:25.8Z</time></trkpt><trkpt lat="44.3356476" lon="8.3326704"><ele>407.00000000000006</ele><time>2026-03-30T15:33:26.802Z</time></trkpt><trkpt lat="44.3356355" lon="8.3327638"><ele>408.0</ele><time>2026-03-30T15:33:27.801Z</time></trkpt><trkpt lat="44.3356226" lon="8.3328564"><ele>409.0</ele><time>2026-03-30T15:33:28.801Z</time></trkpt><trkpt lat="44.335614" lon="8.3329467"><ele>410.0</ele><time>2026-03-30T15:33:29.8Z</time></trkpt><trkpt lat="44.3355897" lon="8.3331055"><ele>411.00000000000006</ele><time>2026-03-30T15:33:31.801Z</time></trkpt><trkpt lat="44.3355621" lon="8.3332502"><ele>412.0</ele><time>2026-03-30T15:33:33.801Z</time></trkpt><trkpt lat="44.3355397" lon="8.3333954"><ele>412.0</ele><time>2026-03-30T15:33:35.799Z</time></trkpt><trkpt lat="44.3355227" lon="8.3335218"><ele>412.0</ele><time>2026-03-30T15:33:37.8Z</time></trkpt><trkpt lat="44.3355068" lon="8.3336488"><ele>412.0</ele><time>2026-03-30T15:33:39.801Z</time></trkpt><trkpt lat="44.335473" lon="8.3337668"><ele>412.0</ele><time>2026-03-30T15:33:41.8Z</time></trkpt><trkpt lat="44.3354471" lon="8.33392"><ele>412.0</ele><time>2026-03-30T15:33:43.801Z</time></trkpt><trkpt lat="44.335426" lon="8.3340587"><ele>411.6</ele><time>2026-03-30T15:33:45.799Z</time></trkpt><trkpt lat="44.335399" lon="8.3341915"><ele>411.20000000000005</ele><time>2026-03-30T15:33:47.8Z</time></trkpt><trkpt lat="44.3353772" lon="8.3343354"><ele>410.8</ele><time>2026-03-30T15:33:49.799Z</time></trkpt><trkpt lat="44.3353495" lon="8.3344587"><ele>410.4</ele><time>2026-03-30T15:33:51.801Z</time></trkpt><trkpt lat="44.3353226" lon="8.3345837"><ele>410.0</ele><time>2026-03-30T15:33:53.8Z</time></trkpt><trkpt lat="44.3353048" lon="8.3347224"><ele>409.6</ele><time>2026-03-30T15:33:55.801Z</time></trkpt><trkpt lat="44.3352692" lon="8.3348801"><ele>409.2</ele><time>2026-03-30T15:33:57.801Z</time></trkpt><trkpt lat="44.3352462" lon="8.3350428"><ele>408.79999999999995</ele><time>2026-03-30T15:33:59.802Z</time></trkpt><trkpt lat="44.3352287" lon="8.3351771"><ele>408.4</ele><time>2026-03-30T15:34:01.801Z</time></trkpt><trkpt lat="44.3352042" lon="8.3353143"><ele>408.0</ele><time>2026-03-30T15:34:03.801Z</time></trkpt><trkpt lat="44.3351756" lon="8.3354545"><ele>407.2</ele><time>2026-03-30T15:34:05.801Z</time></trkpt><trkpt lat="44.3351465" lon="8.335602"><ele>406.4</ele><time>2026-03-30T15:34:07.8Z</time></trkpt><trkpt lat="44.3351188" lon="8.33573"><ele>405.59999999999997</ele><time>2026-03-30T15:34:09.8Z</time></trkpt><trkpt lat="44.3350969" lon="8.3358372"><ele>404.79999999999995</ele><time>2026-03-30T15:34:11.801Z</time></trkpt><trkpt lat="44.3350741" lon="8.3359606"><ele>404.0</ele><time>2026-03-30T15:34:13.8Z</time></trkpt><trkpt lat="44.3350517" lon="8.3360888"><ele>404.0</ele><time>2026-03-30T15:34:15.801Z</time></trkpt><trkpt lat="44.3350277" lon="8.3362184"><ele>404.0</ele><time>2026-03-30T15:34:17.801Z</time></trkpt><trkpt lat="44.3350048" lon="8.3363411"><ele>404.0</ele><time>2026-03-30T15:34:19.801Z</time></trkpt><trkpt lat="44.335003" lon="8.3364687"><ele>404.0</ele><time>2026-03-30T15:34:21.801Z</time></trkpt><trkpt lat="44.3350218" lon="8.3365977"><ele>404.0</ele><time>2026-03-30T15:34:23.801Z</time></trkpt><trkpt lat="44.3350433" lon="8.33673"><ele>403.8333333333333</ele><time>2026-03-30T15:34:25.801Z</time></trkpt><trkpt lat="44.3350729" lon="8.3368411"><ele>403.66666666666663</ele><time>2026-03-30T15:34:27.8Z</time></trkpt><trkpt lat="44.3350981" lon="8.3369563"><ele>403.5</ele><time>2026-03-30T15:34:29.8Z</time></trkpt><trkpt lat="44.3351239" lon="8.3370671"><ele>403.33333333333337</ele><time>2026-03-30T15:34:31.801Z</time></trkpt><trkpt lat="44.3351397" lon="8.337177"><ele>403.1666666666667</ele><time>2026-03-30T15:34:33.799Z</time></trkpt><trkpt lat="44.3351403" lon="8.3372787"><ele>403.0</ele><time>2026-03-30T15:34:35.8Z</time></trkpt><trkpt lat="44.3351323" lon="8.3373761"><ele>404.42857142857144</ele><time>2026-03-30T15:34:37.8Z</time></trkpt><trkpt lat="44.3351246" lon="8.3374743"><ele>405.85714285714283</ele><time>2026-03-30T15:34:39.801Z</time></trkpt><trkpt lat="44.3351159" lon="8.3375739"><ele>407.2857142857143</ele><time>2026-03-30T15:34:41.801Z</time></trkpt><trkpt lat="44.3351081" lon="8.337671"><ele>408.7142857142857</ele><time>2026-03-30T15:34:43.8Z</time></trkpt><trkpt lat="44.3350966" lon="8.3377663"><ele>410.1428571428571</ele><time>2026-03-30T15:34:45.801Z</time></trkpt><trkpt lat="44.335092" lon="8.3378735"><ele>411.57142857142856</ele><time>2026-03-30T15:34:47.801Z</time></trkpt><trkpt lat="44.3350828" lon="8.3379757"><ele>413.0</ele><time>2026-03-30T15:34:49.801Z</time></trkpt><trkpt lat="44.3350731" lon="8.3380809"><ele>414.0</ele><time>2026-03-30T15:34:51.801Z</time></trkpt><trkpt lat="44.3350731" lon="8.3381887"><ele>415.0</ele><time>2026-03-30T15:34:53.799Z</time></trkpt><trkpt lat="44.3350941" lon="8.3383034"><ele>416.0</ele><time>2026-03-30T15:34:55.801Z</time></trkpt><trkpt lat="44.3351319" lon="8.3384163"><ele>417.0</ele><time>2026-03-30T15:34:57.799Z</time></trkpt><trkpt lat="44.3352079" lon="8.3385006"><ele>418.0</ele><time>2026-03-30T15:34:59.801Z</time></trkpt><trkpt lat="44.3353124" lon="8.3385377"><ele>418.0</ele><time>2026-03-30T15:35:01.801Z</time></trkpt><trkpt lat="44.3354074" lon="8.33852"><ele>418.0</ele><time>2026-03-30T15:35:03.8Z</time></trkpt><trkpt lat="44.3355143" lon="8.3384719"><ele>418.0</ele><time>2026-03-30T15:35:05.801Z</time></trkpt><trkpt lat="44.3356122" lon="8.3384678"><ele>418.0</ele><time>2026-03-30T15:35:07.8Z</time></trkpt><trkpt lat="44.3356904" lon="8.3385035"><ele>418.0</ele><time>2026-03-30T15:35:09.801Z</time></trkpt><trkpt lat="44.3357732" lon="8.338454"><ele>415.4</ele><time>2026-03-30T15:35:12.8Z</time></trkpt><trkpt lat="44.3358201" lon="8.3383626"><ele>412.79999999999995</ele><time>2026-03-30T15:35:14.801Z</time></trkpt><trkpt lat="44.3358076" lon="8.3382212"><ele>410.2</ele><time>2026-03-30T15:35:16.801Z</time></trkpt><trkpt lat="44.3358096" lon="8.3380791"><ele>407.6</ele><time>2026-03-30T15:35:18.801Z</time></trkpt><trkpt lat="44.335795" lon="8.3379368"><ele>405.0</ele><time>2026-03-30T15:35:20.801Z</time></trkpt><trkpt lat="44.3357893" lon="8.3378005"><ele>405.0</ele><time>2026-03-30T15:35:22.8Z</time></trkpt><trkpt lat="44.3357946" lon="8.3376911"><ele>405.0</ele><time>2026-03-30T15:35:24.801Z</time></trkpt><trkpt lat="44.3358052" lon="8.3375967"><ele>405.0</ele><time>2026-03-30T15:35:25.801Z</time></trkpt><trkpt lat="44.335824" lon="8.3374513"><ele>405.0</ele><time>2026-03-30T15:35:27.8Z</time></trkpt><trkpt lat="44.3358644" lon="8.3373019"><ele>405.0</ele><time>2026-03-30T15:35:29.802Z</time></trkpt><trkpt lat="44.3358837" lon="8.3371572"><ele>404.6</ele><time>2026-03-30T15:35:31.801Z</time></trkpt><trkpt lat="44.3359256" lon="8.3370314"><ele>404.2</ele><time>2026-03-30T15:35:33.801Z</time></trkpt><trkpt lat="44.3359457" lon="8.3369134"><ele>403.79999999999995</ele><time>2026-03-30T15:35:35.8Z</time></trkpt><trkpt lat="44.3359859" lon="8.3368076"><ele>403.4</ele><time>2026-03-30T15:35:37.801Z</time></trkpt><trkpt lat="44.3360339" lon="8.3366767"><ele>403.0</ele><time>2026-03-30T15:35:39.8Z</time></trkpt><trkpt lat="44.3360519" lon="8.3365336"><ele>403.0</ele><time>2026-03-30T15:35:41.8Z</time></trkpt><trkpt lat="44.3360876" lon="8.3363895"><ele>403.0</ele><time>2026-03-30T15:35:43.801Z</time></trkpt><trkpt lat="44.3361211" lon="8.336239"><ele>403.0</ele><time>2026-03-30T15:35:45.801Z</time></trkpt><trkpt lat="44.3361561" lon="8.3360814"><ele>403.0</ele><time>2026-03-30T15:35:47.8Z</time></trkpt><trkpt lat="44.3361905" lon="8.3359132"><ele>402.0</ele><time>2026-03-30T15:35:49.801Z</time></trkpt><trkpt lat="44.3362232" lon="8.3357662"><ele>401.0</ele><time>2026-03-30T15:35:51.8Z</time></trkpt><trkpt lat="44.3362542" lon="8.3356203"><ele>400.0</ele><time>2026-03-30T15:35:53.801Z</time></trkpt><trkpt lat="44.3362894" lon="8.3354619"><ele>399.0</ele><time>2026-03-30T15:35:55.8Z</time></trkpt><trkpt lat="44.3363209" lon="8.3353023"><ele>398.75</ele><time>2026-03-30T15:35:57.801Z</time></trkpt><trkpt lat="44.3363546" lon="8.3351472"><ele>398.5</ele><time>2026-03-30T15:35:59.8Z</time></trkpt><trkpt lat="44.3363893" lon="8.3350009"><ele>398.25</ele><time>2026-03-30T15:36:01.8Z</time></trkpt><trkpt lat="44.3364302" lon="8.334852"><ele>398.0</ele><time>2026-03-30T15:36:03.8Z</time></trkpt><trkpt lat="44.3364684" lon="8.3347021"><ele>399.4</ele><time>2026-03-30T15:36:05.801Z</time></trkpt><trkpt lat="44.3365017" lon="8.3345532"><ele>400.79999999999995</ele><time>2026-03-30T15:36:07.8Z</time></trkpt><trkpt lat="44.3365419" lon="8.3344041"><ele>402.2</ele><time>2026-03-30T15:36:09.801Z</time></trkpt><trkpt lat="44.3365775" lon="8.3342637"><ele>403.6</ele><time>2026-03-30T15:36:11.799Z</time></trkpt><trkpt lat="44.336611" lon="8.3341222"><ele>405.0</ele><time>2026-03-30T15:36:13.801Z</time></trkpt><trkpt lat="44.3366402" lon="8.3339764"><ele>404.2</ele><time>2026-03-30T15:36:15.801Z</time></trkpt><trkpt lat="44.3366769" lon="8.3338391"><ele>403.4</ele><time>2026-03-30T15:36:17.802Z</time></trkpt><trkpt lat="44.3367054" lon="8.3337001"><ele>402.6</ele><time>2026-03-30T15:36:19.8Z</time></trkpt><trkpt lat="44.3367414" lon="8.3335667"><ele>401.8</ele><time>2026-03-30T15:36:21.8Z</time></trkpt><trkpt lat="44.3367731" lon="8.3334337"><ele>401.0</ele><time>2026-03-30T15:36:23.801Z</time></trkpt><trkpt lat="44.3368095" lon="8.3332979"><ele>401.0</ele><time>2026-03-30T15:36:25.801Z</time></trkpt><trkpt lat="44.3368458" lon="8.3331608"><ele>401.0</ele><time>2026-03-30T15:36:27.8Z</time></trkpt><trkpt lat="44.3368774" lon="8.3330177"><ele>401.0</ele><time>2026-03-30T15:36:29.801Z</time></trkpt><trkpt lat="44.336908" lon="8.3328641"><ele>401.0</ele><time>2026-03-30T15:36:31.8Z</time></trkpt><trkpt lat="44.3369376" lon="8.3327091"><ele>401.0</ele><time>2026-03-30T15:36:33.801Z</time></trkpt><trkpt lat="44.3369631" lon="8.3325339"><ele>400.66666666666663</ele><time>2026-03-30T15:36:35.801Z</time></trkpt><trkpt lat="44.3369992" lon="8.332365"><ele>400.3333333333333</ele><time>2026-03-30T15:36:37.8Z</time></trkpt><trkpt lat="44.337017" lon="8.3322736"><ele>400.0</ele><time>2026-03-30T15:36:38.801Z</time></trkpt><trkpt lat="44.3370313" lon="8.3321782"><ele>399.66666666666663</ele><time>2026-03-30T15:36:39.8Z</time></trkpt><trkpt lat="44.3370422" lon="8.3320832"><ele>399.3333333333333</ele><time>2026-03-30T15:36:40.8Z</time></trkpt><trkpt lat="44.3370541" lon="8.331986"><ele>399.0</ele><time>2026-03-30T15:36:41.8Z</time></trkpt><trkpt lat="44.3370701" lon="8.3318865"><ele>398.3333333333333</ele><time>2026-03-30T15:36:42.801Z</time></trkpt><trkpt lat="44.3370838" lon="8.3317864"><ele>397.66666666666663</ele><time>2026-03-30T15:36:43.801Z</time></trkpt><trkpt lat="44.3370956" lon="8.3316854"><ele>397.0</ele><time>2026-03-30T15:36:44.801Z</time></trkpt><trkpt lat="44.3371078" lon="8.3315788"><ele>396.3333333333333</ele><time>2026-03-30T15:36:45.8Z</time></trkpt><trkpt lat="44.3371191" lon="8.3314759"><ele>395.66666666666663</ele><time>2026-03-30T15:36:46.801Z</time></trkpt><trkpt lat="44.3371286" lon="8.3313695"><ele>395.0</ele><time>2026-03-30T15:36:47.801Z</time></trkpt><trkpt lat="44.3371446" lon="8.3312603"><ele>394.66666666666663</ele><time>2026-03-30T15:36:48.801Z</time></trkpt><trkpt lat="44.3371635" lon="8.3311471"><ele>394.3333333333333</ele><time>2026-03-30T15:36:49.8Z</time></trkpt><trkpt lat="44.3371809" lon="8.3310366"><ele>394.0</ele><time>2026-03-30T15:36:50.801Z</time></trkpt><trkpt lat="44.3371985" lon="8.3309297"><ele>393.66666666666663</ele><time>2026-03-30T15:36:51.8Z</time></trkpt><trkpt lat="44.337214" lon="8.3308187"><ele>393.3333333333333</ele><time>2026-03-30T15:36:52.8Z</time></trkpt><trkpt lat="44.3372291" lon="8.3307137"><ele>393.0</ele><time>2026-03-30T15:36:53.8Z</time></trkpt><trkpt lat="44.337244" lon="8.3306042"><ele>393.0</ele><time>2026-03-30T15:36:54.799Z</time></trkpt><trkpt lat="44.3372659" lon="8.3304958"><ele>393.0</ele><time>2026-03-30T15:36:55.802Z</time></trkpt><trkpt lat="44.3372983" lon="8.3303915"><ele>393.0</ele><time>2026-03-30T15:36:56.8Z</time></trkpt><trkpt lat="44.3373224" lon="8.3302821"><ele>393.0</ele><time>2026-03-30T15:36:57.802Z</time></trkpt><trkpt lat="44.3373457" lon="8.3301754"><ele>393.0</ele><time>2026-03-30T15:36:58.799Z</time></trkpt><trkpt lat="44.3373709" lon="8.3300622"><ele>393.0</ele><time>2026-03-30T15:36:59.8Z</time></trkpt><trkpt lat="44.337399" lon="8.3299466"><ele>393.0</ele><time>2026-03-30T15:37:00.8Z</time></trkpt><trkpt lat="44.3374238" lon="8.3298359"><ele>393.0</ele><time>2026-03-30T15:37:01.8Z</time></trkpt><trkpt lat="44.3374633" lon="8.3297212"><ele>393.0</ele><time>2026-03-30T15:37:02.801Z</time></trkpt><trkpt lat="44.3375029" lon="8.32962"><ele>393.0</ele><time>2026-03-30T15:37:03.8Z</time></trkpt><trkpt lat="44.3375429" lon="8.3295251"><ele>393.0</ele><time>2026-03-30T15:37:04.801Z</time></trkpt><trkpt lat="44.3375796" lon="8.3294302"><ele>393.0</ele><time>2026-03-30T15:37:05.8Z</time></trkpt><trkpt lat="44.3376217" lon="8.3293348"><ele>392.3333333333333</ele><time>2026-03-30T15:37:06.8Z</time></trkpt><trkpt lat="44.3376648" lon="8.3292429"><ele>391.66666666666663</ele><time>2026-03-30T15:37:07.801Z</time></trkpt><trkpt lat="44.3377174" lon="8.3291696"><ele>391.0</ele><time>2026-03-30T15:37:08.801Z</time></trkpt><trkpt lat="44.3377746" lon="8.3291102"><ele>390.3333333333333</ele><time>2026-03-30T15:37:09.8Z</time></trkpt><trkpt lat="44.337818" lon="8.329033"><ele>389.66666666666663</ele><time>2026-03-30T15:37:10.8Z</time></trkpt><trkpt lat="44.3378565" lon="8.3289407"><ele>389.0</ele><time>2026-03-30T15:37:11.799Z</time></trkpt><trkpt lat="44.3379001" lon="8.3288488"><ele>388.99999999999994</ele><time>2026-03-30T15:37:12.801Z</time></trkpt><trkpt lat="44.3379479" lon="8.3287635"><ele>389.0</ele><time>2026-03-30T15:37:13.8Z</time></trkpt><trkpt lat="44.3380027" lon="8.3286894"><ele>389.0</ele><time>2026-03-30T15:37:14.801Z</time></trkpt><trkpt lat="44.3380569" lon="8.3286153"><ele>389.0</ele><time>2026-03-30T15:37:15.8Z</time></trkpt><trkpt lat="44.3381192" lon="8.3285517"><ele>388.99999999999994</ele><time>2026-03-30T15:37:16.8Z</time></trkpt><trkpt lat="44.3381805" lon="8.3284993"><ele>389.0</ele><time>2026-03-30T15:37:17.8Z</time></trkpt><trkpt lat="44.338238" lon="8.3284404"><ele>389.0</ele><time>2026-03-30T15:37:18.801Z</time></trkpt><trkpt lat="44.3382941" lon="8.3283816"><ele>389.0</ele><time>2026-03-30T15:37:19.802Z</time></trkpt><trkpt lat="44.3383524" lon="8.3283241"><ele>389.0</ele><time>2026-03-30T15:37:20.801Z</time></trkpt><trkpt lat="44.3384096" lon="8.3282661"><ele>389.0</ele><time>2026-03-30T15:37:21.8Z</time></trkpt><trkpt lat="44.3384691" lon="8.3282107"><ele>389.0</ele><time>2026-03-30T15:37:22.8Z</time></trkpt><trkpt lat="44.3385202" lon="8.3281492"><ele>389.0</ele><time>2026-03-30T15:37:23.801Z</time></trkpt><trkpt lat="44.3385703" lon="8.3280911"><ele>389.0</ele><time>2026-03-30T15:37:24.8Z</time></trkpt><trkpt lat="44.3386228" lon="8.3280412"><ele>389.0</ele><time>2026-03-30T15:37:25.801Z</time></trkpt><trkpt lat="44.3386754" lon="8.3279849"><ele>389.0</ele><time>2026-03-30T15:37:26.802Z</time></trkpt><trkpt lat="44.3387253" lon="8.3279267"><ele>389.0</ele><time>2026-03-30T15:37:27.801Z</time></trkpt><trkpt lat="44.3387813" lon="8.3278641"><ele>389.0</ele><time>2026-03-30T15:37:28.801Z</time></trkpt><trkpt lat="44.3388315" lon="8.3278026"><ele>389.0</ele><time>2026-03-30T15:37:29.8Z</time></trkpt><trkpt lat="44.3388829" lon="8.3277444"><ele>389.0</ele><time>2026-03-30T15:37:30.801Z</time></trkpt><trkpt lat="44.3389342" lon="8.3276897"><ele>389.0</ele><time>2026-03-30T15:37:31.8Z</time></trkpt><trkpt lat="44.339042" lon="8.3275789"><ele>388.8571428571429</ele><time>2026-03-30T15:37:33.801Z</time></trkpt><trkpt lat="44.3391" lon="8.327543"><ele>388.71428571428567</ele><time>2026-03-30T15:37:34.799Z</time></trkpt><trkpt lat="44.3391633" lon="8.3275011"><ele>388.57142857142856</ele><time>2026-03-30T15:37:35.8Z</time></trkpt><trkpt lat="44.3392166" lon="8.3274478"><ele>388.42857142857144</ele><time>2026-03-30T15:37:36.802Z</time></trkpt><trkpt lat="44.3392689" lon="8.3273931"><ele>388.28571428571433</ele><time>2026-03-30T15:37:37.801Z</time></trkpt><trkpt lat="44.3393589" lon="8.3272996"><ele>388.1428571428571</ele><time>2026-03-30T15:37:39.8Z</time></trkpt><trkpt lat="44.3394094" lon="8.3272437"><ele>388.0</ele><time>2026-03-30T15:37:40.799Z</time></trkpt><trkpt lat="44.3394633" lon="8.3271864"><ele>387.57142857142856</ele><time>2026-03-30T15:37:41.801Z</time></trkpt><trkpt lat="44.3395194" lon="8.3271339"><ele>387.14285714285717</ele><time>2026-03-30T15:37:42.801Z</time></trkpt><trkpt lat="44.3395777" lon="8.3270809"><ele>386.7142857142857</ele><time>2026-03-30T15:37:43.801Z</time></trkpt><trkpt lat="44.3396305" lon="8.3270236"><ele>386.2857142857143</ele><time>2026-03-30T15:37:44.8Z</time></trkpt><trkpt lat="44.3396801" lon="8.3269646"><ele>385.8571428571429</ele><time>2026-03-30T15:37:45.8Z</time></trkpt><trkpt lat="44.3397302" lon="8.3269089"><ele>385.42857142857144</ele><time>2026-03-30T15:37:46.801Z</time></trkpt><trkpt lat="44.3397847" lon="8.3268504"><ele>385.0</ele><time>2026-03-30T15:37:47.8Z</time></trkpt><trkpt lat="44.3398407" lon="8.3267936"><ele>385.00000000000006</ele><time>2026-03-30T15:37:48.801Z</time></trkpt><trkpt lat="44.3398964" lon="8.3267372"><ele>385.0</ele><time>2026-03-30T15:37:49.799Z</time></trkpt><trkpt lat="44.3399454" lon="8.3266796"><ele>385.0</ele><time>2026-03-30T15:37:50.801Z</time></trkpt><trkpt lat="44.3399968" lon="8.3266214"><ele>385.0</ele><time>2026-03-30T15:37:51.8Z</time></trkpt><trkpt lat="44.3400512" lon="8.3265697"><ele>385.00000000000006</ele><time>2026-03-30T15:37:52.801Z</time></trkpt><trkpt lat="44.3401623" lon="8.3264975"><ele>385.0</ele><time>2026-03-30T15:37:54.801Z</time></trkpt><trkpt lat="44.3402208" lon="8.3264492"><ele>384.5</ele><time>2026-03-30T15:37:55.801Z</time></trkpt><trkpt lat="44.3403333" lon="8.3263765"><ele>384.0</ele><time>2026-03-30T15:37:57.8Z</time></trkpt><trkpt lat="44.3404267" lon="8.3262725"><ele>383.5</ele><time>2026-03-30T15:37:59.801Z</time></trkpt><trkpt lat="44.3405239" lon="8.3261687"><ele>383.0</ele><time>2026-03-30T15:38:01.8Z</time></trkpt><trkpt lat="44.3406239" lon="8.3260853"><ele>383.0</ele><time>2026-03-30T15:38:03.801Z</time></trkpt><trkpt lat="44.3407232" lon="8.3259815"><ele>383.0</ele><time>2026-03-30T15:38:05.8Z</time></trkpt><trkpt lat="44.3408157" lon="8.325886"><ele>383.0</ele><time>2026-03-30T15:38:07.8Z</time></trkpt><trkpt lat="44.3409082" lon="8.3257885"><ele>383.0</ele><time>2026-03-30T15:38:09.801Z</time></trkpt><trkpt lat="44.3410078" lon="8.3256983"><ele>383.0</ele><time>2026-03-30T15:38:11.8Z</time></trkpt><trkpt lat="44.3410628" lon="8.3256523"><ele>383.0</ele><time>2026-03-30T15:38:12.801Z</time></trkpt><trkpt lat="44.3411546" lon="8.3255531"><ele>383.0</ele><time>2026-03-30T15:38:14.801Z</time></trkpt><trkpt lat="44.341251" lon="8.3254512"><ele>383.0</ele><time>2026-03-30T15:38:16.801Z</time></trkpt><trkpt lat="44.3413457" lon="8.3253594"><ele>383.0</ele><time>2026-03-30T15:38:18.8Z</time></trkpt><trkpt lat="44.3414319" lon="8.325263"><ele>382.25</ele><time>2026-03-30T15:38:20.801Z</time></trkpt><trkpt lat="44.3415263" lon="8.3251658"><ele>381.5</ele><time>2026-03-30T15:38:22.8Z</time></trkpt><trkpt lat="44.3416164" lon="8.3250682"><ele>380.75</ele><time>2026-03-30T15:38:24.8Z</time></trkpt><trkpt lat="44.3417026" lon="8.3249679"><ele>380.0</ele><time>2026-03-30T15:38:26.801Z</time></trkpt><trkpt lat="44.3417843" lon="8.3248564"><ele>380.0</ele><time>2026-03-30T15:38:28.799Z</time></trkpt><trkpt lat="44.3418499" lon="8.3247379"><ele>380.0</ele><time>2026-03-30T15:38:30.8Z</time></trkpt><trkpt lat="44.3418774" lon="8.3246036"><ele>380.0</ele><time>2026-03-30T15:38:32.801Z</time></trkpt><trkpt lat="44.3418965" lon="8.3244639"><ele>380.0</ele><time>2026-03-30T15:38:34.802Z</time></trkpt><trkpt lat="44.3418997" lon="8.3243296"><ele>380.0</ele><time>2026-03-30T15:38:36.8Z</time></trkpt><trkpt lat="44.341847" lon="8.3242114"><ele>380.4</ele><time>2026-03-30T15:38:38.8Z</time></trkpt><trkpt lat="44.3417441" lon="8.3241613"><ele>380.8</ele><time>2026-03-30T15:38:40.8Z</time></trkpt><trkpt lat="44.3416461" lon="8.3242151"><ele>381.20000000000005</ele><time>2026-03-30T15:38:42.8Z</time></trkpt><trkpt lat="44.3415544" lon="8.3242996"><ele>381.6</ele><time>2026-03-30T15:38:44.8Z</time></trkpt><trkpt lat="44.34144" lon="8.3243217"><ele>382.0</ele><time>2026-03-30T15:38:46.801Z</time></trkpt><trkpt lat="44.3413752" lon="8.3242951"><ele>382.0</ele><time>2026-03-30T15:38:47.801Z</time></trkpt><trkpt lat="44.3413203" lon="8.3242439"><ele>382.0</ele><time>2026-03-30T15:38:48.8Z</time></trkpt><trkpt lat="44.3412774" lon="8.3241702"><ele>382.0</ele><time>2026-03-30T15:38:49.799Z</time></trkpt><trkpt lat="44.3412416" lon="8.3240917"><ele>382.0</ele><time>2026-03-30T15:38:50.801Z</time></trkpt><trkpt lat="44.3412244" lon="8.324002"><ele>382.0</ele><time>2026-03-30T15:38:51.803Z</time></trkpt><trkpt lat="44.3412059" lon="8.3238503"><ele>382.0</ele><time>2026-03-30T15:38:53.802Z</time></trkpt><trkpt lat="44.3411768" lon="8.3237278"><ele>383.8</ele><time>2026-03-30T15:38:55.801Z</time></trkpt><trkpt lat="44.3411379" lon="8.3236219"><ele>385.6</ele><time>2026-03-30T15:38:57.8Z</time></trkpt><trkpt lat="44.341086" lon="8.3235182"><ele>387.40000000000003</ele><time>2026-03-30T15:38:59.802Z</time></trkpt><trkpt lat="44.3410321" lon="8.3234171"><ele>389.20000000000005</ele><time>2026-03-30T15:39:01.801Z</time></trkpt><trkpt lat="44.3409679" lon="8.3233276"><ele>391.0</ele><time>2026-03-30T15:39:03.802Z</time></trkpt><trkpt lat="44.3409017" lon="8.3232314"><ele>391.0</ele><time>2026-03-30T15:39:05.8Z</time></trkpt><trkpt lat="44.3408395" lon="8.3231278"><ele>391.0</ele><time>2026-03-30T15:39:07.801Z</time></trkpt><trkpt lat="44.3407686" lon="8.3230128"><ele>391.0</ele><time>2026-03-30T15:39:09.8Z</time></trkpt><trkpt lat="44.3406905" lon="8.3229066"><ele>391.0</ele><time>2026-03-30T15:39:11.8Z</time></trkpt><trkpt lat="44.3406093" lon="8.3227858"><ele>391.0</ele><time>2026-03-30T15:39:13.8Z</time></trkpt><trkpt lat="44.3405368" lon="8.3226807"><ele>390.20000000000005</ele><time>2026-03-30T15:39:15.801Z</time></trkpt><trkpt lat="44.3404693" lon="8.3225824"><ele>389.40000000000003</ele><time>2026-03-30T15:39:17.801Z</time></trkpt><trkpt lat="44.340424" lon="8.3224843"><ele>388.6</ele><time>2026-03-30T15:39:19.8Z</time></trkpt><trkpt lat="44.3403687" lon="8.3223822"><ele>387.8</ele><time>2026-03-30T15:39:21.8Z</time></trkpt><trkpt lat="44.3403019" lon="8.3222722"><ele>387.0</ele><time>2026-03-30T15:39:23.802Z</time></trkpt><trkpt lat="44.3402388" lon="8.3221692"><ele>389.0</ele><time>2026-03-30T15:39:25.801Z</time></trkpt><trkpt lat="44.3401637" lon="8.3220584"><ele>391.0</ele><time>2026-03-30T15:39:27.801Z</time></trkpt><trkpt lat="44.3400935" lon="8.321953"><ele>393.0</ele><time>2026-03-30T15:39:29.801Z</time></trkpt><trkpt lat="44.3400197" lon="8.3218552"><ele>395.0</ele><time>2026-03-30T15:39:31.8Z</time></trkpt><trkpt lat="44.3399549" lon="8.3217581"><ele>397.0</ele><time>2026-03-30T15:39:33.801Z</time></trkpt><trkpt lat="44.3398726" lon="8.3216829"><ele>397.0</ele><time>2026-03-30T15:39:35.8Z</time></trkpt><trkpt lat="44.3397819" lon="8.3216131"><ele>397.0</ele><time>2026-03-30T15:39:37.801Z</time></trkpt><trkpt lat="44.3396872" lon="8.3215553"><ele>397.0</ele><time>2026-03-30T15:39:39.8Z</time></trkpt><trkpt lat="44.3395862" lon="8.3215401"><ele>397.0</ele><time>2026-03-30T15:39:41.8Z</time></trkpt><trkpt lat="44.3394837" lon="8.3215122"><ele>397.0</ele><time>2026-03-30T15:39:43.8Z</time></trkpt><trkpt lat="44.3393842" lon="8.321469"><ele>398.20000000000005</ele><time>2026-03-30T15:39:45.801Z</time></trkpt><trkpt lat="44.339298" lon="8.3214214"><ele>399.4</ele><time>2026-03-30T15:39:47.801Z</time></trkpt><trkpt lat="44.3392097" lon="8.3213806"><ele>400.6</ele><time>2026-03-30T15:39:49.801Z</time></trkpt><trkpt lat="44.3391243" lon="8.3213256"><ele>401.79999999999995</ele><time>2026-03-30T15:39:51.799Z</time></trkpt><trkpt lat="44.3390419" lon="8.3212683"><ele>403.0</ele><time>2026-03-30T15:39:53.8Z</time></trkpt><trkpt lat="44.3389561" lon="8.3212158"><ele>403.4</ele><time>2026-03-30T15:39:55.801Z</time></trkpt><trkpt lat="44.3388671" lon="8.3211907"><ele>403.79999999999995</ele><time>2026-03-30T15:39:57.801Z</time></trkpt><trkpt lat="44.3387692" lon="8.3211874"><ele>404.2</ele><time>2026-03-30T15:39:59.802Z</time></trkpt><trkpt lat="44.3386683" lon="8.3212289"><ele>404.6</ele><time>2026-03-30T15:40:01.801Z</time></trkpt><trkpt lat="44.3385699" lon="8.3212953"><ele>405.0</ele><time>2026-03-30T15:40:03.8Z</time></trkpt><trkpt lat="44.3384856" lon="8.321379"><ele>401.5</ele><time>2026-03-30T15:40:05.801Z</time></trkpt><trkpt lat="44.3384033" lon="8.3214752"><ele>398.0</ele><time>2026-03-30T15:40:07.8Z</time></trkpt><trkpt lat="44.3383167" lon="8.321581"><ele>394.5</ele><time>2026-03-30T15:40:09.8Z</time></trkpt><trkpt lat="44.3382219" lon="8.3216788"><ele>391.0</ele><time>2026-03-30T15:40:11.8Z</time></trkpt><trkpt lat="44.3381441" lon="8.3217905"><ele>391.0</ele><time>2026-03-30T15:40:13.801Z</time></trkpt><trkpt lat="44.3380596" lon="8.3219087"><ele>391.0</ele><time>2026-03-30T15:40:15.801Z</time></trkpt><trkpt lat="44.338014" lon="8.3219761"><ele>391.0</ele><time>2026-03-30T15:40:16.801Z</time></trkpt><trkpt lat="44.3379421" lon="8.322113"><ele>391.0</ele><time>2026-03-30T15:40:18.802Z</time></trkpt><trkpt lat="44.3378791" lon="8.3222531"><ele>391.0</ele><time>2026-03-30T15:40:20.8Z</time></trkpt><trkpt lat="44.3378138" lon="8.3223919"><ele>391.6</ele><time>2026-03-30T15:40:22.801Z</time></trkpt><trkpt lat="44.3377781" lon="8.3225588"><ele>392.20000000000005</ele><time>2026-03-30T15:40:24.802Z</time></trkpt><trkpt lat="44.3377597" lon="8.3226466"><ele>392.79999999999995</ele><time>2026-03-30T15:40:25.801Z</time></trkpt><trkpt lat="44.3377383" lon="8.322819"><ele>393.4</ele><time>2026-03-30T15:40:27.8Z</time></trkpt><trkpt lat="44.3377317" lon="8.3229137"><ele>394.0</ele><time>2026-03-30T15:40:28.801Z</time></trkpt><trkpt lat="44.3377292" lon="8.3230085"><ele>392.2</ele><time>2026-03-30T15:40:29.799Z</time></trkpt><trkpt lat="44.337731" lon="8.3231013"><ele>390.4</ele><time>2026-03-30T15:40:30.802Z</time></trkpt><trkpt lat="44.3377303" lon="8.32319"><ele>388.6</ele><time>2026-03-30T15:40:31.801Z</time></trkpt><trkpt lat="44.3377424" lon="8.3232793"><ele>386.8</ele><time>2026-03-30T15:40:32.801Z</time></trkpt><trkpt lat="44.3377715" lon="8.3234585"><ele>385.0</ele><time>2026-03-30T15:40:34.801Z</time></trkpt><trkpt lat="44.3378236" lon="8.3236314"><ele>385.0</ele><time>2026-03-30T15:40:36.801Z</time></trkpt><trkpt lat="44.3378478" lon="8.3237176"><ele>385.0</ele><time>2026-03-30T15:40:37.8Z</time></trkpt><trkpt lat="44.3378979" lon="8.3238787"><ele>385.0</ele><time>2026-03-30T15:40:39.8Z</time></trkpt><trkpt lat="44.3379314" lon="8.3239645"><ele>385.0</ele><time>2026-03-30T15:40:40.8Z</time></trkpt><trkpt lat="44.3379817" lon="8.3241008"><ele>385.0</ele><time>2026-03-30T15:40:42.799Z</time></trkpt><trkpt lat="44.3380302" lon="8.3242318"><ele>384.75</ele><time>2026-03-30T15:40:44.801Z</time></trkpt><trkpt lat="44.3380786" lon="8.3243733"><ele>384.5</ele><time>2026-03-30T15:40:46.8Z</time></trkpt><trkpt lat="44.3381398" lon="8.3245229"><ele>384.25</ele><time>2026-03-30T15:40:48.801Z</time></trkpt><trkpt lat="44.3381708" lon="8.3246629"><ele>384.0</ele><time>2026-03-30T15:40:50.801Z</time></trkpt><trkpt lat="44.3381384" lon="8.3248176"><ele>384.4</ele><time>2026-03-30T15:40:52.8Z</time></trkpt><trkpt lat="44.3380834" lon="8.3248615"><ele>384.79999999999995</ele><time>2026-03-30T15:40:53.8Z</time></trkpt><trkpt lat="44.337967" lon="8.3248875"><ele>385.20000000000005</ele><time>2026-03-30T15:40:55.799Z</time></trkpt><trkpt lat="44.3378488" lon="8.3248935"><ele>385.6</ele><time>2026-03-30T15:40:57.801Z</time></trkpt><trkpt lat="44.3377258" lon="8.3249029"><ele>386.0</ele><time>2026-03-30T15:40:59.8Z</time></trkpt><trkpt lat="44.3376613" lon="8.3249078"><ele>386.14285714285717</ele><time>2026-03-30T15:41:00.801Z</time></trkpt><trkpt lat="44.3375985" lon="8.3249201"><ele>386.2857142857143</ele><time>2026-03-30T15:41:01.8Z</time></trkpt><trkpt lat="44.3375333" lon="8.3249261"><ele>386.42857142857144</ele><time>2026-03-30T15:41:02.802Z</time></trkpt><trkpt lat="44.3374653" lon="8.3249272"><ele>386.57142857142856</ele><time>2026-03-30T15:41:03.801Z</time></trkpt><trkpt lat="44.3373977" lon="8.3249301"><ele>386.7142857142857</ele><time>2026-03-30T15:41:04.8Z</time></trkpt><trkpt lat="44.3373283" lon="8.3249403"><ele>386.8571428571429</ele><time>2026-03-30T15:41:05.801Z</time></trkpt><trkpt lat="44.3372603" lon="8.3249525"><ele>387.0</ele><time>2026-03-30T15:41:06.801Z</time></trkpt><trkpt lat="44.3371875" lon="8.3249529"><ele>387.0</ele><time>2026-03-30T15:41:07.801Z</time></trkpt><trkpt lat="44.3371211" lon="8.3249576"><ele>387.0</ele><time>2026-03-30T15:41:08.801Z</time></trkpt><trkpt lat="44.3370577" lon="8.3249625"><ele>387.0</ele><time>2026-03-30T15:41:09.801Z</time></trkpt><trkpt lat="44.336988" lon="8.324973"><ele>387.0</ele><time>2026-03-30T15:41:10.802Z</time></trkpt><trkpt lat="44.3368766" lon="8.3249681"><ele>387.0</ele><time>2026-03-30T15:41:12.801Z</time></trkpt><trkpt lat="44.3368103" lon="8.3249937"><ele>387.0</ele><time>2026-03-30T15:41:13.801Z</time></trkpt><trkpt lat="44.3367442" lon="8.3250344"><ele>387.0</ele><time>2026-03-30T15:41:14.801Z</time></trkpt><trkpt lat="44.3366828" lon="8.325077"><ele>387.0</ele><time>2026-03-30T15:41:15.801Z</time></trkpt><trkpt lat="44.3366236" lon="8.3251145"><ele>387.0</ele><time>2026-03-30T15:41:16.8Z</time></trkpt><trkpt lat="44.3365104" lon="8.3251946"><ele>387.0</ele><time>2026-03-30T15:41:18.801Z</time></trkpt><trkpt lat="44.3364149" lon="8.3252609"><ele>387.0</ele><time>2026-03-30T15:41:20.799Z</time></trkpt><trkpt lat="44.3363025" lon="8.3253307"><ele>387.1666666666667</ele><time>2026-03-30T15:41:22.801Z</time></trkpt><trkpt lat="44.3362102" lon="8.3253583"><ele>387.33333333333337</ele><time>2026-03-30T15:41:24.801Z</time></trkpt><trkpt lat="44.3361027" lon="8.3254588"><ele>387.5</ele><time>2026-03-30T15:41:26.8Z</time></trkpt><trkpt lat="44.3360517" lon="8.3255107"><ele>387.6666666666667</ele><time>2026-03-30T15:41:27.801Z</time></trkpt><trkpt lat="44.3359993" lon="8.3255706"><ele>387.83333333333337</ele><time>2026-03-30T15:41:28.8Z</time></trkpt><trkpt lat="44.3359474" lon="8.3256349"><ele>388.0</ele><time>2026-03-30T15:41:29.801Z</time></trkpt><trkpt lat="44.3358956" lon="8.3256927"><ele>389.00000000000006</ele><time>2026-03-30T15:41:30.8Z</time></trkpt><trkpt lat="44.3358475" lon="8.3257566"><ele>390.0</ele><time>2026-03-30T15:41:31.8Z</time></trkpt><trkpt lat="44.3357992" lon="8.3258197"><ele>391.0</ele><time>2026-03-30T15:41:32.801Z</time></trkpt><trkpt lat="44.3357516" lon="8.3258863"><ele>392.0</ele><time>2026-03-30T15:41:33.801Z</time></trkpt><trkpt lat="44.3357114" lon="8.3259572"><ele>393.00000000000006</ele><time>2026-03-30T15:41:34.801Z</time></trkpt><trkpt lat="44.3356273" lon="8.3260877"><ele>394.0</ele><time>2026-03-30T15:41:36.8Z</time></trkpt><trkpt lat="44.3355822" lon="8.3261566"><ele>392.75</ele><time>2026-03-30T15:41:37.802Z</time></trkpt><trkpt lat="44.3354918" lon="8.3262762"><ele>391.5</ele><time>2026-03-30T15:41:39.801Z</time></trkpt><trkpt lat="44.3354091" lon="8.3263915"><ele>390.25</ele><time>2026-03-30T15:41:41.801Z</time></trkpt><trkpt lat="44.3353149" lon="8.3265009"><ele>389.0</ele><time>2026-03-30T15:41:43.801Z</time></trkpt><trkpt lat="44.3352198" lon="8.3265878"><ele>388.99999999999994</ele><time>2026-03-30T15:41:45.801Z</time></trkpt><trkpt lat="44.3351622" lon="8.3266269"><ele>389.0</ele><time>2026-03-30T15:41:46.8Z</time></trkpt><trkpt lat="44.3351018" lon="8.3266619"><ele>389.0</ele><time>2026-03-30T15:41:47.8Z</time></trkpt><trkpt lat="44.335038" lon="8.3266791"><ele>389.0</ele><time>2026-03-30T15:41:48.8Z</time></trkpt><trkpt lat="44.3349201" lon="8.3266821"><ele>388.99999999999994</ele><time>2026-03-30T15:41:50.801Z</time></trkpt><trkpt lat="44.3348113" lon="8.3266433"><ele>389.0</ele><time>2026-03-30T15:41:52.799Z</time></trkpt><trkpt lat="44.3347105" lon="8.3265826"><ele>389.0</ele><time>2026-03-30T15:41:54.801Z</time></trkpt><trkpt lat="44.3346134" lon="8.326508"><ele>389.0</ele><time>2026-03-30T15:41:56.799Z</time></trkpt><trkpt lat="44.3345147" lon="8.3264436"><ele>389.0</ele><time>2026-03-30T15:41:58.802Z</time></trkpt><trkpt lat="44.3344159" lon="8.326367"><ele>389.0</ele><time>2026-03-30T15:42:00.801Z</time></trkpt><trkpt lat="44.3343097" lon="8.3262989"><ele>389.0</ele><time>2026-03-30T15:42:02.801Z</time></trkpt><trkpt lat="44.334209" lon="8.3262127"><ele>389.0</ele><time>2026-03-30T15:42:04.801Z</time></trkpt><trkpt lat="44.3341075" lon="8.3261335"><ele>389.0</ele><time>2026-03-30T15:42:06.801Z</time></trkpt><trkpt lat="44.3340032" lon="8.3260596"><ele>389.0</ele><time>2026-03-30T15:42:08.799Z</time></trkpt><trkpt lat="44.3339005" lon="8.3259808"><ele>389.6</ele><time>2026-03-30T15:42:10.8Z</time></trkpt><trkpt lat="44.3338002" lon="8.3259002"><ele>390.2</ele><time>2026-03-30T15:42:12.801Z</time></trkpt><trkpt lat="44.3337087" lon="8.3258379"><ele>390.8</ele><time>2026-03-30T15:42:14.8Z</time></trkpt><trkpt lat="44.3336087" lon="8.3257877"><ele>391.40000000000003</ele><time>2026-03-30T15:42:16.801Z</time></trkpt><trkpt lat="44.3334977" lon="8.3257848"><ele>392.0</ele><time>2026-03-30T15:42:18.802Z</time></trkpt><trkpt lat="44.3333989" lon="8.3257441"><ele>392.0</ele><time>2026-03-30T15:42:20.801Z</time></trkpt><trkpt lat="44.333294" lon="8.3257516"><ele>392.0</ele><time>2026-03-30T15:42:22.799Z</time></trkpt><trkpt lat="44.3332086" lon="8.3257829"><ele>392.0</ele><time>2026-03-30T15:42:24.802Z</time></trkpt><trkpt lat="44.3330995" lon="8.3258441"><ele>392.0</ele><time>2026-03-30T15:42:26.801Z</time></trkpt><trkpt lat="44.333041" lon="8.3258821"><ele>392.0</ele><time>2026-03-30T15:42:27.801Z</time></trkpt><trkpt lat="44.3329308" lon="8.3259557"><ele>396.6</ele><time>2026-03-30T15:42:29.802Z</time></trkpt><trkpt lat="44.3328418" lon="8.3260098"><ele>401.20000000000005</ele><time>2026-03-30T15:42:31.799Z</time></trkpt><trkpt lat="44.3327451" lon="8.326077"><ele>405.8</ele><time>2026-03-30T15:42:33.8Z</time></trkpt><trkpt lat="44.3326585" lon="8.3261318"><ele>410.4</ele><time>2026-03-30T15:42:35.8Z</time></trkpt><trkpt lat="44.3325586" lon="8.3262003"><ele>415.0</ele><time>2026-03-30T15:42:37.801Z</time></trkpt><trkpt lat="44.3324729" lon="8.3262495"><ele>415.0</ele><time>2026-03-30T15:42:39.8Z</time></trkpt><trkpt lat="44.3323724" lon="8.3263131"><ele>415.0</ele><time>2026-03-30T15:42:41.801Z</time></trkpt><trkpt lat="44.3322742" lon="8.3263586"><ele>415.0</ele><time>2026-03-30T15:42:43.8Z</time></trkpt><trkpt lat="44.3321822" lon="8.326412"><ele>415.0</ele><time>2026-03-30T15:42:45.801Z</time></trkpt><trkpt lat="44.3320829" lon="8.3264699"><ele>415.0</ele><time>2026-03-30T15:42:47.799Z</time></trkpt><trkpt lat="44.3319711" lon="8.3265402"><ele>411.4</ele><time>2026-03-30T15:42:49.799Z</time></trkpt><trkpt lat="44.3318709" lon="8.3266172"><ele>407.8</ele><time>2026-03-30T15:42:51.8Z</time></trkpt><trkpt lat="44.3318156" lon="8.3266623"><ele>404.20000000000005</ele><time>2026-03-30T15:42:52.801Z</time></trkpt><trkpt lat="44.3317114" lon="8.326739"><ele>400.6</ele><time>2026-03-30T15:42:54.801Z</time></trkpt><trkpt lat="44.3316083" lon="8.3267971"><ele>397.0</ele><time>2026-03-30T15:42:56.799Z</time></trkpt><trkpt lat="44.3315138" lon="8.3268378"><ele>397.0</ele><time>2026-03-30T15:42:58.799Z</time></trkpt><trkpt lat="44.3314205" lon="8.326915"><ele>397.0</ele><time>2026-03-30T15:43:00.801Z</time></trkpt><trkpt lat="44.3313225" lon="8.3269912"><ele>397.0</ele><time>2026-03-30T15:43:02.801Z</time></trkpt><trkpt lat="44.3312327" lon="8.3270903"><ele>397.0</ele><time>2026-03-30T15:43:04.801Z</time></trkpt><trkpt lat="44.3311427" lon="8.3271856"><ele>397.0</ele><time>2026-03-30T15:43:06.801Z</time></trkpt><trkpt lat="44.3310497" lon="8.3272894"><ele>397.40000000000003</ele><time>2026-03-30T15:43:08.8Z</time></trkpt><trkpt lat="44.3309649" lon="8.3273804"><ele>397.8</ele><time>2026-03-30T15:43:10.8Z</time></trkpt><trkpt lat="44.3309137" lon="8.3274349"><ele>398.2</ele><time>2026-03-30T15:43:11.802Z</time></trkpt><trkpt lat="44.3308212" lon="8.3275356"><ele>398.6</ele><time>2026-03-30T15:43:13.8Z</time></trkpt><trkpt lat="44.3307389" lon="8.327644"><ele>399.0</ele><time>2026-03-30T15:43:15.802Z</time></trkpt><trkpt lat="44.3306492" lon="8.3277435"><ele>399.0</ele><time>2026-03-30T15:43:17.799Z</time></trkpt><trkpt lat="44.3305587" lon="8.3278424"><ele>399.0</ele><time>2026-03-30T15:43:19.8Z</time></trkpt><trkpt lat="44.3304614" lon="8.3279426"><ele>399.0</ele><time>2026-03-30T15:43:21.801Z</time></trkpt><trkpt lat="44.330369" lon="8.3280367"><ele>399.0</ele><time>2026-03-30T15:43:23.8Z</time></trkpt><trkpt lat="44.3302809" lon="8.328132"><ele>399.25</ele><time>2026-03-30T15:43:25.801Z</time></trkpt><trkpt lat="44.3301824" lon="8.3282226"><ele>399.5</ele><time>2026-03-30T15:43:27.801Z</time></trkpt><trkpt lat="44.3300777" lon="8.3283149"><ele>399.75</ele><time>2026-03-30T15:43:29.801Z</time></trkpt><trkpt lat="44.3299744" lon="8.3284011"><ele>400.0</ele><time>2026-03-30T15:43:31.799Z</time></trkpt><trkpt lat="44.3298685" lon="8.3284807"><ele>400.0</ele><time>2026-03-30T15:43:33.8Z</time></trkpt><trkpt lat="44.3298109" lon="8.3285182"><ele>400.0</ele><time>2026-03-30T15:43:34.8Z</time></trkpt><trkpt lat="44.3297078" lon="8.3285749"><ele>400.0</ele><time>2026-03-30T15:43:36.799Z</time></trkpt><trkpt lat="44.3295959" lon="8.3286214"><ele>400.0</ele><time>2026-03-30T15:43:38.801Z</time></trkpt><trkpt lat="44.3294853" lon="8.328677"><ele>400.0</ele><time>2026-03-30T15:43:40.802Z</time></trkpt><trkpt lat="44.3293737" lon="8.3287285"><ele>399.6</ele><time>2026-03-30T15:43:42.801Z</time></trkpt><trkpt lat="44.3292641" lon="8.3287736"><ele>399.2</ele><time>2026-03-30T15:43:44.8Z</time></trkpt><trkpt lat="44.3291541" lon="8.3288362"><ele>398.79999999999995</ele><time>2026-03-30T15:43:46.8Z</time></trkpt><trkpt lat="44.3290969" lon="8.3288753"><ele>398.4</ele><time>2026-03-30T15:43:47.801Z</time></trkpt><trkpt lat="44.3289899" lon="8.3289164"><ele>398.0</ele><time>2026-03-30T15:43:49.799Z</time></trkpt><trkpt lat="44.3288818" lon="8.3289744"><ele>400.0</ele><time>2026-03-30T15:43:51.8Z</time></trkpt><trkpt lat="44.3287798" lon="8.329029"><ele>402.0</ele><time>2026-03-30T15:43:53.8Z</time></trkpt><trkpt lat="44.328673" lon="8.3290839"><ele>404.0</ele><time>2026-03-30T15:43:55.801Z</time></trkpt><trkpt lat="44.3285688" lon="8.3291568"><ele>406.0</ele><time>2026-03-30T15:43:57.802Z</time></trkpt><trkpt lat="44.3284618" lon="8.3292254"><ele>406.0</ele><time>2026-03-30T15:43:59.799Z</time></trkpt><trkpt lat="44.3283543" lon="8.3292759"><ele>406.0</ele><time>2026-03-30T15:44:01.8Z</time></trkpt><trkpt lat="44.3282398" lon="8.3293174"><ele>406.0</ele><time>2026-03-30T15:44:03.801Z</time></trkpt><trkpt lat="44.3281298" lon="8.3293698"><ele>406.0</ele><time>2026-03-30T15:44:05.799Z</time></trkpt><trkpt lat="44.3280202" lon="8.3294218"><ele>404.75</ele><time>2026-03-30T15:44:07.8Z</time></trkpt><trkpt lat="44.3279121" lon="8.3294698"><ele>403.5</ele><time>2026-03-30T15:44:09.8Z</time></trkpt><trkpt lat="44.3278036" lon="8.3295281"><ele>402.25</ele><time>2026-03-30T15:44:11.802Z</time></trkpt><trkpt lat="44.3276997" lon="8.3295926"><ele>401.0</ele><time>2026-03-30T15:44:13.802Z</time></trkpt><trkpt lat="44.3275948" lon="8.3296555"><ele>400.4</ele><time>2026-03-30T15:44:15.8Z</time></trkpt><trkpt lat="44.327493" lon="8.3297294"><ele>399.8</ele><time>2026-03-30T15:44:17.801Z</time></trkpt><trkpt lat="44.3273934" lon="8.3297874"><ele>399.2</ele><time>2026-03-30T15:44:19.8Z</time></trkpt><trkpt lat="44.3272975" lon="8.3298402"><ele>398.59999999999997</ele><time>2026-03-30T15:44:21.801Z</time></trkpt><trkpt lat="44.3272039" lon="8.3299129"><ele>398.0</ele><time>2026-03-30T15:44:23.8Z</time></trkpt><trkpt lat="44.3271098" lon="8.3299774"><ele>398.0</ele><time>2026-03-30T15:44:25.8Z</time></trkpt><trkpt lat="44.3270203" lon="8.3300285"><ele>398.0</ele><time>2026-03-30T15:44:27.8Z</time></trkpt><trkpt lat="44.3269336" lon="8.3300929"><ele>398.0</ele><time>2026-03-30T15:44:29.802Z</time></trkpt><trkpt lat="44.3268367" lon="8.3301602"><ele>398.0</ele><time>2026-03-30T15:44:31.8Z</time></trkpt><trkpt lat="44.3267431" lon="8.3302029"><ele>398.0</ele><time>2026-03-30T15:44:33.8Z</time></trkpt><trkpt lat="44.3266401" lon="8.3301744"><ele>398.0</ele><time>2026-03-30T15:44:35.801Z</time></trkpt><trkpt lat="44.3265715" lon="8.3300693"><ele>398.0</ele><time>2026-03-30T15:44:37.8Z</time></trkpt><trkpt lat="44.3265205" lon="8.3299227"><ele>398.0</ele><time>2026-03-30T15:44:39.802Z</time></trkpt><trkpt lat="44.3264738" lon="8.3297942"><ele>398.0</ele><time>2026-03-30T15:44:41.8Z</time></trkpt><trkpt lat="44.3264599" lon="8.3296701"><ele>398.0</ele><time>2026-03-30T15:44:43.801Z</time></trkpt><trkpt lat="44.3264399" lon="8.3295237"><ele>397.75</ele><time>2026-03-30T15:44:45.802Z</time></trkpt><trkpt lat="44.3264111" lon="8.3293689"><ele>397.5</ele><time>2026-03-30T15:44:47.801Z</time></trkpt><trkpt lat="44.3263845" lon="8.3292148"><ele>397.25</ele><time>2026-03-30T15:44:49.8Z</time></trkpt><trkpt lat="44.3263849" lon="8.3290666"><ele>397.0</ele><time>2026-03-30T15:44:51.8Z</time></trkpt><trkpt lat="44.3263875" lon="8.3288984"><ele>400.75</ele><time>2026-03-30T15:44:53.801Z</time></trkpt><trkpt lat="44.3263664" lon="8.3287424"><ele>404.5</ele><time>2026-03-30T15:44:55.801Z</time></trkpt><trkpt lat="44.3263581" lon="8.3285829"><ele>408.25</ele><time>2026-03-30T15:44:57.799Z</time></trkpt><trkpt lat="44.3263594" lon="8.3284323"><ele>412.0</ele><time>2026-03-30T15:44:59.802Z</time></trkpt><trkpt lat="44.3263475" lon="8.3282707"><ele>412.0</ele><time>2026-03-30T15:45:01.8Z</time></trkpt><trkpt lat="44.326348" lon="8.3281078"><ele>412.0</ele><time>2026-03-30T15:45:03.8Z</time></trkpt><trkpt lat="44.3263172" lon="8.3279445"><ele>412.0</ele><time>2026-03-30T15:45:05.799Z</time></trkpt><trkpt lat="44.3262724" lon="8.3278"><ele>412.0</ele><time>2026-03-30T15:45:07.8Z</time></trkpt><trkpt lat="44.326207" lon="8.3276684"><ele>410.5</ele><time>2026-03-30T15:45:09.799Z</time></trkpt><trkpt lat="44.3261232" lon="8.3275594"><ele>409.0</ele><time>2026-03-30T15:45:11.8Z</time></trkpt><trkpt lat="44.3260245" lon="8.3274698"><ele>407.5</ele><time>2026-03-30T15:45:13.801Z</time></trkpt><trkpt lat="44.3259164" lon="8.3273829"><ele>406.0</ele><time>2026-03-30T15:45:15.799Z</time></trkpt><trkpt lat="44.3258037" lon="8.327308"><ele>406.00000000000006</ele><time>2026-03-30T15:45:17.8Z</time></trkpt><trkpt lat="44.3257402" lon="8.327267"><ele>406.0</ele><time>2026-03-30T15:45:18.799Z</time></trkpt><trkpt lat="44.3256809" lon="8.3272366"><ele>406.0</ele><time>2026-03-30T15:45:19.799Z</time></trkpt><trkpt lat="44.3256189" lon="8.3272051"><ele>406.0</ele><time>2026-03-30T15:45:20.8Z</time></trkpt><trkpt lat="44.3255531" lon="8.3271799"><ele>406.00000000000006</ele><time>2026-03-30T15:45:21.801Z</time></trkpt><trkpt lat="44.3254333" lon="8.3271459"><ele>406.0</ele><time>2026-03-30T15:45:23.801Z</time></trkpt><trkpt lat="44.3253307" lon="8.3271383"><ele>406.8</ele><time>2026-03-30T15:45:25.801Z</time></trkpt><trkpt lat="44.3252212" lon="8.3271439"><ele>407.6</ele><time>2026-03-30T15:45:27.8Z</time></trkpt><trkpt lat="44.3251092" lon="8.327136"><ele>408.4</ele><time>2026-03-30T15:45:29.801Z</time></trkpt><trkpt lat="44.3250279" lon="8.3271031"><ele>409.2</ele><time>2026-03-30T15:45:31.8Z</time></trkpt><trkpt lat="44.3249413" lon="8.327116"><ele>410.0</ele><time>2026-03-30T15:45:33.8Z</time></trkpt><trkpt lat="44.3248331" lon="8.3270991"><ele>410.0</ele><time>2026-03-30T15:45:35.801Z</time></trkpt><trkpt lat="44.3247676" lon="8.3270935"><ele>410.0</ele><time>2026-03-30T15:45:36.8Z</time></trkpt><trkpt lat="44.3246472" lon="8.3270635"><ele>410.0</ele><time>2026-03-30T15:45:38.801Z</time></trkpt><trkpt lat="44.3245822" lon="8.3270326"><ele>410.0</ele><time>2026-03-30T15:45:39.8Z</time></trkpt><trkpt lat="44.3244697" lon="8.3269617"><ele>410.0</ele><time>2026-03-30T15:45:41.8Z</time></trkpt><trkpt lat="44.3243671" lon="8.3268646"><ele>410.0</ele><time>2026-03-30T15:45:43.801Z</time></trkpt><trkpt lat="44.3243065" lon="8.3268085"><ele>410.0</ele><time>2026-03-30T15:45:44.8Z</time></trkpt><trkpt lat="44.3242032" lon="8.3266827"><ele>410.0</ele><time>2026-03-30T15:45:46.8Z</time></trkpt><trkpt lat="44.324181" lon="8.326594"><ele>410.0</ele><time>2026-03-30T15:45:47.8Z</time></trkpt><trkpt lat="44.3241598" lon="8.3264994"><ele>410.0</ele><time>2026-03-30T15:45:48.799Z</time></trkpt><trkpt lat="44.324123" lon="8.3263403"><ele>410.0</ele><time>2026-03-30T15:45:50.8Z</time></trkpt><trkpt lat="44.3240818" lon="8.3261937"><ele>410.0</ele><time>2026-03-30T15:45:52.8Z</time></trkpt><trkpt lat="44.3240781" lon="8.3260828"><ele>410.0</ele><time>2026-03-30T15:45:53.8Z</time></trkpt><trkpt lat="44.3240541" lon="8.3259832"><ele>410.0</ele><time>2026-03-30T15:45:54.799Z</time></trkpt><trkpt lat="44.3240481" lon="8.3258044"><ele>410.0</ele><time>2026-03-30T15:45:56.801Z</time></trkpt><trkpt lat="44.3240236" lon="8.3256627"><ele>409.4</ele><time>2026-03-30T15:45:58.8Z</time></trkpt><trkpt lat="44.3240158" lon="8.3254979"><ele>408.8</ele><time>2026-03-30T15:46:00.801Z</time></trkpt><trkpt lat="44.3240244" lon="8.3254021"><ele>408.20000000000005</ele><time>2026-03-30T15:46:01.8Z</time></trkpt><trkpt lat="44.3239914" lon="8.325246"><ele>407.6</ele><time>2026-03-30T15:46:03.8Z</time></trkpt><trkpt lat="44.3239604" lon="8.3250812"><ele>407.0</ele><time>2026-03-30T15:46:05.8Z</time></trkpt><trkpt lat="44.3239452" lon="8.3249447"><ele>407.0</ele><time>2026-03-30T15:46:07.799Z</time></trkpt><trkpt lat="44.3239249" lon="8.3247831"><ele>407.0</ele><time>2026-03-30T15:46:09.8Z</time></trkpt><trkpt lat="44.323908" lon="8.3246975"><ele>407.0</ele><time>2026-03-30T15:46:10.8Z</time></trkpt><trkpt lat="44.3238884" lon="8.3245483"><ele>407.0</ele><time>2026-03-30T15:46:12.8Z</time></trkpt><trkpt lat="44.3238439" lon="8.3243967"><ele>407.0</ele><time>2026-03-30T15:46:14.8Z</time></trkpt><trkpt lat="44.3238057" lon="8.3242369"><ele>407.8</ele><time>2026-03-30T15:46:16.801Z</time></trkpt><trkpt lat="44.3237434" lon="8.3241122"><ele>408.6</ele><time>2026-03-30T15:46:18.801Z</time></trkpt><trkpt lat="44.3236972" lon="8.3240478"><ele>409.40000000000003</ele><time>2026-03-30T15:46:19.8Z</time></trkpt><trkpt lat="44.323593" lon="8.3239601"><ele>410.20000000000005</ele><time>2026-03-30T15:46:21.801Z</time></trkpt><trkpt lat="44.3234829" lon="8.3239148"><ele>411.0</ele><time>2026-03-30T15:46:23.8Z</time></trkpt><trkpt lat="44.3234125" lon="8.3239278"><ele>411.0</ele><time>2026-03-30T15:46:24.8Z</time></trkpt><trkpt lat="44.3233438" lon="8.323955"><ele>411.0</ele><time>2026-03-30T15:46:25.801Z</time></trkpt><trkpt lat="44.3232793" lon="8.3239821"><ele>411.0</ele><time>2026-03-30T15:46:26.799Z</time></trkpt><trkpt lat="44.3232169" lon="8.3240131"><ele>411.0</ele><time>2026-03-30T15:46:27.8Z</time></trkpt><trkpt lat="44.3231533" lon="8.324052"><ele>411.0</ele><time>2026-03-30T15:46:28.801Z</time></trkpt><trkpt lat="44.3230554" lon="8.3241457"><ele>411.0</ele><time>2026-03-30T15:46:30.801Z</time></trkpt><trkpt lat="44.3229902" lon="8.3241931"><ele>411.0</ele><time>2026-03-30T15:46:31.8Z</time></trkpt><trkpt lat="44.3229045" lon="8.324289"><ele>411.0</ele><time>2026-03-30T15:46:33.8Z</time></trkpt><trkpt lat="44.3228111" lon="8.3243771"><ele>411.0</ele><time>2026-03-30T15:46:35.8Z</time></trkpt><trkpt lat="44.3227537" lon="8.3244865"><ele>411.0</ele><time>2026-03-30T15:46:37.8Z</time></trkpt><trkpt lat="44.3226907" lon="8.3245351"><ele>411.0</ele><time>2026-03-30T15:46:38.799Z</time></trkpt><trkpt lat="44.3225773" lon="8.3245751"><ele>411.0</ele><time>2026-03-30T15:46:40.801Z</time></trkpt><trkpt lat="44.3225129" lon="8.324584"><ele>411.0</ele><time>2026-03-30T15:46:41.8Z</time></trkpt><trkpt lat="44.3224477" lon="8.3245812"><ele>411.0</ele><time>2026-03-30T15:46:42.801Z</time></trkpt><trkpt lat="44.3223205" lon="8.3245579"><ele>411.0</ele><time>2026-03-30T15:46:44.8Z</time></trkpt><trkpt lat="44.3222173" lon="8.3245001"><ele>411.0</ele><time>2026-03-30T15:46:46.799Z</time></trkpt><trkpt lat="44.3221409" lon="8.3244158"><ele>410.6666666666667</ele><time>2026-03-30T15:46:48.799Z</time></trkpt><trkpt lat="44.3220968" lon="8.3243383"><ele>410.33333333333337</ele><time>2026-03-30T15:46:50.92Z</time></trkpt><trkpt lat="44.3220189" lon="8.3242154"><ele>410.0</ele><time>2026-03-30T15:46:53.801Z</time></trkpt><trkpt lat="44.3219673" lon="8.3241455"><ele>409.6666666666667</ele><time>2026-03-30T15:46:55.8Z</time></trkpt><trkpt lat="44.3218969" lon="8.3240666"><ele>409.33333333333337</ele><time>2026-03-30T15:46:58.8Z</time></trkpt><trkpt lat="44.3218252" lon="8.3240141"><ele>409.0</ele><time>2026-03-30T15:47:01.8Z</time></trkpt><trkpt lat="44.3217522" lon="8.3240491"><ele>409.0</ele><time>2026-03-30T15:47:04.801Z</time></trkpt><trkpt lat="44.3217186" lon="8.324161"><ele>409.0</ele><time>2026-03-30T15:47:17.801Z</time></trkpt><trkpt lat="44.3217206" lon="8.3240665"><ele>409.0</ele><time>2026-03-30T15:47:23.802Z</time></trkpt></trkseg></trk></gpx>